Date StartTime U_cm/s V_cm/s W_cm/s Ustd_cm/s Vstd_cm/s Wstd_cm/s Uvar_(cm/s)^2 Vvar_(cm/s)^2 Wvar_(cm/s)^2 KE_(m/s)^2 TurbulentKE_(m/s)^2 HorizWindSpeed_cm/s FrictionSpeec_cm/s DragCoef SpeedOfSound_m/s SonicTemperature_C Pressure_mb 
05/12/2014  00:00:00      -82.351      -47.220      -14.443       14.212        9.991        8.493      201.971       99.811       72.136        0.480        0.019       94.928        4.399        0.002      336.789        8.327      865.666
05/12/2014  00:01:00      -78.076      -35.565      -10.689       17.374       13.703       10.142      301.847      187.785      102.855        0.403        0.030       85.795        6.287        0.005      336.856        8.439      865.653
05/12/2014  00:02:00      -78.342      -27.050       -5.569       19.881       18.837       14.790      395.269      354.842      218.743        0.393        0.048       82.881       10.262        0.015      336.896        8.506      865.653
05/12/2014  00:03:00     -113.594      -34.240       -8.130       22.049       22.106       13.243      486.139      488.696      175.379        0.765        0.058      118.642       11.073        0.009      336.864        8.452      865.655
05/12/2014  00:04:00     -130.120      -51.615      -12.918       13.429       12.805       10.345      180.333      163.959      107.012        1.011        0.023      139.983        6.305        0.002      336.802        8.349      865.655
05/12/2014  00:05:00     -127.724      -54.086      -11.021       13.507       12.833       11.259      182.434      164.676      126.757        0.992        0.024      138.704        8.350        0.004      336.740        8.246      865.655
05/12/2014  00:06:00     -125.130      -72.301      -11.815       13.492       17.072        8.098      182.035      291.459       65.576        1.078        0.027      144.516        2.514        0.000      336.765        8.287      865.669
05/12/2014  00:07:00     -112.662      -57.345       -5.980       22.691       17.338       12.185      514.860      300.619      148.464        0.849        0.048      126.417       12.766        0.010      336.732        8.232      865.678
05/12/2014  00:08:00     -108.795      -39.251      -11.937       11.994       15.467       11.892      143.862      239.224      141.408        0.702        0.026      115.659        7.382        0.004      336.742        8.248      865.685
05/12/2014  00:09:00     -104.136      -47.987      -12.299       17.903       16.787       13.084      320.517      281.803      171.192        0.704        0.039      114.661        4.366        0.001      336.717        8.207      865.697
05/12/2014  00:10:00     -106.895      -57.316      -10.653       18.996       14.218       12.561      360.860      202.142      157.791        0.777        0.036      121.292       10.046        0.007      336.702        8.182      865.714
05/12/2014  00:11:00      -88.924      -47.591        3.438       32.381       24.815       18.267     1048.506      615.781      333.698        0.609        0.100      100.858       15.997        0.025      336.725        8.221      865.732
05/12/2014  00:12:00      -78.100      -44.855       -0.523       14.949       16.459       13.112      223.469      270.904      171.917        0.439        0.033       90.064        5.487        0.004      336.693        8.167      865.749
05/12/2014  00:13:00      -30.298      -27.246       -0.613       38.210       20.785       16.752     1460.026      432.018      280.618        0.192        0.109       40.747       16.091        0.156      336.716        8.205      865.754
05/12/2014  00:14:00      -10.590      -15.710       10.968       30.023       17.800       13.657      901.363      316.856      186.505        0.094        0.070       18.946       15.502        0.670      336.697        8.174      865.754
05/12/2014  00:15:00      -77.473      -58.226       -2.323       36.516       29.413       14.247     1333.415      865.118      202.976        0.590        0.120       96.914       13.159        0.018      336.690        8.161      865.757
05/12/2014  00:16:00     -101.906      -55.271        3.108       39.392       24.700       23.195     1551.716      610.108      537.989        0.807        0.135      115.930       23.567        0.041      336.589        7.993      865.742
05/12/2014  00:17:00      -73.428      -50.478        9.022       60.447       31.044       26.113     3653.887      963.761      681.892        0.666        0.265       89.105       30.357        0.116      336.505        7.852      865.738
05/12/2014  00:18:00     -107.534      -67.405        3.149       40.145       23.697       20.407     1611.602      561.553      416.460        0.935        0.129      126.913       17.527        0.019      336.449        7.758      865.730
05/12/2014  00:19:00     -129.734      -54.988        0.036       17.167       23.929       14.459      294.706      572.595      209.060        1.047        0.054      140.907       10.028        0.005      336.448        7.756      865.738
05/12/2014  00:20:00     -101.035      -60.473       -4.192       39.435       28.230       19.058     1555.142      796.954      363.210        0.830        0.136      117.750       18.066        0.024      336.480        7.811      865.749
05/12/2014  00:21:00      -88.296      -65.732        0.058       37.089       29.695       20.302     1375.607      881.765      412.188        0.739        0.133      110.077       17.608        0.026      336.524        7.884      865.754
05/12/2014  00:22:00      -63.039      -37.182        6.282       45.804       30.014       28.780     2097.995      900.829      828.263        0.461        0.191       73.187       24.219        0.110      336.481        7.813      865.763
05/12/2014  00:23:00      -92.116      -59.322        7.120       41.019       27.292       22.803     1682.590      744.869      519.997        0.750        0.147      109.565       17.983        0.027      336.513        7.865      865.778
05/12/2014  00:24:00      -63.454      -62.176        4.327       49.183       32.900       22.083     2418.964     1082.412      487.672        0.595        0.199       88.838       21.036        0.056      336.505        7.852      865.802
05/12/2014  00:25:00      -77.739      -49.002        4.966       44.511       33.929       25.551     1981.204     1151.151      652.833        0.613        0.189       91.894       22.206        0.058      336.470        7.795      865.833
05/12/2014  00:26:00      -93.276      -75.108        5.150       47.772       34.506       26.317     2282.181     1190.666      692.578        0.927        0.208      119.756       23.323        0.038      336.521        7.879      865.833
05/12/2014  00:27:00      -66.366      -61.025        7.589       56.805       35.560       30.052     3226.862     1264.546      903.139        0.679        0.270       90.158       26.665        0.087      336.451        7.762      865.840
05/12/2014  00:28:00      -86.196      -62.592       10.424       56.337       41.713       30.364     3173.838     1739.989      921.975        0.864        0.292      106.525       33.263        0.098      336.423        7.715      865.845
05/12/2014  00:29:00     -135.516      -73.145        2.027       48.984       46.788       28.504     2399.475     2189.133      812.499        1.456        0.270      153.996       34.040        0.049      336.399        7.674      865.860
05/12/2014  00:30:00     -104.020      -82.795        6.267       52.393       43.692       31.662     2745.058     1909.027     1002.492        1.168        0.283      132.948       26.890        0.041      336.418        7.705      865.862
05/12/2014  00:31:00     -107.816      -69.122        5.841       60.641       40.658       27.726     3677.274     1653.055      768.747        1.127        0.305      128.071       24.534        0.037      336.354        7.599      865.868
05/12/2014  00:32:00      -98.097      -68.174        8.298       52.347       34.793       29.452     2740.232     1210.576      867.446        0.958        0.241      119.460       29.651        0.062      336.327        7.553      865.873
05/12/2014  00:33:00     -141.933      -80.501        2.433       47.991       37.968       28.120     2303.178     1441.540      790.723        1.558        0.227      163.173       30.877        0.036      336.354        7.599      865.888
05/12/2014  00:34:00      -93.120      -62.605        2.854       57.097       50.929       30.937     3260.082     2593.799      957.071        0.970        0.341      112.208       29.759        0.070      336.392        7.663      865.891
05/12/2014  00:35:00      -92.114      -59.520        9.358       55.888       32.227       32.093     3123.448     1038.598     1029.992        0.865        0.260      109.671       32.900        0.090      336.320        7.543      865.893
05/12/2014  00:36:00     -117.345      -85.469       -0.525       43.836       32.435       24.931     1921.607     1052.020      621.554        1.233        0.180      145.171       25.403        0.031      336.354        7.600      865.912
05/12/2014  00:37:00     -110.501     -102.477        0.819       43.809       28.604       22.977     1919.248      818.198      527.922        1.299        0.163      150.705       19.364        0.017      336.370        7.626      865.926
05/12/2014  00:38:00      -60.434      -57.402       13.696       62.527       44.468       28.707     3909.622     1977.375      824.064        0.692        0.336       83.350       34.858        0.175      336.339        7.575      865.926
05/12/2014  00:39:00     -103.774      -83.336       -0.905       53.674       44.394       25.129     2880.920     1970.803      631.459        1.160        0.274      133.094       24.035        0.033      336.323        7.547      865.942
05/12/2014  00:40:00      -86.179      -66.272        5.934       53.129       38.422       20.369     2822.714     1476.244      414.879        0.828        0.236      108.714       21.161        0.038      336.282        7.479      865.961
05/12/2014  00:41:00     -123.485      -97.918       -4.430       40.509       36.376       21.075     1641.014     1323.186      444.169        1.413        0.170      157.596       21.229        0.018      336.237        7.404      865.957
05/12/2014  00:42:00      -85.752      -49.040        5.414       62.156       33.311       26.433     3863.425     1109.601      698.691        0.773        0.284       98.785       29.898        0.092      336.166        7.285      865.941
05/12/2014  00:43:00      -57.620      -48.569        9.136       50.768       39.207       29.450     2577.348     1537.195      867.314        0.537        0.249       75.360       27.803        0.136      336.218        7.373      865.936
05/12/2014  00:44:00     -138.070      -83.047       -8.940       30.130       27.069       18.027      907.818      732.743      324.973        1.400        0.098      161.122       13.041        0.007      336.216        7.368      865.941
05/12/2014  00:45:00     -137.827      -71.960      -16.713       21.346       24.469       14.114      455.649      598.719      199.208        1.285        0.063      155.482        6.285        0.002      336.134        7.231      865.938
05/12/2014  00:46:00     -129.398      -66.178      -13.449       23.881       22.759       16.067      570.319      517.964      258.133        1.133        0.067      145.339       14.880        0.010      336.180        7.306      865.948
05/12/2014  00:47:00     -143.622      -51.686      -16.622       29.462       26.722       21.347      868.004      714.068      455.708        1.281        0.102      152.640       22.248        0.021      336.224        7.381      865.955
05/12/2014  00:48:00     -152.087      -20.413      -14.734       38.782       27.569       21.181     1504.068      760.055      448.620        1.324        0.136      153.451       22.853        0.022      336.239        7.405      865.956
05/12/2014  00:49:00     -180.099       -5.604      -25.812       33.277       29.668       25.928     1107.349      880.172      672.250        1.790        0.133      180.186       19.913        0.012      336.425        7.717      865.953
05/12/2014  00:50:00     -201.015       28.452      -22.282       43.858       36.072       22.761     1923.489     1301.194      518.082        2.273        0.187      203.019       20.079        0.010      336.638        8.072      865.962
05/12/2014  00:51:00     -238.911       54.789      -23.405       26.181       24.419       18.795      685.432      596.282      353.255        3.113        0.082      245.112       13.543        0.003      336.590        7.988      865.968
05/12/2014  00:52:00     -213.996       33.825      -23.148       29.219       33.572       19.076      853.735     1127.096      363.883        2.491        0.117      216.653        7.440        0.001      336.586        7.985      865.974
05/12/2014  00:53:00     -229.806       42.673      -23.746       36.374       36.769       19.491     1323.066     1351.948      379.906        2.912        0.153      233.734       12.131        0.003      336.550        7.922      865.988
05/12/2014  00:54:00     -185.245       33.596      -23.234       48.441       45.147       25.511     2346.555     2038.261      650.810        2.051        0.252      188.267       19.773        0.011      336.550        7.926      865.995
05/12/2014  00:55:00     -205.987       35.784      -20.280       35.157       39.365       20.016     1236.047     1549.595      400.644        2.365        0.159      209.072       15.523        0.006      336.415        7.699      865.992
05/12/2014  00:56:00     -129.709      -38.472      -23.211       30.345       35.170       17.049      920.817     1236.901      290.671        1.065        0.122      135.294       13.948        0.011      336.395        7.669      865.994
05/12/2014  00:57:00     -108.870      -37.563       -6.099       27.517       32.796       22.944      757.202     1075.569      526.418        0.783        0.118      115.168       14.380        0.016      336.249        7.423      865.998
05/12/2014  00:58:00      -85.586       -8.532       -0.477       35.418       42.374       23.930     1254.455     1795.523      572.654        0.551        0.181       86.010       16.646        0.037      336.165        7.283      866.002
05/12/2014  00:59:00      -88.305      -23.055       -5.556       25.761       35.205       16.943      663.629     1239.398      287.050        0.527        0.110       91.265       11.864        0.017      336.111        7.193      866.019
05/12/2014  01:00:00      -46.541      -38.271        6.145       43.459       23.095       20.405     1888.683      533.385      416.346        0.325        0.142       60.255       21.643        0.129      336.142        7.244      866.029
05/12/2014  01:01:00     -110.705      -61.272      -11.522       18.580       26.390       14.368      345.223      696.441      206.437        0.870        0.062      126.530        9.848        0.006      336.184        7.316      866.033
05/12/2014  01:02:00      -96.058      -54.933       -7.632       26.947       27.773       18.162      726.162      771.317      329.855        0.706        0.091      110.656       12.005        0.012      336.220        7.375      866.044
05/12/2014  01:03:00      -81.675      -41.175        1.118       29.823       25.437       15.743      889.398      647.044      247.827        0.508        0.089       91.467       12.003        0.017      336.260        7.442      866.047
05/12/2014  01:04:00      -63.938      -53.453        5.384       45.051       20.084       21.685     2029.625      403.365      470.252        0.494        0.145       83.338       21.601        0.067      336.292        7.495      866.048
05/12/2014  01:05:00      -97.136      -65.268       -0.284       37.364       26.861       21.534     1396.068      721.504      463.728        0.814        0.129      117.027       16.538        0.020      336.245        7.416      866.063
05/12/2014  01:06:00      -90.927      -72.197       -5.323       52.231       34.239       25.577     2728.120     1172.313      654.200        0.903        0.228      116.104       22.693        0.038      336.160        7.276      866.070
05/12/2014  01:07:00      -77.633      -70.851        8.502       61.639       35.821       30.677     3799.379     1283.125      941.079        0.857        0.301      105.103       32.795        0.097      336.146        7.251      866.066
05/12/2014  01:08:00      -55.956      -57.070        7.927       61.576       33.689       29.340     3791.595     1134.931      860.820        0.612        0.289       79.925       27.815        0.121      336.113        7.197      866.076
05/12/2014  01:09:00      -77.951      -66.230       10.932       54.189       31.925       28.688     2936.456     1019.175      822.996        0.768        0.239      102.288       28.814        0.079      336.077        7.136      866.072
05/12/2014  01:10:00     -108.242      -80.425        2.945       39.922       34.129       25.090     1593.748     1164.761      629.513        1.079        0.169      134.850       20.894        0.024      336.024        7.047      866.066
05/12/2014  01:11:00     -153.496      -93.738       -4.797       46.192       27.358       24.789     2133.671      748.463      614.478        1.793        0.175      179.855       21.951        0.015      336.004        7.016      866.078
05/12/2014  01:12:00     -114.160      -90.388       -1.157       59.849       37.947       29.077     3581.886     1439.968      845.474        1.353        0.293      145.611       26.935        0.034      335.952        6.928      866.082
05/12/2014  01:13:00     -124.952      -90.845        0.312       58.282       33.596       28.423     3396.806     1128.687      807.864        1.460        0.267      154.485       27.635        0.032      335.901        6.843      866.075
05/12/2014  01:14:00     -115.942      -89.468        0.777       55.943       41.432       27.887     3129.644     1716.571      777.700        1.353        0.281      146.448       30.536        0.043      335.954        6.929      866.083
05/12/2014  01:15:00      -99.490      -60.943       -0.811       56.248       38.530       30.833     3163.885     1484.551      950.703        0.960        0.280      116.672       29.393        0.063      335.948        6.920      866.084
05/12/2014  01:16:00      -61.293      -42.725        7.025       51.920       37.923       24.780     2695.732     1438.157      614.066        0.519        0.237       74.714       25.671        0.118      335.914        6.865      866.076
05/12/2014  01:17:00      -53.851      -53.472        7.649       49.911       34.376       21.505     2491.060     1181.691      462.463        0.498        0.207       75.890       22.005        0.084      335.917        6.871      866.080
05/12/2014  01:18:00      -94.084      -66.665       -1.597       47.402       35.376       26.160     2246.959     1251.474      684.370        0.874        0.209      115.308       22.282        0.037      335.926        6.885      866.087
05/12/2014  01:19:00     -102.516      -79.610        1.403       44.672       31.980       22.146     1995.557     1022.722      490.431        1.018        0.175      129.797       15.908        0.015      335.942        6.911      866.078
05/12/2014  01:20:00      -98.881      -58.941        0.078       45.666       36.018       25.593     2085.346     1297.276      655.021        0.864        0.202      115.115       23.883        0.043      335.914        6.865      866.071
05/12/2014  01:21:00      -97.718      -70.420       -1.872       44.628       40.501       24.620     1991.696     1640.322      606.166        0.937        0.212      120.448       25.024        0.043      335.868        6.788      866.054
05/12/2014  01:22:00      -98.026      -73.380        4.958       52.549       36.742       26.335     2761.433     1349.959      693.551        0.991        0.240      122.449       27.974        0.052      335.853        6.763      866.043
05/12/2014  01:23:00      -68.294      -67.640        8.703       52.430       43.575       27.817     2748.930     1898.763      773.761        0.737        0.271       96.121       24.418        0.065      335.843        6.747      866.034
05/12/2014  01:24:00      -85.471      -90.429        9.009       44.160       37.769       25.411     1950.144     1426.489      645.733        0.979        0.201      124.429       19.564        0.025      335.898        6.839      866.024
05/12/2014  01:25:00     -115.986      -96.713        2.523       49.671       44.522       27.162     2467.184     1982.222      737.758        1.400        0.259      151.017       27.028        0.032      335.879        6.805      866.042
05/12/2014  01:26:00     -135.679     -125.338       -7.535       43.797       41.533       34.281     1918.145     1724.949     1175.158        1.950        0.241      184.712       26.116        0.020      335.807        6.685      866.039
05/12/2014  01:27:00     -120.249     -100.413       -5.415       51.870       40.336       30.920     2690.478     1627.006      956.069        1.492        0.264      156.660       32.951        0.044      335.765        6.617      866.039
05/12/2014  01:28:00     -147.139     -110.913       -3.336       48.771       41.762       28.201     2378.570     1744.095      795.309        1.944        0.246      184.260       26.515        0.021      335.774        6.629      866.035
05/12/2014  01:29:00     -160.578      -72.792       -0.171       46.640       30.735       26.272     2175.330      944.610      690.208        1.745        0.191      176.307       27.182        0.024      335.778        6.639      866.032
05/12/2014  01:30:00     -110.218      -75.011        0.011       58.808       44.554       26.576     3458.422     1985.097      706.306        1.196        0.307      133.321       30.248        0.051      335.758        6.606      866.029
05/12/2014  01:31:00      -84.747      -65.199        1.221       53.401       33.259       23.080     2851.633     1106.181      532.703        0.796        0.225      106.925       30.367        0.081      335.694        6.499      866.024
05/12/2014  01:32:00     -122.081      -72.216       -5.922       26.106       26.115       19.168      681.526      681.978      367.417        1.094        0.087      141.841       15.739        0.012      335.736        6.569      866.024
05/12/2014  01:33:00     -102.571      -63.021       -5.723       32.469       38.784       22.311     1054.224     1504.180      497.781        0.879        0.153      120.385       21.663        0.032      335.691        6.494      866.024
05/12/2014  01:34:00     -110.158       -8.482       -2.469       34.238       22.936       25.177     1172.244      526.057      633.863        0.727        0.117      110.484       23.086        0.044      335.566        6.287      866.032
05/12/2014  01:35:00     -142.307      -43.010       -5.410       31.510       28.882       19.956      992.862      834.157      398.238        1.218        0.111      148.664       18.461        0.015      335.618        6.373      866.021
05/12/2014  01:36:00     -134.886      -39.501       -4.743       31.827       31.581       19.123     1012.975      997.367      365.700        1.108        0.119      140.551       15.166        0.012      335.569        6.291      866.025
05/12/2014  01:37:00     -110.875      -62.033       -0.754       58.501       41.851       19.570     3422.384     1751.547      382.969        1.085        0.278      127.049       24.214        0.036      335.604        6.348      866.031
05/12/2014  01:38:00      -99.083      -60.474       -3.973       24.903       28.987       17.188      620.177      840.249      295.414        0.762        0.088      116.080       11.548        0.010      335.604        6.350      866.034
05/12/2014  01:39:00      -47.658      -34.355        1.187       43.692       28.972       19.720     1909.024      839.355      388.867        0.329        0.157       58.750       21.713        0.137      335.628        6.390      866.042
05/12/2014  01:40:00      -38.530      -31.796        2.057       32.874       21.692       16.895     1080.675      470.529      285.452        0.217        0.092       49.956       17.100        0.117      335.685        6.485      866.040
05/12/2014  01:41:00      -58.169      -41.012        0.040       31.498       17.310       14.330      992.152      299.645      205.341        0.328        0.075       71.173       14.577        0.042      335.619        6.373      866.054
05/12/2014  01:42:00      -33.305      -61.454       -2.782       22.530       21.592       13.404      507.622      466.197      179.660        0.302        0.058       69.899       13.332        0.036      335.827        6.719      866.058
05/12/2014  01:43:00      -56.638      -63.386       -1.823       27.098       23.130       14.814      734.323      534.977      219.466        0.436        0.074       85.003       12.654        0.022      335.794        6.665      866.071
05/12/2014  01:44:00      -23.614      -29.939        7.399       30.457       22.662       15.675      927.617      513.561      245.714        0.160        0.084       38.131       12.232        0.103      335.839        6.740      866.072
05/12/2014  01:45:00      -55.993      -46.460        7.337       40.007       26.656       21.126     1600.567      710.546      446.329        0.405        0.138       72.758       19.485        0.072      335.764        6.615      866.069
05/12/2014  01:46:00      -89.276      -51.876       -0.121       48.236       27.451       21.930     2326.741      753.552      480.931        0.711        0.178      103.254       15.618        0.023      335.692        6.495      866.067
05/12/2014  01:47:00      -45.908      -39.815        9.328       42.410       29.352       22.098     1798.588      861.562      488.338        0.346        0.157       60.768       22.488        0.137      335.596        6.333      866.055
05/12/2014  01:48:00      -74.185      -42.512        6.527       45.909       25.055       19.958     2107.631      627.757      398.334        0.524        0.157       85.503       21.614        0.064      335.621        6.378      866.062
05/12/2014  01:49:00      -76.732      -52.964       -2.871       28.529       19.551       14.542      813.888      382.229      211.464        0.505        0.070       93.237       13.799        0.022      335.608        6.356      866.062
05/12/2014  01:50:00      -84.276      -43.101       -3.247       22.676       19.486       13.759      514.215      379.715      189.315        0.503        0.054       94.658       10.873        0.013      335.562        6.279      866.067
05/12/2014  01:51:00      -46.827      -24.934        2.383       42.460       21.731       20.243     1802.813      472.231      409.775        0.275        0.134       53.051       27.198        0.263      335.587        6.321      866.069
05/12/2014  01:52:00      -88.512      -32.482       -3.766       13.397       18.103       11.697      179.492      327.735      136.810        0.477        0.032       94.284        9.199        0.010      335.652        6.430      866.068
05/12/2014  01:53:00      -90.845      -45.552       -4.546       12.747       17.546        7.937      162.483      307.877       63.002        0.544        0.027      101.625        6.510        0.004      335.623        6.381      866.058
05/12/2014  01:54:00     -106.498      -30.502      -10.881       14.989       12.850        9.129      224.678      165.118       83.344        0.643        0.024      110.780        3.656        0.001      335.591        6.329      866.061
05/12/2014  01:55:00     -110.420      -42.336      -13.025       10.503       13.422        7.030      110.308      180.144       49.418        0.725        0.017      118.258        4.457        0.001      335.594        6.332      866.056
05/12/2014  01:56:00      -99.591      -43.948       -3.022       17.493       17.992       11.563      306.016      323.722      133.698        0.631        0.038      108.856        7.410        0.005      335.628        6.389      866.045
05/12/2014  01:57:00      -95.901      -44.209      -11.325        9.489       14.084       10.592       90.046      198.370      112.189        0.584        0.020      105.600        4.007        0.001      335.593        6.330      866.031
05/12/2014  01:58:00     -115.764      -44.208      -15.863       14.323        8.022        7.335      205.140       64.356       53.808        0.797        0.016      123.918        6.406        0.003      335.603        6.348      866.017
05/12/2014  01:59:00     -120.576      -38.303      -18.827       13.036       15.088       11.270      169.948      227.634      127.011        0.844        0.026      126.514        6.203        0.002      335.584        6.315      866.015
05/12/2014  02:00:00     -104.589      -49.505      -12.489       14.154       13.816       10.278      200.343      190.882      105.635        0.702        0.025      115.713        7.652        0.004      335.444        6.082      866.026
05/12/2014  02:01:00     -108.275      -46.467      -11.907       18.862       15.430       10.195      355.779      238.098      103.947        0.736        0.035      117.825        9.760        0.007      335.520        6.209      866.047
05/12/2014  02:02:00     -102.960      -30.629       -6.301       13.388       20.940       11.327      179.227      438.500      128.299        0.616        0.037      107.419        6.270        0.003      335.388        5.987      866.052
05/12/2014  02:03:00      -70.918      -32.866       -0.021       31.163       19.468       13.501      971.144      379.020      182.279        0.382        0.077       78.163        8.311        0.011      335.428        6.054      866.053
05/12/2014  02:04:00      -64.860      -32.797        6.893       29.714       17.362       17.385      882.941      301.430      302.225        0.341        0.074       72.680       13.370        0.034      335.507        6.187      866.064
05/12/2014  02:05:00      -79.985      -35.298       -4.847       12.072       12.993       10.938      145.744      168.810      119.647        0.405        0.022       87.428        6.147        0.005      335.496        6.168      866.066
05/12/2014  02:06:00      -78.837      -26.730       -9.130       10.356       12.396        9.672      107.237      153.660       93.545        0.368        0.018       83.245        3.355        0.002      335.474        6.132      866.061
05/12/2014  02:07:00      -73.398      -35.790       -2.053       13.995       16.373       13.608      195.858      268.090      185.176        0.366        0.032       81.659        7.930        0.009      335.494        6.164      866.063
05/12/2014  02:08:00      -48.860      -30.357        0.186       24.580       14.809       11.712      604.174      219.306      137.173        0.213        0.048       57.522        9.726        0.029      335.410        6.025      866.074
05/12/2014  02:09:00      -45.069      -29.356        3.495       24.739       19.128       17.071      612.034      365.894      291.405        0.209        0.063       53.787       16.103        0.090      335.385        5.983      866.075
05/12/2014  02:10:00      -40.439      -29.264        0.667       25.882       12.614       14.066      669.863      159.124      197.862        0.176        0.051       49.917       13.801        0.076      335.433        6.062      866.073
05/12/2014  02:11:00      -49.386      -39.888       -2.300       24.128       16.203       13.276      582.145      262.549      176.260        0.253        0.051       63.483        9.557        0.023      335.411        6.025      866.089
05/12/2014  02:12:00      -56.384      -50.279        2.736       25.547       24.341       13.166      652.629      592.474      173.352        0.357        0.071       75.546       11.562        0.023      335.419        6.039      866.107
05/12/2014  02:13:00      -62.517      -45.276        0.984       35.835       19.160       15.781     1284.155      367.111      249.049        0.393        0.095       77.190       12.093        0.025      335.389        5.990      866.105
05/12/2014  02:14:00      -67.347      -56.629        7.804       33.953       27.020       19.537     1152.778      730.083      381.707        0.503        0.113       87.991       21.694        0.061      335.360        5.941      866.108
05/12/2014  02:15:00      -78.291      -81.444       -6.511       31.160       24.168       20.012      970.977      584.116      400.488        0.738        0.098      112.972       19.481        0.030      335.431        6.060      866.111
05/12/2014  02:16:00      -72.353      -66.377       -4.209       42.822       28.010       26.328     1833.759      784.558      693.170        0.648        0.166       98.188       14.899        0.023      335.437        6.069      866.118
05/12/2014  02:17:00      -68.223      -64.333      -14.535       33.875       24.511       26.352     1147.508      600.811      694.438        0.572        0.122       93.772       10.617        0.013      335.474        6.131      866.124
05/12/2014  02:18:00      -80.177      -59.314       -7.005       29.446       36.112       20.438      867.079     1304.066      417.714        0.629        0.129       99.732       15.797        0.025      335.439        6.071      866.129
05/12/2014  02:19:00     -111.866      -91.214       -6.443       29.758       35.047       21.234      885.557     1228.324      450.891        1.172        0.128      144.340       11.998        0.007      335.324        5.880      866.133
05/12/2014  02:20:00     -115.841      -74.952       -2.722       27.072       28.362       14.148      732.910      804.431      200.154        1.039        0.087      137.975       11.768        0.007      335.310        5.856      866.160
05/12/2014  02:21:00      -92.307      -62.591       -6.160       36.102       22.448       17.708     1303.328      503.917      313.559        0.730        0.106      111.527       10.103        0.008      335.293        5.829      866.169
05/12/2014  02:22:00      -57.562      -43.789        9.080       45.531       28.911       25.611     2073.062      835.859      655.928        0.444        0.178       72.324       22.773        0.099      335.204        5.683      866.172
05/12/2014  02:23:00      -76.615      -59.128        6.724       54.849       36.447       23.122     3008.380     1328.407      534.631        0.714        0.244       96.778       24.611        0.065      335.279        5.807      866.180
05/12/2014  02:24:00      -58.297      -52.977        8.470       46.038       36.497       23.053     2119.490     1332.058      531.446        0.513        0.199       78.773       24.937        0.100      335.280        5.807      866.186
05/12/2014  02:25:00      -68.819      -58.710        4.264       49.042       38.715       27.090     2405.101     1498.852      733.870        0.642        0.232       90.460       24.882        0.076      335.278        5.804      866.192
05/12/2014  02:26:00      -99.600      -66.003        2.528       48.465       29.798       24.725     2348.879      887.900      611.322        0.906        0.192      119.485       25.181        0.044      335.303        5.846      866.196
05/12/2014  02:27:00      -81.903      -64.826        6.636       57.333       43.802       23.342     3287.062     1918.623      544.836        0.835        0.288      104.453       22.365        0.046      335.219        5.708      866.189
05/12/2014  02:28:00     -109.679      -71.334       -1.598       56.995       41.866       26.801     3248.411     1752.729      718.296        1.142        0.286      130.835       25.809        0.039      335.206        5.685      866.183
05/12/2014  02:29:00     -119.535      -73.333        0.349       42.403       27.154       23.721     1798.019      737.346      562.682        1.138        0.155      140.236       22.481        0.026      335.116        5.537      866.191
05/12/2014  02:30:00     -105.873      -54.604        4.668       36.780       26.040       23.689     1352.791      678.089      561.145        0.840        0.130      119.125       21.037        0.031      335.092        5.496      866.191
05/12/2014  02:31:00     -110.384      -57.531       -2.800       27.076       24.724       16.575      733.098      611.283      274.730        0.856        0.081      124.477       13.809        0.012      335.101        5.511      866.194
05/12/2014  02:32:00     -105.237      -29.690       -3.749       21.197       24.904       16.862      449.312      620.212      284.341        0.666        0.068      109.345       11.302        0.011      335.057        5.439      866.209
05/12/2014  02:33:00      -91.958      -60.068       -2.666       24.520       22.662       15.396      601.244      513.585      237.038        0.671        0.068      109.838       12.432        0.013      335.106        5.519      866.235
05/12/2014  02:34:00      -66.795      -43.828       -5.027       30.763       22.272       11.951      946.388      496.051      142.829        0.400        0.079       79.890       12.390        0.024      335.141        5.578      866.259
05/12/2014  02:35:00      -28.566      -32.723        9.313       37.311       20.576       15.155     1392.140      423.358      229.673        0.201        0.102       43.437       15.380        0.125      335.205        5.683      866.274
05/12/2014  02:36:00      -55.261      -46.117       -4.223       28.396       21.327       14.868      806.347      454.854      221.062        0.334        0.074       71.976       10.746        0.022      335.262        5.777      866.279
05/12/2014  02:37:00      -87.739      -50.342       -1.987       32.473       20.995       14.495     1054.518      440.795      210.099        0.597        0.085      101.156        9.376        0.009      335.200        5.675      866.288
05/12/2014  02:38:00      -90.136      -60.081       -3.424       25.501       20.774       20.816      650.324      431.558      433.303        0.663        0.076      108.325       15.058        0.019      335.123        5.548      866.293
05/12/2014  02:39:00      -37.689      -37.812        2.478       35.277       22.651       20.206     1244.448      513.048      408.291        0.251        0.108       53.387       15.776        0.087      335.046        5.421      866.291
05/12/2014  02:40:00      -49.789      -37.644        8.264       32.481       30.822       16.892     1055.008      950.008      285.351        0.313        0.115       62.418       14.768        0.056      335.066        5.453      866.300
05/12/2014  02:41:00      -86.426      -51.402        3.634       43.558       34.315       18.559     1897.318     1177.517      344.432        0.677        0.171      100.556       19.526        0.038      335.168        5.623      866.314
05/12/2014  02:42:00      -57.771      -41.739        6.704       45.877       39.335       22.046     2104.719     1547.208      486.032        0.463        0.207       71.271       21.396        0.090      335.124        5.551      866.321
05/12/2014  02:43:00     -101.045      -64.835       -6.096       45.661       41.135       25.459     2084.922     1692.116      648.156        0.944        0.221      120.057       19.577        0.027      335.199        5.675      866.322
05/12/2014  02:44:00      -83.313      -59.968        3.337       54.334       34.254       24.465     2952.168     1173.316      598.558        0.764        0.236      102.651       28.536        0.077      335.237        5.736      866.327
05/12/2014  02:45:00      -85.153      -54.249        7.322       40.691       31.594       21.237     1655.741      998.200      451.028        0.668        0.155      100.965       15.805        0.025      335.286        5.819      866.350
05/12/2014  02:46:00      -91.360      -47.522        1.997       34.970       21.461       19.851     1222.921      460.562      394.063        0.634        0.104      102.980       19.717        0.037      335.200        5.676      866.355
05/12/2014  02:47:00      -37.572      -37.765        2.319       36.135       31.878       19.129     1305.708     1016.177      365.933        0.276        0.134       53.272       20.190        0.144      335.172        5.629      866.354
05/12/2014  02:48:00      -28.196      -26.731       15.983       33.811       23.948       18.705     1143.182      573.490      349.864        0.192        0.103       38.853       19.655        0.256      335.152        5.597      866.364
05/12/2014  02:49:00      -47.175      -32.669        1.155       29.024       18.336       12.728      842.364      336.197      162.000        0.232        0.067       57.382       11.203        0.038      335.153        5.598      866.382
05/12/2014  02:50:00      -56.122      -25.086       -0.358       14.589       12.018       10.237      212.846      144.433      104.801        0.212        0.023       61.473        3.817        0.004      335.212        5.693      866.402
05/12/2014  02:51:00      -58.630      -17.296      -14.941        9.748       10.448        6.415       95.028      109.159       41.155        0.210        0.012       61.128        4.792        0.006      335.152        5.597      866.415
05/12/2014  02:52:00      -42.640      -24.426        4.291       40.841       13.031       14.430     1667.963      169.804      208.238        0.224        0.102       49.141       17.673        0.129      335.149        5.592      866.426
05/12/2014  02:53:00     -111.339      -42.357      -11.806       19.250       13.988       11.479      370.552      195.666      131.756        0.751        0.035      119.124        5.007        0.002      335.050        5.426      866.432
05/12/2014  02:54:00      -94.405      -45.274        2.607       30.893       19.923       13.792      954.353      396.910      190.227        0.625        0.077      104.700       18.597        0.032      335.008        5.357      866.437
05/12/2014  02:55:00      -67.364      -37.647       -3.351       21.805       18.141        9.406      475.467      329.095       88.475        0.343        0.045       77.170        7.372        0.009      335.062        5.447      866.442
05/12/2014  02:56:00       -2.511      -19.835        3.974       12.396       12.313       12.122      153.652      151.607      146.932        0.043        0.023       19.993        7.180        0.129      335.169        5.625      866.444
05/12/2014  02:57:00       11.311      -16.021       12.050       10.389       11.175       12.387      107.923      124.870      153.443        0.046        0.019       19.611        5.156        0.069      335.359        5.939      866.458
05/12/2014  02:58:00        7.148       12.918       13.321       10.747        9.936       13.637      115.502       98.734      185.962        0.040        0.020       14.764        8.501        0.332      335.229        5.724      866.463
05/12/2014  02:59:00      -12.314        3.912        6.857       11.729        6.528        9.152      137.578       42.612       83.755        0.024        0.013       12.920        7.656        0.351      335.219        5.706      866.460
05/12/2014  03:00:00      -56.623       -6.895       -7.728       13.843        9.539        9.471      191.636       90.999       89.691        0.184        0.019       57.041        7.914        0.019      335.210        5.691      866.460
05/12/2014  03:01:00      -57.561      -33.570       -3.872       11.573       10.053        9.814      133.942      101.063       96.320        0.239        0.017       66.635        6.585        0.010      335.121        5.545      866.462
05/12/2014  03:02:00      -46.099      -28.777        5.882       27.378       13.098       14.984      749.570      171.564      224.517        0.207        0.057       54.344       16.643        0.094      335.082        5.480      866.471
05/12/2014  03:03:00      -86.686      -30.118       -7.466       16.150       14.429        8.442      260.826      208.208       71.274        0.451        0.027       91.770        3.812        0.002      335.101        5.512      866.462
05/12/2014  03:04:00      -78.734      -30.723       -6.327       11.469        9.932        9.521      131.540       98.645       90.649        0.375        0.016       84.516        5.278        0.004      335.043        5.416      866.461
05/12/2014  03:05:00      -46.838      -12.600       -8.838       10.629       12.654        7.554      112.984      160.130       57.060        0.138        0.017       48.503        5.222        0.012      335.110        5.527      866.463
05/12/2014  03:06:00      -12.910      -15.576       -3.609       10.994        5.226        4.815      120.873       27.316       23.182        0.030        0.009       20.231        2.461        0.015      335.242        5.744      866.475
05/12/2014  03:07:00      -11.157       -3.564        3.691        9.225        7.281        8.330       85.109       53.017       69.390        0.018        0.010       11.712        7.329        0.392      335.259        5.773      866.478
05/12/2014  03:08:00      -21.357        2.839        6.265       10.941        7.535       11.801      119.707       56.774      139.257        0.041        0.016       21.544        9.712        0.203      335.287        5.819      866.485
05/12/2014  03:09:00      -33.233        1.981       -4.722       17.963        9.884       12.038      322.671       97.699      144.923        0.085        0.028       33.292        1.046        0.001      335.378        5.974      866.484
05/12/2014  03:10:00       -3.104       29.811        6.790       20.779       15.513       12.193      431.748      240.646      148.679        0.088        0.041       29.972       13.075        0.190      335.503        6.182      866.493
05/12/2014  03:11:00      -24.818       -4.446       -7.454       19.963       16.747       11.604      398.527      280.455      134.650        0.075        0.041       25.213       12.661        0.252      335.310        5.857      866.502
05/12/2014  03:12:00      -78.533      -11.428      -10.915       31.613       14.343       10.232      999.375      205.716      104.693        0.386        0.065       79.361        8.335        0.011      335.138        5.574      866.497
05/12/2014  03:13:00      -81.376       -1.263       -8.818       16.866       14.512       12.979      284.457      210.584      168.460        0.368        0.033       81.386        8.059        0.010      335.055        5.434      866.506
05/12/2014  03:14:00      -81.860       -1.250      -10.554       14.085        9.628        8.417      198.373       92.706       70.839        0.359        0.018       81.869        6.732        0.007      335.030        5.394      866.519
05/12/2014  03:15:00      -22.916        7.985       -6.700       16.838       19.609       10.047      283.502      384.526      100.944        0.070        0.038       24.267        7.157        0.087      335.336        5.901      866.534
05/12/2014  03:16:00      -14.728       30.376       -3.372       18.611       18.460        8.015      346.357      340.789       64.238        0.095        0.038       33.758        8.053        0.057      335.584        6.315      866.530
05/12/2014  03:17:00        0.396        3.399        1.582       11.773        7.956        5.908      138.606       63.292       34.907        0.013        0.012        3.422        3.901        1.300      335.550        6.259      866.527
05/12/2014  03:18:00        7.336       -3.975        3.290        6.689        6.445        6.944       44.741       41.541       48.212        0.011        0.007        8.343        3.732        0.200      335.486        6.150      866.529
05/12/2014  03:19:00       13.364       10.462        4.766       16.948       11.977       16.457      287.240      143.439      270.822        0.051        0.035       16.972       15.404        0.824      335.214        5.699      866.538
05/12/2014  03:20:00        9.515        9.273        8.212       10.002        6.740       11.451      100.032       45.431      131.123        0.026        0.014       13.286        8.648        0.424      335.275        5.800      866.538
05/12/2014  03:21:00       19.219       11.753        0.415        7.867        6.302        6.598       61.891       39.721       43.529        0.033        0.007       22.528        5.471        0.059      335.518        6.205      866.538
05/12/2014  03:22:00       35.229       13.024        1.577        7.271        7.586        5.297       52.869       57.552       28.058        0.078        0.007       37.560        2.593        0.005      335.599        6.342      866.524
05/12/2014  03:23:00       42.570       14.250        4.255       11.683        6.705        5.523      136.499       44.954       30.508        0.112        0.011       44.892        4.601        0.011      335.539        6.241      866.523
05/12/2014  03:24:00        7.467        7.879        5.563       15.877        7.004        8.834      252.075       49.062       78.044        0.026        0.019       10.855        6.291        0.336      335.502        6.177      866.524
05/12/2014  03:25:00      -35.991       -1.769       -1.978       12.476        7.179        6.656      155.648       51.542       44.302        0.078        0.013       36.034        5.665        0.025      335.287        5.821      866.529
05/12/2014  03:26:00      -50.772       -9.603       -6.749        8.197        8.089        8.190       67.192       65.426       67.084        0.146        0.010       51.672        4.315        0.007      335.048        5.424      866.538
05/12/2014  03:27:00      -54.764      -10.419       -5.786        8.039        8.607        8.521       64.632       74.086       72.605        0.168        0.011       55.746        3.082        0.003      335.018        5.371      866.532
05/12/2014  03:28:00      -48.569      -15.007       -5.861       10.408       11.128        6.450      108.333      123.831       41.607        0.145        0.014       50.835        4.984        0.010      335.035        5.401      866.529
05/12/2014  03:29:00      -45.348      -17.439      -10.686        6.218        7.325        5.686       38.658       53.650       32.330        0.130        0.006       48.585        2.867        0.003      335.119        5.544      866.535
05/12/2014  03:30:00      -49.576      -17.059       -9.523        7.553        9.750        6.173       57.046       95.063       38.111        0.151        0.010       52.429        3.408        0.004      335.117        5.540      866.527
05/12/2014  03:31:00      -20.823       -8.378       -8.521       15.068       16.419        5.927      227.048      269.578       35.135        0.055        0.027       22.446        6.919        0.095      335.336        5.901      866.530
05/12/2014  03:32:00       22.594        7.579        4.978       15.751       10.587        6.512      248.108      112.087       42.402        0.050        0.020       23.831        5.545        0.054      335.432        6.061      866.536
05/12/2014  03:33:00       25.784       12.118       10.079       13.102       13.733       15.723      171.670      188.606      247.203        0.076        0.030       28.490       12.532        0.193      335.346        5.917      866.547
05/12/2014  03:34:00       50.919       26.055        4.072       11.691        9.307        7.906      136.676       86.612       62.511        0.179        0.014       57.199        4.343        0.006      335.291        5.826      866.566
05/12/2014  03:35:00       57.682       12.917        5.600       17.993       14.332       12.647      323.744      205.405      159.946        0.211        0.034       59.110       11.398        0.037      335.283        5.813      866.586
05/12/2014  03:36:00       45.537       24.644       15.058       24.021       13.935       13.748      577.024      194.193      189.011        0.193        0.048       51.778       11.625        0.050      335.288        5.822      866.610
05/12/2014  03:37:00       59.769       32.072        9.959       18.885       18.038       12.431      356.651      325.377      154.536        0.277        0.042       67.830        3.996        0.003      335.324        5.878      866.625
05/12/2014  03:38:00        7.227        1.483       18.437       18.108       25.303       14.214      327.894      640.255      202.035        0.078        0.059        7.378       14.771        4.008      335.238        5.737      866.639
05/12/2014  03:39:00        4.842      -36.169       -5.389       16.381       12.127       12.473      268.351      147.063      155.569        0.097        0.029       36.491        3.915        0.012      335.331        5.893      866.638
05/12/2014  03:40:00      -51.789      -38.879        2.975       27.472       17.136       17.334      754.694      293.639      300.481        0.278        0.067       64.759       13.154        0.041      335.084        5.483      866.621
05/12/2014  03:41:00      -38.155      -20.081        9.313       43.932       21.722       21.022     1930.024      471.866      441.935        0.239        0.142       43.117        7.944        0.034      335.032        5.397      866.618
05/12/2014  03:42:00      -92.606      -55.322       -2.960       63.447       35.661       22.086     4025.485     1271.679      487.779        0.871        0.289      107.872       15.768        0.021      334.840        5.078      866.604
05/12/2014  03:43:00      -74.262      -32.692        6.139       59.886       44.136       26.280     3586.343     1947.985      690.643        0.642        0.311       81.139       18.693        0.053      334.762        4.948      866.583
05/12/2014  03:44:00      -52.864      -44.007        3.589       61.710       44.021       29.544     3808.165     1937.807      872.829        0.568        0.331       68.784       26.427        0.148      334.785        4.987      866.566
05/12/2014  03:45:00     -112.757      -94.367        0.228       50.158       42.591       27.890     2515.845     1814.000      777.866        1.336        0.255      147.035       23.542        0.026      334.755        4.936      866.556
05/12/2014  03:46:00      -94.326      -78.858        3.635       38.250       38.765       24.322     1463.045     1502.755      591.571        0.934        0.178      122.947       17.713        0.021      334.788        4.991      866.554
05/12/2014  03:47:00     -106.465      -80.741        1.284       52.876       36.984       22.487     2795.865     1367.819      505.646        1.126        0.233      133.618       20.913        0.024      334.723        4.884      866.553
05/12/2014  03:48:00      -77.923      -55.233        1.071       51.024       34.750       22.301     2603.468     1207.592      497.330        0.672        0.215       95.513       20.151        0.045      334.744        4.918      866.560
05/12/2014  03:49:00     -118.698      -65.294       -2.375       37.126       49.749       20.584     1378.337     2474.933      423.689        1.132        0.214      135.471       14.484        0.011      334.691        4.830      866.571
05/12/2014  03:50:00      -94.318      -47.644        5.523       53.084       60.779       28.114     2817.918     3694.094      790.385        0.925        0.365      105.669       24.507        0.054      334.550        4.597      866.581
05/12/2014  03:51:00     -123.285      -25.307       -2.221       34.237       41.781       32.604     1172.164     1745.678     1063.001        0.991        0.199      125.855       18.123        0.021      334.470        4.463      866.596
05/12/2014  03:52:00      -77.772      -56.546       -1.902       56.471       47.204       25.134     3188.962     2228.259      631.714        0.765        0.302       96.156       28.822        0.090      334.431        4.401      866.604
05/12/2014  03:53:00      -91.359      -99.473       -0.142       60.296       47.855       31.152     3635.604     2290.091      970.416        1.257        0.345      135.061       29.801        0.049      334.469        4.461      866.613
05/12/2014  03:54:00     -131.221      -89.532        0.914       53.328       43.863       26.398     2843.873     1923.987      696.843        1.535        0.273      158.855       24.550        0.024      334.569        4.627      866.626
05/12/2014  03:55:00     -131.155      -90.343       -5.116       34.908       33.720       23.587     1218.603     1137.061      556.339        1.415        0.146      159.259       20.537        0.017      334.562        4.616      866.631
05/12/2014  03:56:00     -107.422      -62.570        6.498       50.152       28.993       24.085     2515.236      840.609      580.082        0.972        0.197      124.316       26.441        0.045      334.556        4.608      866.630
05/12/2014  03:57:00     -112.644      -67.557       -8.889       46.856       28.203       20.205     2195.529      795.404      408.224        1.036        0.170      131.349       14.108        0.012      334.506        4.523      866.623
05/12/2014  03:58:00     -131.450      -96.784       -1.193       49.580       35.489       25.356     2458.143     1259.457      642.933        1.550        0.218      163.237       25.494        0.024      334.476        4.472      866.615
05/12/2014  03:59:00     -118.172      -76.170       -8.109       28.655       33.951       15.064      821.086     1152.666      226.923        1.102        0.110      140.593       15.150        0.012      334.463        4.452      866.619
05/12/2014  04:00:00      -55.136      -37.635       -0.536       45.363       29.852       19.136     2057.778      891.122      366.188        0.389        0.166       66.756       20.192        0.091      334.499        4.512      866.621
05/12/2014  04:01:00      -88.044      -22.642       -5.808       32.541       32.408       21.767     1058.903     1050.297      473.819        0.544        0.129       90.909       18.298        0.041      334.286        4.159      866.628
05/12/2014  04:02:00     -124.230      -29.628       -1.674       25.773       21.861       19.298      664.230      477.921      372.431        0.891        0.076      127.715       12.598        0.010      334.282        4.152      866.634
05/12/2014  04:03:00     -109.479      -19.044       -8.206       35.746       23.014       17.634     1277.768      529.646      310.950        0.727        0.106      111.123       18.369        0.027      334.254        4.105      866.652
05/12/2014  04:04:00     -143.931      -28.403      -14.455       19.843       22.650       16.174      393.754      513.045      261.589        1.145        0.058      146.707        9.005        0.004      334.277        4.144      866.666
05/12/2014  04:05:00     -130.604      -62.655      -11.117       46.081       23.931       17.872     2123.442      572.691      319.399        1.206        0.151      144.855       22.321        0.024      334.217        4.043      866.665
05/12/2014  04:06:00     -145.840      -56.677      -18.370       15.565       18.188       11.476      242.262      330.805      131.709        1.276        0.035      156.466       10.382        0.004      334.148        3.928      866.679
05/12/2014  04:07:00     -137.425      -43.225       -8.388       25.654       27.594       19.528      658.140      761.427      381.358        1.131        0.090      144.063       14.643        0.010      334.183        3.987      866.681
05/12/2014  04:08:00     -129.492      -49.212       -0.429       37.095       26.251       19.351     1376.070      689.141      374.457        1.081        0.122      138.528       21.685        0.025      334.239        4.080      866.665
05/12/2014  04:09:00     -132.956      -39.587      -23.219       18.404       16.494       14.382      338.695      272.051      206.844        1.030        0.041      138.724       10.683        0.006      334.327        4.228      866.652
05/12/2014  04:10:00      -75.432      -25.526        0.622       46.480       28.363       18.181     2160.425      804.443      330.562        0.482        0.165       79.634       22.326        0.079      334.267        4.127      866.640
05/12/2014  04:11:00     -111.084      -11.771       -8.032       28.721       15.976       19.444      824.893      255.238      378.052        0.700        0.073      111.706       17.176        0.024      334.351        4.266      866.617
05/12/2014  04:12:00      -92.338      -29.709       -2.795       29.267       18.170       15.947      856.538      330.161      254.309        0.543        0.072       96.999       14.929        0.024      334.393        4.336      866.601
05/12/2014  04:13:00      -91.709      -27.428       -9.617       20.054       24.165       12.328      402.177      583.932      151.973        0.520        0.057       95.723        8.902        0.009      334.463        4.453      866.600
05/12/2014  04:14:00      -77.974      -25.352        3.176       31.548       18.218       15.275      995.255      331.912      233.314        0.415        0.078       81.991       17.600        0.046      334.456        4.440      866.597
05/12/2014  04:15:00     -106.520      -45.616       -9.229       16.211       21.635       11.787      262.799      468.064      138.939        0.719        0.043      115.877        8.168        0.005      334.496        4.507      866.593
05/12/2014  04:16:00     -108.243      -21.916      -10.579       21.329       17.933       12.319      454.916      321.590      151.747        0.662        0.046      110.440        9.430        0.007      334.500        4.513      866.608
05/12/2014  04:17:00      -80.792      -18.613       -3.189       21.539       22.846       12.724      463.936      521.962      161.905        0.402        0.057       82.908       12.395        0.022      334.517        4.543      866.616
05/12/2014  04:18:00      -87.096      -16.602       -4.146       24.015       20.266       12.082      576.728      410.723      145.974        0.451        0.057       88.664        7.327        0.007      334.387        4.326      866.632
05/12/2014  04:19:00      -84.296        3.841       -7.123       36.703       24.224       21.184     1347.107      586.780      448.756        0.478        0.119       84.383       21.808        0.067      334.312        4.201      866.655
05/12/2014  04:20:00      -84.519       -5.995       -0.830       39.106       21.201       19.409     1529.310      449.470      376.717        0.477        0.118       84.731       23.748        0.079      334.319        4.213      866.686
05/12/2014  04:21:00      -84.844      -27.564       -7.366       17.083       21.634       11.362      291.823      468.012      129.087        0.445        0.044       89.209        8.532        0.009      334.401        4.352      866.698
05/12/2014  04:22:00      -86.509      -30.373       -2.420       20.750       21.743       13.800      430.574      472.743      190.453        0.475        0.055       91.686       11.226        0.015      334.437        4.410      866.706
05/12/2014  04:23:00      -82.577      -31.713       -4.864       30.000       28.121       16.214      899.977      790.815      262.903        0.490        0.098       88.457       11.123        0.016      334.369        4.298      866.708
05/12/2014  04:24:00     -105.534      -30.345       -9.658       25.178       30.056       16.947      633.923      903.378      287.195        0.699        0.091      109.810       12.017        0.012      334.291        4.167      866.714
05/12/2014  04:25:00     -106.679      -25.702       -4.585       29.654       30.339       15.775      879.373      920.446      248.836        0.705        0.102      109.731       15.671        0.020      334.240        4.082      866.726
05/12/2014  04:26:00     -126.974      -42.373       -6.559       26.212       29.087       17.638      687.093      846.071      311.082        0.990        0.092      133.858       12.325        0.008      334.206        4.025      866.726
05/12/2014  04:27:00      -74.589      -47.297       -9.188       26.727       16.086       16.811      714.324      258.775      282.596        0.457        0.063       88.320        5.480        0.004      334.239        4.080      866.717
05/12/2014  04:28:00      -66.255      -45.188       -4.166       41.453       25.740       17.615     1718.377      662.535      310.280        0.457        0.135       80.198       19.131        0.057      334.218        4.045      866.705
05/12/2014  04:29:00      -27.337      -27.669       11.823       33.856       23.372       20.935     1146.204      546.269      438.286        0.189        0.107       38.896       21.909        0.317      334.234        4.073      866.704
05/12/2014  04:30:00      -39.759      -40.547        3.436       37.083       30.239       22.469     1375.162      914.426      504.865        0.301        0.140       56.787       22.941        0.163      334.307        4.195      866.695
05/12/2014  04:31:00      -52.372      -42.125       -0.671       38.944       18.280       20.145     1516.640      334.167      405.804        0.339        0.113       67.211       19.081        0.081      334.357        4.276      866.697
05/12/2014  04:32:00      -66.628      -41.291        1.615       36.557       17.967       17.619     1336.430      322.804      310.446        0.406        0.098       78.385       19.452        0.062      334.392        4.335      866.695
05/12/2014  04:33:00      -53.398      -32.960        8.285       36.966       21.498       18.046     1366.498      462.171      325.665        0.308        0.108       62.751       18.933        0.091      334.388        4.329      866.703
05/12/2014  04:34:00      -77.932      -39.919       -0.577       21.896       17.453       14.917      479.447      304.612      222.529        0.434        0.050       87.561       13.067        0.022      334.440        4.414      866.716
05/12/2014  04:35:00     -122.240      -40.566      -10.876       12.990       13.626        9.694      168.751      185.666       93.982        0.858        0.022      128.795        6.443        0.003      334.430        4.398      866.729
05/12/2014  04:36:00     -142.711      -68.268       -4.904       26.153       18.258       15.928      683.987      333.362      253.687        1.316        0.064      158.199       12.824        0.007      334.382        4.319      866.743
05/12/2014  04:37:00     -142.149      -62.822       -2.513       27.481       23.526       17.430      755.200      553.479      303.804        1.289        0.081      155.412       15.809        0.010      334.317        4.210      866.754
05/12/2014  04:38:00     -145.080      -73.824       -2.248       29.301       34.156       21.270      858.529     1166.646      452.426        1.449        0.124      162.783       18.285        0.013      334.282        4.151      866.769
05/12/2014  04:39:00     -133.735      -53.784       -1.880       28.410       28.502       19.016      807.156      812.369      361.609        1.138        0.099      144.145       15.921        0.012      334.302        4.184      866.785
05/12/2014  04:40:00     -149.432      -54.748      -16.001       36.117       25.246       18.273     1304.432      637.352      333.920        1.393        0.114      159.146       12.068        0.006      334.428        4.395      866.802
05/12/2014  04:41:00     -110.941      -73.913       -3.772       56.514       26.479       22.920     3193.845      701.160      525.320        1.110        0.221      133.308       28.575        0.046      334.411        4.366      866.817
05/12/2014  04:42:00     -100.652      -65.509        0.239       39.189       32.797       24.360     1535.740     1075.672      593.400        0.881        0.160      120.093       19.778        0.027      334.458        4.443      866.817
05/12/2014  04:43:00      -83.739      -76.012        0.334       62.281       44.904       32.262     3878.892     2016.387     1040.809        0.986        0.347      113.093       20.628        0.033      334.404        4.356      866.797
05/12/2014  04:44:00     -101.793      -82.206        3.547       75.114       42.750       34.522     5642.156     1827.595     1191.776        1.290        0.433      130.842       38.930        0.089      334.445        4.422      866.769
05/12/2014  04:45:00     -125.023      -85.102      -12.252       52.638       31.191       27.742     2770.755      972.898      769.629        1.377        0.226      151.238       26.117        0.030      334.464        4.454      866.753
05/12/2014  04:46:00     -126.184      -63.229       -1.379       48.925       29.663       28.267     2393.653      879.887      799.049        1.200        0.204      141.140       23.324        0.027      334.424        4.386      866.757
05/12/2014  04:47:00      -65.289      -56.514        8.901       66.165       35.682       23.973     4377.837     1273.233      574.708        0.688        0.311       86.351       23.666        0.075      334.392        4.334      866.763
05/12/2014  04:48:00      -95.472      -55.558        4.778       55.626       29.888       22.268     3094.289      893.316      495.864        0.835        0.224      110.460       27.067        0.060      334.394        4.339      866.773
05/12/2014  04:49:00     -101.071      -65.577        1.435       28.736       28.008       21.321      825.734      784.433      454.582        0.829        0.103      120.481       16.193        0.018      334.383        4.321      866.773
05/12/2014  04:50:00     -133.113      -52.266       -4.074       26.705       19.923       17.300      713.134      396.928      299.274        1.094        0.070      143.006       15.264        0.011      334.253        4.104      866.778
05/12/2014  04:51:00     -101.518      -54.465        5.749       33.209       30.777       21.461     1102.822      947.217      460.573        0.791        0.126      115.206       14.391        0.016      334.250        4.098      866.774
05/12/2014  04:52:00      -99.527      -53.371       -2.215       42.408       28.126       19.213     1798.409      791.086      369.122        0.786        0.148      112.934       20.952        0.034      334.301        4.183      866.772
05/12/2014  04:53:00     -108.706      -56.069       -6.817       29.444       36.235       19.243      866.936     1312.947      370.275        0.878        0.128      122.314       16.826        0.019      334.318        4.213      866.753
05/12/2014  04:54:00      -87.696      -42.436        8.222       55.755       37.602       22.038     3108.576     1413.883      485.668        0.728        0.250       97.424       30.304        0.097      334.278        4.145      866.732
05/12/2014  04:55:00      -97.089      -63.342       -0.201       33.493       24.628       15.750     1121.766      606.561      248.061        0.771        0.099      115.925       15.183        0.017      334.396        4.343      866.728
05/12/2014  04:56:00      -66.668      -54.347        4.509       40.903       32.386       21.757     1673.015     1048.875      473.362        0.531        0.160       86.013       18.709        0.047      334.341        4.250      866.717
05/12/2014  04:57:00      -40.056      -43.297       11.587       37.244       27.835       21.833     1387.127      774.764      476.671        0.313        0.132       58.984       19.980        0.115      334.409        4.364      866.709
05/12/2014  04:58:00      -40.183      -72.756        6.551       32.043       26.997       20.914     1026.739      728.854      437.385        0.457        0.110       83.115       16.428        0.039      334.417        4.375      866.712
05/12/2014  04:59:00      -56.996      -84.707       -5.651       45.321       28.759       23.966     2053.955      827.092      574.390        0.695        0.173      102.098       16.467        0.026      334.426        4.390      866.732
05/12/2014  05:00:00      -27.513      -46.026       -1.117       47.280       34.973       24.796     2235.383     1223.085      614.837        0.347        0.204       53.623       15.563        0.084      334.386        4.326      866.742
05/12/2014  05:01:00     -123.165     -116.967       -9.749       49.557       51.721       33.262     2455.912     2675.083     1106.358        1.759        0.312      169.856       21.363        0.016      334.224        4.054      866.757
05/12/2014  05:02:00      -56.202      -54.555       11.804       76.551       45.412       36.111     5860.120     2062.204     1303.993        0.775        0.461       78.326       36.942        0.222      334.204        4.021      866.766
05/12/2014  05:03:00      -83.512      -66.094        5.830       72.600       48.297       33.112     5270.707     2332.645     1096.382        1.004        0.435      106.502       28.738        0.073      334.171        3.967      866.781
05/12/2014  05:04:00      -57.675      -54.209        6.110       65.719       43.100       30.550     4318.971     1857.628      933.332        0.670        0.355       79.152       24.162        0.093      334.167        3.962      866.790
05/12/2014  05:05:00      -99.876      -88.024       -3.436       63.011       41.545       34.266     3970.398     1725.960     1174.131        1.230        0.344      133.129       30.424        0.052      334.099        3.847      866.802
05/12/2014  05:06:00     -134.669      -92.292       -2.621       43.660       56.018       28.024     1906.207     3138.014      785.341        1.624        0.291      163.259       21.691        0.018      334.046        3.759      866.803
05/12/2014  05:07:00      -93.166      -86.408        1.100       73.514       46.799       29.057     5404.257     2190.182      844.282        1.229        0.422      127.068       25.267        0.040      334.095        3.840      866.818
05/12/2014  05:08:00      -61.468      -65.533       -5.429       52.735       27.208       24.381     2780.976      740.298      594.454        0.611        0.206       89.849       12.996        0.021      334.083        3.823      866.836
05/12/2014  05:09:00       -5.165      -23.601       12.814       42.149       30.802       23.952     1776.522      948.737      573.693        0.202        0.165       24.159       23.819        0.972      334.192        4.002      866.864
05/12/2014  05:10:00      -59.777      -74.939       -4.040       43.820       55.511       24.690     1920.181     3081.433      609.595        0.741        0.281       95.860       24.211        0.064      334.107        3.862      866.883
05/12/2014  05:11:00      -96.676      -87.337        0.633       52.496       47.812       30.534     2755.812     2285.963      932.340        1.147        0.299      130.284       29.239        0.050      334.084        3.823      866.891
05/12/2014  05:12:00      -50.434      -23.458        1.622       32.516       27.127       17.212     1057.317      735.885      296.238        0.259        0.104       55.623       15.795        0.081      334.075        3.809      866.911
05/12/2014  05:13:00      -56.160      -18.586        7.885       33.263       25.567       19.204     1106.454      653.684      368.777        0.284        0.106       59.156       16.451        0.077      334.103        3.855      866.926
05/12/2014  05:14:00      -18.773      -29.628       12.475       45.248       30.651       24.043     2047.340      939.455      578.077        0.247        0.178       35.075       22.942        0.428      334.159        3.949      866.938
05/12/2014  05:15:00      -59.023      -46.003       -5.897       31.636       26.398       14.913     1000.867      696.876      222.384        0.378        0.096       74.833        8.139        0.012      334.158        3.946      866.947
05/12/2014  05:16:00      -59.534      -48.411       -3.825       36.572       21.056       19.837     1337.505      443.343      393.491        0.404        0.109       76.733       19.667        0.066      334.141        3.917      866.953
05/12/2014  05:17:00      -69.518      -61.511       -0.528       31.885       28.024       16.265     1016.640      785.356      264.551        0.534        0.103       92.824        8.888        0.009      334.128        3.896      866.966
05/12/2014  05:18:00      -25.674      -33.071        0.984       48.857       19.753       16.952     2386.993      390.184      287.371        0.241        0.153       41.867       20.627        0.243      334.179        3.982      866.984
05/12/2014  05:19:00      -57.812      -38.416        3.310       28.192       26.295       18.834      794.795      691.403      354.711        0.333        0.092       69.412       21.083        0.092      334.134        3.905      867.002
05/12/2014  05:20:00      -53.899      -51.836        4.888       35.085       30.490       24.362     1230.938      929.632      593.492        0.418        0.138       74.780       22.605        0.091      334.153        3.938      867.010
05/12/2014  05:21:00      -33.948      -37.796        8.694       43.323       29.649       18.614     1876.918      879.050      346.465        0.288        0.155       50.803       22.323        0.193      334.134        3.907      867.014
05/12/2014  05:22:00      -41.057      -57.834        7.860       44.861       32.430       22.778     2012.545     1051.713      518.840        0.434        0.179       70.926       22.811        0.103      334.238        4.079      867.024
05/12/2014  05:23:00      -40.415      -67.396        8.520       42.141       29.639       18.784     1775.852      878.480      352.830        0.463        0.150       78.585       16.696        0.045      334.192        4.002      867.039
05/12/2014  05:24:00      -30.137      -23.900        4.879       33.356       21.484       16.660     1112.604      461.560      277.570        0.168        0.093       38.464       12.415        0.104      334.179        3.979      867.048
05/12/2014  05:25:00      -68.248      -30.017        5.967       48.643       33.670       26.948     2366.100     1133.639      726.219        0.491        0.211       74.558       23.847        0.102      334.088        3.830      867.038
05/12/2014  05:26:00      -80.596      -83.079        2.756       45.855       28.788       21.536     2102.677      828.760      463.811        0.840        0.170      115.749       21.890        0.036      334.142        3.919      867.018
05/12/2014  05:27:00      -81.970      -67.313        2.363       47.093       41.050       26.266     2217.752     1685.086      689.928        0.792        0.230      106.067       20.873        0.039      334.024        3.724      866.999
05/12/2014  05:28:00      -91.806      -61.736        4.942       42.796       45.494       24.190     1831.503     2069.686      585.162        0.837        0.224      110.633       23.890        0.047      334.067        3.795      866.978
05/12/2014  05:29:00      -60.509      -64.451        6.295       28.609       25.489       17.086      818.489      649.701      291.926        0.481        0.088       88.404        9.233        0.011      334.123        3.889      866.967
05/12/2014  05:30:00      -61.705      -73.776       -7.247       45.785       29.200       19.161     2096.256      852.654      367.131        0.631        0.166       96.179       18.500        0.037      334.073        3.806      866.984
05/12/2014  05:31:00     -132.125      -82.143       -4.759       35.179       27.640       20.724     1237.589      763.962      429.484        1.333        0.122      155.578       15.986        0.011      333.994        3.674      866.989
05/12/2014  05:32:00      -91.111      -62.376       -8.837       42.489       35.862       18.662     1805.321     1286.097      348.255        0.785        0.172      110.417       15.316        0.019      334.045        3.759      866.985
05/12/2014  05:33:00      -66.468      -10.275       -3.564       35.158       32.177       18.831     1236.065     1035.336      354.598        0.358        0.131       67.258       15.869        0.056      333.908        3.533      866.995
05/12/2014  05:34:00     -118.038       -1.572       -3.479       43.467       35.045       20.851     1889.338     1228.147      434.777        0.875        0.178      118.048       20.372        0.030      333.713        3.208      867.000
05/12/2014  05:35:00     -153.788      -34.784       -6.043       40.804       35.646       25.469     1664.928     1270.662      648.645        1.424        0.179      157.673       23.087        0.021      333.717        3.215      866.989
05/12/2014  05:36:00     -140.733      -52.637       -5.122       44.037       43.497       21.374     1939.275     1891.992      456.848        1.344        0.214      150.254       18.240        0.015      333.743        3.258      866.982
05/12/2014  05:37:00     -116.725      -15.796       -4.651       49.192       37.225       20.797     2419.887     1385.725      432.522        0.907        0.212      117.789       25.590        0.047      333.634        3.076      866.980
05/12/2014  05:38:00     -122.106      -10.894       -4.512       64.187       29.215       27.458     4119.930      853.524      753.946        1.039        0.286      122.591       34.534        0.079      333.532        2.908      866.981
05/12/2014  05:39:00     -141.225      -15.646      -10.204       54.634       26.340       26.981     2984.896      693.820      727.950        1.235        0.220      142.089       30.725        0.047      333.518        2.885      866.987
05/12/2014  05:40:00     -143.920      -24.919       -7.115       37.374       40.303       25.828     1396.848     1624.348      667.095        1.254        0.184      146.062       20.353        0.019      333.600        3.020      866.974
05/12/2014  05:41:00     -113.155      -15.701       -6.801       46.482       30.516       21.931     2160.535      931.245      480.963        0.833        0.179      114.239       21.508        0.035      333.555        2.945      866.967
05/12/2014  05:42:00     -132.310      -12.113       -6.729       44.398       25.307       22.534     1971.217      640.425      507.779        1.041        0.156      132.863       21.012        0.025      333.470        2.806      866.970
05/12/2014  05:43:00      -74.679      -31.867       -5.739       38.457       30.551       17.179     1478.913      933.380      295.130        0.467        0.135       81.194       17.466        0.046      333.553        2.942      866.975
05/12/2014  05:44:00     -136.636       -3.409      -11.292       43.023       27.819       18.104     1850.990      773.872      327.762        1.088        0.148      136.679       17.482        0.016      333.465        2.796      866.980
05/12/2014  05:45:00     -124.594      -34.753       -2.605       39.207       40.154       26.160     1537.210     1612.383      684.356        1.029        0.192      129.350       22.266        0.030      333.438        2.753      866.990
05/12/2014  05:46:00      -91.706      -23.216       -6.336       53.225       33.871       23.923     2832.954     1147.226      572.291        0.677        0.228       94.599       28.094        0.088      333.525        2.896      866.999
05/12/2014  05:47:00      -58.769      -46.515      -10.337       53.980       24.093       21.526     2913.856      580.472      463.379        0.484        0.198       74.949       24.320        0.105      333.538        2.919      867.012
05/12/2014  05:48:00      -34.950        3.564       -2.927       25.155       11.801       13.595      632.774      139.273      184.834        0.110        0.048       35.131        7.129        0.041      333.554        2.946      867.027
05/12/2014  05:49:00      -72.602        6.670      -14.800       30.744       22.249       23.837      945.224      495.000      568.225        0.377        0.100       72.908       13.131        0.032      333.703        3.192      867.045
05/12/2014  05:50:00      -19.640      -35.672        3.538       41.732       28.219       24.521     1741.527      796.332      601.289        0.240        0.157       40.721       25.183        0.382      333.763        3.293      867.059
05/12/2014  05:51:00      -58.612      -45.953        0.344       20.904       24.961       16.911      436.970      623.075      285.979        0.345        0.067       74.478       13.654        0.034      333.689        3.169      867.082
05/12/2014  05:52:00     -109.761      -40.347       -7.773       21.748       15.081       10.918      472.970      227.441      119.203        0.728        0.041      116.942        6.560        0.003      333.570        2.971      867.104
05/12/2014  05:53:00      -89.774      -20.409       -1.075       28.967       33.206       18.939      839.092     1102.614      358.668        0.539        0.115       92.064       16.507        0.032      333.654        3.111      867.104
05/12/2014  05:54:00      -82.105      -37.405       -5.101       36.049       34.736       16.264     1299.560     1206.558      264.507        0.547        0.139       90.224       13.266        0.022      333.661        3.123      867.102
05/12/2014  05:55:00      -42.325      -39.923        5.756       43.703       38.342       25.239     1909.967     1470.126      637.009        0.372        0.201       58.183       26.262        0.204      333.749        3.268      867.106
05/12/2014  05:56:00      -64.281      -30.128       -1.351       41.527       21.842       16.258     1724.469      477.062      264.309        0.375        0.123       70.992       14.412        0.041      333.732        3.240      867.128
05/12/2014  05:57:00      -60.626      -57.177        0.172       25.521       26.906       17.164      651.302      723.948      294.603        0.431        0.083       83.335       15.015        0.032      333.756        3.280      867.151
05/12/2014  05:58:00      -89.615      -14.508       -6.028       26.900       22.700       13.785      723.598      515.305      190.013        0.485        0.071       90.782       12.370        0.019      333.735        3.244      867.173
05/12/2014  05:59:00      -57.257      -21.819       -4.345       26.751       14.658       13.117      715.632      214.860      172.055        0.244        0.055       61.273        9.281        0.023      333.709        3.201      867.193
05/12/2014  06:00:00      -28.551      -26.843       -7.763        9.551       10.198        5.455       91.216      104.003       29.753        0.091        0.011       39.188        3.776        0.009      333.866        3.463      867.213
05/12/2014  06:01:00      -17.218       -4.070       -2.331       14.311        9.485        6.425      204.794       89.957       41.279        0.033        0.017       17.693        4.530        0.066      333.894        3.508      867.221
05/12/2014  06:02:00      -33.287      -16.222       -2.925       16.696        9.323        9.780      278.771       86.925       95.641        0.092        0.023       37.030        6.290        0.029      333.925        3.562      867.229
05/12/2014  06:03:00      -27.906       -9.089        0.326        7.594       10.060        6.671       57.674      101.212       44.509        0.053        0.010       29.349        4.225        0.021      334.050        3.769      867.248
05/12/2014  06:04:00      -23.973        1.820       -7.211        9.242       11.250       10.452       85.410      126.569      109.234        0.048        0.016       24.042        7.229        0.090      334.100        3.850      867.263
05/12/2014  06:05:00      -27.438       17.736        1.146       10.755       10.233        7.554      115.668      104.719       57.057        0.067        0.014       32.671        4.649        0.020      334.021        3.719      867.274
05/12/2014  06:06:00      -45.986       -1.676       -2.980       17.207       13.093        9.824      296.066      171.425       96.518        0.135        0.028       46.017        7.205        0.025      334.042        3.753      867.272
05/12/2014  06:07:00      -52.607      -25.837        1.384       20.860       13.743       12.672      435.140      188.870      160.573        0.211        0.039       58.610        8.492        0.021      333.943        3.591      867.278
05/12/2014  06:08:00       -6.580      -16.883       16.381       24.239       15.946       13.548      587.511      254.277      183.547        0.081        0.051       18.120       14.529        0.643      333.914        3.542      867.295
05/12/2014  06:09:00      -12.681      -43.581       14.710       34.423       29.668       22.988     1184.962      880.213      528.451        0.243        0.130       45.388       21.016        0.214      333.937        3.581      867.330
05/12/2014  06:10:00      -67.278      -38.277       -5.615       25.750       25.424       19.133      663.054      646.367      366.076        0.385        0.084       77.405       13.067        0.028      333.911        3.537      867.376
05/12/2014  06:11:00      -74.220      -58.328        6.756       41.231       36.788       23.038     1700.013     1353.343      530.765        0.627        0.179       94.397       18.841        0.040      333.903        3.523      867.412
05/12/2014  06:12:00     -106.471      -57.224        3.725       48.139       36.853       24.940     2317.380     1358.176      621.995        0.946        0.215      120.874       27.809        0.053      333.910        3.534      867.430
05/12/2014  06:13:00      -56.600      -34.807       11.750       45.174       36.006       24.499     2040.660     1296.420      600.208        0.424        0.197       66.447       26.277        0.156      333.920        3.553      867.443
05/12/2014  06:14:00      -51.505      -37.046        3.489       31.568       25.704       18.282      996.528      660.709      334.215        0.301        0.100       63.444       18.131        0.082      333.960        3.619      867.454
05/12/2014  06:15:00      -48.748      -28.456        5.116       43.894       27.660       16.721     1926.654      765.048      279.588        0.309        0.149       56.446       18.321        0.105      334.012        3.704      867.460
05/12/2014  06:16:00      -28.902      -44.060        6.984       40.851       31.037       13.433     1668.768      963.268      180.438        0.282        0.141       52.693       16.971        0.104      334.042        3.753      867.466
05/12/2014  06:17:00      -58.988      -63.611       -5.106       32.447       29.753       20.503     1052.839      885.223      420.353        0.495        0.118       86.753       25.761        0.088      334.024        3.724      867.467
05/12/2014  06:18:00      -87.739      -61.711       -5.315       15.433       28.475       12.284      238.163      810.830      150.904        0.637        0.060      107.268       10.905        0.010      334.023        3.723      867.472
05/12/2014  06:19:00      -57.775      -40.470        5.985       28.523       19.755       15.246      813.586      390.273      232.448        0.322        0.072       70.539        8.869        0.016      334.143        3.923      867.474
05/12/2014  06:20:00      -26.656      -22.887        6.136       32.299       14.077       15.090     1043.206      198.173      227.712        0.137        0.073       35.134       15.674        0.199      334.199        4.013      867.477
05/12/2014  06:21:00      -26.889      -18.361        3.108       21.557       11.491       12.741      464.707      132.032      162.323        0.091        0.038       32.559       11.281        0.120      334.150        3.933      867.477
05/12/2014  06:22:00      -18.851      -14.623       13.371       22.596       16.495       13.235      510.567      272.087      175.161        0.085        0.048       23.858        9.961        0.174      334.176        3.978      867.481
05/12/2014  06:23:00      -28.598      -58.164       -1.150       21.967       23.176       11.614      482.547      537.131      134.887        0.268        0.058       64.815        6.991        0.012      334.169        3.964      867.496
05/12/2014  06:24:00      -48.684      -93.617        4.509       50.455       33.146       22.759     2545.731     1098.676      517.982        0.766        0.208      105.519       20.728        0.039      334.104        3.857      867.524
05/12/2014  06:25:00      -43.523      -44.592       -0.299       42.516       42.991       24.611     1807.577     1848.214      605.720        0.407        0.213       62.311       22.299        0.128      334.101        3.852      867.537
05/12/2014  06:26:00      -68.218      -75.601        6.142       53.989       47.533       26.421     2914.864     2259.366      698.093        0.814        0.294      101.829       31.089        0.093      334.044        3.756      867.547
05/12/2014  06:27:00     -101.074     -110.267       -2.842       57.558       38.461       29.544     3312.950     1479.220      872.852        1.402        0.283      149.582       32.061        0.046      333.982        3.655      867.558
05/12/2014  06:28:00      -97.771      -72.358        2.083       43.610       37.279       26.848     1901.863     1389.732      720.813        0.941        0.201      121.635       26.431        0.047      333.937        3.579      867.555
05/12/2014  06:29:00      -90.996      -65.878      -10.421       29.455       23.043       16.057      867.607      530.988      257.826        0.719        0.083      112.340        9.431        0.007      333.999        3.681      867.556
05/12/2014  06:30:00      -70.360      -54.856       -0.200       31.811       30.841       21.306     1011.910      951.187      453.954        0.519        0.121       89.218       18.218        0.042      334.030        3.733      867.559
05/12/2014  06:31:00      -53.430      -47.604        7.789       44.782       25.761       20.566     2005.420      663.626      422.972        0.414        0.155       71.561       22.622        0.100      334.108        3.861      867.538
05/12/2014  06:32:00      -21.776      -29.058        8.790       26.285       23.301       17.649      690.905      542.933      311.472        0.147        0.077       36.312       15.457        0.181      334.191        4.002      867.542
05/12/2014  06:33:00      -26.697      -79.811        0.621       18.716       25.769       14.129      350.280      664.051      199.615        0.415        0.061       84.158        8.709        0.011      334.111        3.870      867.566
05/12/2014  06:34:00      -21.545      -60.728       -5.416       22.098       21.581       15.599      488.312      465.725      243.322        0.269        0.060       64.437       13.776        0.046      334.208        4.030      867.583
05/12/2014  06:35:00      -69.579      -29.792       -0.627       37.282       23.110       18.710     1389.961      534.068      350.071        0.400        0.114       75.689       17.829        0.055      334.231        4.069      867.589
05/12/2014  06:36:00      -49.550      -41.194       -2.137       33.362       27.121       17.368     1113.042      735.553      301.661        0.315        0.108       64.437       17.770        0.076      334.301        4.183      867.600
05/12/2014  06:37:00      -35.416      -28.359        5.842       25.043       26.366       15.765      627.140      695.164      248.547        0.183        0.079       45.371       14.308        0.099      334.278        4.146      867.627
05/12/2014  06:38:00      -72.409      -71.517        1.026       44.266       32.736       23.758     1959.452     1071.640      564.451        0.698        0.180      101.773       26.394        0.067      334.198        4.013      867.653
05/12/2014  06:39:00     -102.914      -86.751        0.084       44.576       38.717       22.035     1987.009     1498.996      485.541        1.104        0.199      134.600       23.236        0.030      334.153        3.938      867.649
05/12/2014  06:40:00      -57.271      -46.182        7.336       30.973       36.916       21.146      959.313     1362.791      447.155        0.412        0.138       73.571       19.636        0.071      334.277        4.145      867.647
05/12/2014  06:41:00      -34.669      -44.288        1.621       27.744       18.847       14.072      769.755      355.194      198.030        0.224        0.066       56.244       10.080        0.032      334.278        4.144      867.660
05/12/2014  06:42:00      -64.855      -13.497       -9.095       15.586       17.063       14.027      242.929      291.140      196.758        0.260        0.037       66.244       10.536        0.025      334.285        4.157      867.653
05/12/2014  06:43:00      -72.108        8.763       -2.557       17.932       13.165        9.390      321.565      173.304       88.165        0.293        0.029       72.638        8.709        0.014      334.270        4.134      867.656
05/12/2014  06:44:00      -60.212        8.346       -3.474       25.777       21.287       13.366      664.447      453.149      178.658        0.250        0.065       60.788       12.990        0.046      334.279        4.148      867.652
05/12/2014  06:45:00      -77.055       -1.906      -11.080       21.753       13.022       14.664      473.205      169.581      215.025        0.346        0.043       77.078        6.385        0.007      334.268        4.129      867.656
05/12/2014  06:46:00      -77.083      -22.927       -6.531       22.211       14.455       10.712      493.348      208.936      114.750        0.366        0.041       80.420       12.035        0.022      334.319        4.214      867.666
05/12/2014  06:47:00      -26.087      -24.404        5.399       20.958       21.094       11.591      439.220      444.969      134.359        0.116        0.051       35.722       12.134        0.115      334.592        4.667      867.685
05/12/2014  06:48:00      -49.000        2.802       -0.899       18.038       13.161       14.185      325.361      173.202      201.212        0.155        0.035       49.080       13.131        0.072      334.474        4.471      867.692
05/12/2014  06:49:00      -85.173        9.296       -8.222       20.466       14.567        9.453      418.853      212.187       89.367        0.406        0.036       85.679        3.316        0.001      334.396        4.340      867.677
05/12/2014  06:50:00      -84.398        2.185       -9.100       20.500       14.256       10.113      420.233      203.246      102.273        0.397        0.036       84.427        8.579        0.010      334.401        4.349      867.683
05/12/2014  06:51:00      -51.499      -15.325        0.016       27.704       19.595       14.766      767.488      383.952      218.026        0.213        0.068       53.731       15.448        0.083      334.563        4.618      867.698
05/12/2014  06:52:00      -52.547      -30.081        2.978       32.493       26.154       14.386     1055.790      684.015      206.955        0.281        0.097       60.548       18.298        0.091      334.632        4.733      867.720
05/12/2014  06:53:00      -95.148      -31.141       -8.727       11.141       16.341       10.033      124.122      267.039      100.658        0.530        0.025      100.115        7.109        0.005      334.547        4.591      867.725
05/12/2014  06:54:00      -60.469        6.161        3.633       19.577       28.217       15.209      383.271      796.227      231.320        0.256        0.071       60.782       10.502        0.030      334.630        4.729      867.742
05/12/2014  06:55:00      -50.372        5.347       -2.012       15.788       19.052       10.858      249.248      362.972      117.896        0.165        0.037       50.655        4.887        0.009      334.592        4.666      867.759
05/12/2014  06:56:00      -75.833      -14.945       -7.435       15.109       15.084        8.000      228.280      227.535       63.997        0.327        0.026       77.292        4.449        0.003      334.641        4.748      867.773
05/12/2014  06:57:00      -42.631       -9.060       -0.231       13.708       13.369       10.101      187.909      178.725      102.030        0.118        0.023       43.583        4.582        0.011      334.698        4.843      867.783
05/12/2014  06:58:00      -65.643       14.084       -1.390       23.435       14.865       18.302      549.220      220.966      334.953        0.281        0.055       67.137       17.395        0.067      334.815        5.038      867.789
05/12/2014  06:59:00      -69.991       16.087       -5.105       12.811       15.164       11.327      164.130      229.935      128.311        0.285        0.026       71.816        2.877        0.002      334.791        4.997      867.800
05/12/2014  07:00:00      -68.285        1.143       -3.282       13.882       11.111       11.738      192.720      123.449      137.779        0.256        0.023       68.294        8.653        0.016      334.830        5.061      867.796
05/12/2014  07:01:00      -39.111      -26.148        2.809       20.097       17.094       14.479      403.879      292.211      209.639        0.156        0.045       47.046       13.124        0.078      334.907        5.190      867.788
05/12/2014  07:02:00      -19.523      -19.540       -1.455       21.189        8.639       11.084      448.980       74.628      122.847        0.071        0.032       27.622       11.971        0.188      335.020        5.376      867.786
05/12/2014  07:03:00      -32.875       -8.111        5.152       15.558       12.051       11.682      242.044      145.220      136.469        0.085        0.026       33.860       10.263        0.092      335.067        5.455      867.777
05/12/2014  07:04:00      -25.331      -10.782        0.416       17.481       10.170        6.399      305.573      103.436       40.949        0.060        0.022       27.530        3.283        0.014      335.123        5.549      867.778
05/12/2014  07:05:00      -32.530       -5.519        2.316        9.334        7.668        8.814       87.126       58.802       77.683        0.066        0.011       32.995        5.620        0.029      335.074        5.467      867.778
05/12/2014  07:06:00      -18.296        1.106       12.306       10.811       11.635       12.400      116.887      135.380      153.767        0.045        0.020       18.330        8.111        0.196      335.590        6.326      867.787
05/12/2014  07:07:00       -1.515       11.260       19.574       15.360       15.473       15.047      235.943      239.425      226.416        0.061        0.035       11.362        8.266        0.529      335.860        6.775      867.807
05/12/2014  07:08:00      -15.779       -1.231        3.222       11.753       10.812        9.103      138.132      116.906       82.866        0.030        0.017       15.827        7.236        0.209      335.445        6.081      867.824
05/12/2014  07:09:00      -33.383      -18.538       -4.138       20.980       13.365        9.525      440.168      178.614       90.732        0.109        0.035       38.184        7.068        0.034      335.239        5.740      867.849
05/12/2014  07:10:00      -32.401       24.345        2.460       13.103       15.780       15.638      171.696      248.995      244.549        0.116        0.033       40.528       10.617        0.069      335.431        6.060      867.855
05/12/2014  07:11:00      -32.902       24.736       -5.247       21.099       23.056       13.864      445.150      531.596      192.220        0.145        0.058       41.164       14.219        0.119      335.422        6.044      867.887
05/12/2014  07:12:00       -8.625        9.998        0.739       11.007       21.996       16.652      121.155      483.825      277.279        0.053        0.044       13.204       15.445        1.368      335.717        6.536      867.922
05/12/2014  07:13:00        5.494        9.035       24.664       16.810       20.557       12.756      282.589      422.587      162.712        0.079        0.043       10.574        8.593        0.660      336.083        7.147      867.937
05/12/2014  07:14:00        4.369       -4.111       25.934       20.285       28.971       18.054      411.491      839.305      325.940        0.114        0.079        5.999       12.701        4.482      336.077        7.137      867.928
05/12/2014  07:15:00      -18.317       10.055       11.168       15.620       12.452       14.102      243.982      155.043      198.854        0.058        0.030       20.895        2.251        0.012      336.044        7.082      867.913
05/12/2014  07:16:00      -14.002        3.824       15.812       14.861       11.038       19.024      220.845      121.829      361.898        0.058        0.035       14.515       12.150        0.701      336.233        7.399      867.913
05/12/2014  07:17:00      -27.998       14.063       11.479       13.931       11.111       15.524      194.071      123.444      241.000        0.084        0.028       31.331        9.873        0.099      336.007        7.021      867.908
05/12/2014  07:18:00      -34.729      -27.905       -5.674       19.900       25.476       11.787      396.014      649.022      138.924        0.160        0.059       44.552        8.975        0.041      335.560        6.275      867.890
05/12/2014  07:19:00      -18.509      -21.279        8.940       15.839       20.812       14.309      250.868      433.159      204.744        0.088        0.044       28.202       14.307        0.257      335.936        6.903      867.868
05/12/2014  07:20:00      -11.803       17.050       41.302       13.752       17.277       15.903      189.106      298.494      252.915        0.144        0.037       20.737       12.541        0.366      336.683        8.149      867.880
05/12/2014  07:21:00       10.029       30.614       39.209       16.334       17.701       11.448      266.812      313.311      131.053        0.164        0.036       32.215       10.211        0.100      335.991        6.992      867.895
05/12/2014  07:22:00       39.727       10.505        7.856       16.958       22.974       16.708      287.585      527.827      279.166        0.142        0.055       41.093       15.515        0.143      335.945        6.918      867.897
05/12/2014  07:23:00       32.014       19.153       19.656       27.756       17.418       15.684      770.376      303.372      245.990        0.155        0.066       37.306       13.465        0.130      336.269        7.456      867.893
05/12/2014  07:24:00       34.640       51.306       19.992       22.985       26.349       21.048      528.291      694.288      443.008        0.295        0.083       61.905       16.201        0.068      336.072        7.127      867.888
05/12/2014  07:25:00       51.262       56.500       29.705       36.250       25.952       30.445     1314.034      673.488      926.923        0.481        0.146       76.289       22.777        0.089      335.998        7.007      867.888
05/12/2014  07:26:00       63.750       54.663       31.778       48.438       30.025       33.044     2346.233      901.514     1091.895        0.620        0.217       83.977       29.314        0.122      335.979        6.974      867.870
05/12/2014  07:27:00       65.009       46.321        3.194       28.983       32.518       24.257      840.037     1057.453      588.384        0.443        0.124       79.824       22.143        0.077      336.030        7.058      867.846
05/12/2014  07:28:00       33.805       63.668        3.615       23.283       22.990       22.372      542.107      528.519      500.490        0.339        0.079       72.086       18.119        0.063      336.045        7.085      867.820
05/12/2014  07:29:00       15.530       32.859       -1.964       31.999       25.481       18.288     1023.910      649.307      334.437        0.167        0.100       36.344       12.750        0.123      336.059        7.106      867.809
05/12/2014  07:30:00       46.000       46.794       15.001       26.136       23.982       20.553      683.080      575.133      422.435        0.311        0.084       65.617       16.746        0.065      336.143        7.246      867.821
05/12/2014  07:31:00       40.640       18.155        2.699       23.132       20.056       18.206      535.081      402.226      331.455        0.163        0.063       44.511       11.959        0.072      336.079        7.139      867.849
05/12/2014  07:32:00       51.090       47.524       21.989       51.595       34.572       31.482     2662.056     1195.193      991.135        0.510        0.242       69.776       26.309        0.142      336.387        7.656      867.878
05/12/2014  07:33:00       44.775       44.582       28.825       28.462       22.992       29.529      810.061      528.635      871.986        0.352        0.111       63.185       20.198        0.102      336.242        7.413      867.901
05/12/2014  07:34:00       17.226       51.882       -0.918       30.090       23.581       18.771      905.412      556.079      352.363        0.240        0.091       54.667       14.066        0.066      336.198        7.338      867.899
05/12/2014  07:35:00       37.072       40.823       17.002       28.238       26.615       23.848      797.382      708.366      568.748        0.270        0.104       55.144       18.559        0.113      336.602        8.014      867.876
05/12/2014  07:36:00       15.807       11.457       19.576       19.023       24.315       17.631      361.885      591.212      310.860        0.101        0.063       19.522       14.623        0.561      336.575        7.969      867.850
05/12/2014  07:37:00       -0.833       24.341        9.070       14.600       16.524       20.338      213.174      273.055      413.646        0.079        0.045       24.355        4.795        0.039      336.610        8.028      867.853
05/12/2014  07:38:00       -8.670       65.301       -9.003       21.926       27.282       21.732      480.741      744.325      472.270        0.306        0.085       65.875       11.869        0.032      336.308        7.522      867.878
05/12/2014  07:39:00        5.594       72.841        5.330       28.126       17.560       24.459      791.044      308.365      598.263        0.353        0.085       73.056       15.990        0.048      336.801        8.346      867.904
05/12/2014  07:40:00       49.234       49.716        8.554       27.589       24.437       26.742      761.174      597.152      715.152        0.352        0.104       69.969       12.757        0.033      336.593        8.000      867.915
05/12/2014  07:41:00       38.143       32.831        7.657       24.055       19.551       31.537      578.638      382.232      994.557        0.227        0.098       50.327       16.798        0.111      336.507        7.855      867.906
05/12/2014  07:42:00       15.069       20.185       -1.932       12.585       21.381       19.858      158.386      457.163      394.353        0.082        0.050       25.190        9.653        0.147      336.573        7.966      867.888
05/12/2014  07:43:00       -6.217       28.519        6.802       21.403       29.079       19.474      458.093      845.604      379.240        0.129        0.084       29.189       19.007        0.424      336.802        8.348      867.872
05/12/2014  07:44:00      -27.049       51.595        9.607       24.467       30.226       28.833      598.617      913.610      831.369        0.291        0.117       58.255       20.355        0.122      337.018        8.711      867.863
05/12/2014  07:45:00      -21.660       25.939        4.243       15.337       24.993       17.057      235.227      624.674      290.953        0.116        0.058       33.793        6.868        0.041      336.682        8.148      867.858
05/12/2014  07:46:00       -4.131       68.697       -9.133       12.629       21.879       18.401      159.486      478.710      338.595        0.290        0.049       68.821        4.954        0.005      336.596        8.004      867.858
05/12/2014  07:47:00       -4.972       32.073       11.411       14.979       24.859       19.306      224.383      617.967      372.740        0.120        0.061       32.457       16.293        0.252      337.104        8.853      867.847
05/12/2014  07:48:00        7.689       37.047       12.515       19.384       30.659       27.607      375.736      939.995      762.134        0.183        0.104       37.836       22.512        0.354      336.952        8.599      867.836
05/12/2014  07:49:00      -13.627        8.903        0.829       15.721       21.397       16.615      247.141      457.842      276.050        0.062        0.049       16.277        9.523        0.342      336.950        8.597      867.833
05/12/2014  07:50:00        9.509        5.609       17.350       19.032       12.792       16.202      362.199      163.641      262.507        0.061        0.039       11.040       11.416        1.069      337.397        9.344      867.835
05/12/2014  07:51:00        1.610       30.964       28.985       18.342       32.722       16.215      336.441     1070.749      262.926        0.174        0.084       31.006        7.510        0.059      337.375        9.307      867.843
05/12/2014  07:52:00        0.906       26.763        5.996       31.540       22.982       19.823      994.745      528.169      392.953        0.133        0.096       26.778       17.611        0.433      337.090        8.830      867.855
05/12/2014  07:53:00       -4.191        4.597       35.642       13.583       20.316       14.890      184.486      412.733      221.723        0.106        0.041        6.221       12.190        3.839      337.700        9.852      867.873
05/12/2014  07:54:00       19.403        7.670       36.080       20.799       39.574       18.292      432.600     1566.117      334.588        0.203        0.117       20.864        9.862        0.223      337.418        9.379      867.889
05/12/2014  07:55:00        5.388       22.716       38.861       19.306       25.976       19.931      372.716      674.743      397.261        0.175        0.072       23.346       12.452        0.284      337.778        9.983      867.885
05/12/2014  07:56:00        3.719       41.267       56.880       18.404       25.493       14.765      338.699      649.888      218.005        0.308        0.060       41.434       10.702        0.067      337.562        9.621      867.872
05/12/2014  07:57:00       37.200       44.173       36.607       32.240       29.504       39.760     1039.392      870.474     1580.845        0.408        0.175       57.750       23.821        0.170      337.072        8.799      867.862
05/12/2014  07:58:00       10.948       15.342       40.902       22.110       20.376       17.540      488.867      415.197      307.646        0.162        0.061       18.848       14.729        0.611      337.956       10.282      867.869
05/12/2014  07:59:00       -0.960       23.562       20.415       14.367       20.441       20.941      206.418      417.837      438.505        0.102        0.053       23.582       12.226        0.269      337.688        9.831      867.875
05/12/2014  08:00:00        6.252       59.585        8.554       19.587       29.160       34.353      383.657      850.334     1180.130        0.304        0.121       59.912       18.356        0.094      337.295        9.173      867.881
05/12/2014  08:01:00      -10.594       21.238       19.993       12.750       20.679       21.245      162.566      427.634      451.345        0.100        0.052       23.734       11.876        0.250      337.937       10.249      867.896
05/12/2014  08:02:00        6.761       19.070       37.087       20.910       22.473       17.302      437.246      505.024      299.375        0.151        0.062       20.233       13.744        0.461      338.097       10.518      867.908
05/12/2014  08:03:00        0.173       24.261        9.455       26.842       23.458       19.954      720.501      550.276      398.153        0.117        0.083       24.261       14.354        0.350      337.641        9.753      867.919
05/12/2014  08:04:00        0.974       14.699       34.992       17.320       26.431       17.566      299.976      698.609      308.574        0.137        0.065       14.731        9.333        0.401      338.193       10.679      867.929
05/12/2014  08:05:00       22.088      -19.649       31.501       31.853       56.939       36.407     1014.584     3242.033     1325.438        0.372        0.279       29.562       41.112        1.934      337.838       10.084      867.937
05/12/2014  08:06:00       26.983       36.369       49.962       40.552       34.956       32.929     1644.439     1221.897     1084.324        0.425        0.198       45.285       26.343        0.338      337.635        9.743      867.937
05/12/2014  08:07:00       27.972       33.217       60.348       44.671       44.904       32.927     1995.480     2016.331     1084.201        0.531        0.255       43.426       29.782        0.470      337.570        9.633      867.937
05/12/2014  08:08:00       23.021      -26.307       13.910       41.506       55.073       39.075     1722.752     3033.060     1526.853        0.385        0.314       34.957       36.974        1.119      337.376        9.309      867.949
05/12/2014  08:09:00       13.985       43.003       60.180       37.026       33.691       19.468     1370.918     1135.099      378.997        0.428        0.144       45.220       16.301        0.130      337.795       10.012      867.969
05/12/2014  08:10:00       41.234       53.951       46.527       51.455       33.797       34.293     2647.566     1142.261     1176.044        0.587        0.248       67.904       31.763        0.219      337.746        9.928      867.992
05/12/2014  08:11:00       55.538       56.936       53.650       49.600       42.131       48.160     2460.128     1775.049     2319.407        0.788        0.328       79.537       29.437        0.137      337.917       10.216      868.014
05/12/2014  08:12:00       13.132       18.905       50.767       38.777       50.757       35.332     1503.625     2576.324     1248.340        0.422        0.266       23.018       28.080        1.488      338.127       10.570      868.021
05/12/2014  08:13:00       17.864       12.658       49.068       33.624       41.482       28.815     1130.543     1720.732      830.324        0.328        0.184       21.894       23.439        1.146      338.088       10.502      868.009
05/12/2014  08:14:00       35.081       -8.207       48.714       37.499       45.343       32.629     1406.198     2055.961     1064.627        0.410        0.226       36.028       27.850        0.598      337.783        9.991      868.011
05/12/2014  08:15:00       37.770       26.123       61.107       34.283       59.029       29.123     1175.344     3484.448      848.134        0.567        0.275       45.924       31.346        0.466      337.648        9.764      867.993
05/12/2014  08:16:00       92.909       53.603       43.063       52.283       52.040       47.103     2733.518     2708.172     2218.696        1.051        0.383      107.263       37.013        0.119      337.386        9.325      867.990
05/12/2014  08:17:00       48.196       40.839       51.124       46.511       45.221       41.504     2163.270     2044.944     1722.576        0.627        0.297       63.172       40.568        0.412      337.462        9.453      867.992
05/12/2014  08:18:00       17.467       11.610       29.859       28.835       41.653       36.160      831.483     1734.967     1307.518        0.260        0.194       20.973       28.067        1.791      337.957       10.283      868.000
05/12/2014  08:19:00       50.392       51.725        0.030       46.975       28.320       27.322     2206.606      802.044      746.474        0.448        0.188       72.214       19.749        0.075      337.658        9.780      868.008
05/12/2014  08:20:00       34.976       40.265       20.771       37.125       30.713       24.447     1378.278      943.290      597.663        0.310        0.146       53.335       18.819        0.124      338.102       10.526      868.016
05/12/2014  08:21:00       49.177       26.670       19.385       36.107       30.099       24.091     1303.694      905.949      580.367        0.315        0.140       55.944       20.243        0.131      338.132       10.577      868.021
05/12/2014  08:22:00       47.846       57.122       58.147       54.383       31.039       32.240     2957.461      963.442     1039.431        0.695        0.248       74.513       20.056        0.072      337.861       10.121      868.036
05/12/2014  08:23:00       50.672       33.292       10.343       42.012       26.279       29.148     1765.020      690.601      849.625        0.354        0.165       60.630        9.458        0.024      337.629        9.732      868.060
05/12/2014  08:24:00       66.448       76.319       -2.668       43.168       24.947       28.910     1863.457      622.362      835.770        0.678        0.166      101.192       18.905        0.035      337.512        9.536      868.073
05/12/2014  08:25:00       48.870       47.553        8.088       27.853       24.824       29.240      775.778      616.214      854.969        0.348        0.112       68.188       16.300        0.057      337.615        9.710      868.100
05/12/2014  08:26:00       35.615       77.813       -6.926       28.019       31.005       29.532      785.077      961.319      872.115        0.499        0.131       85.576       24.080        0.079      337.719        9.883      868.123
05/12/2014  08:27:00       44.594       58.778       26.688       28.744       35.219       33.092      826.225     1240.394     1095.070        0.466        0.158       73.780       12.667        0.029      338.067       10.468      868.142
05/12/2014  08:28:00       10.610       32.333       61.275       21.565       37.789       19.218      465.051     1428.029      369.335        0.359        0.113       34.030       22.703        0.445      338.328       10.906      868.150
05/12/2014  08:29:00        5.126        4.358       22.250       23.971       43.878       31.803      574.587     1925.277     1011.403        0.203        0.176        6.728       32.446       23.255      338.182       10.661      868.164
05/12/2014  08:30:00       15.975       50.878       28.997       26.107       23.097       24.000      681.563      533.448      576.017        0.274        0.090       53.327       13.600        0.065      338.136       10.583      868.179
05/12/2014  08:31:00       44.227       35.996       21.233       39.466       25.031       35.493     1557.565      626.549     1259.735        0.357        0.172       57.024       12.695        0.050      338.262       10.797      868.185
05/12/2014  08:32:00        3.787       30.767       26.979       24.454       29.088       24.549      597.985      846.091      602.652        0.187        0.102       30.999       22.693        0.536      338.748       11.612      868.192
05/12/2014  08:33:00       67.165       33.105        9.868       36.001       39.407       32.730     1296.068     1552.883     1071.270        0.481        0.196       74.880       11.421        0.023      338.104       10.529      868.185
05/12/2014  08:34:00       85.727       73.774        6.988       33.883       28.577       30.234     1148.051      816.642      914.086        0.786        0.144      113.100       16.611        0.022      337.758        9.948      868.176
05/12/2014  08:35:00       73.002       70.554       24.354       39.350       27.119       30.979     1548.390      735.424      959.677        0.707        0.162      101.524       19.089        0.035      337.933       10.243      868.197
05/12/2014  08:36:00       54.925       30.514       19.491       43.421       29.691       28.738     1885.352      881.561      825.887        0.396        0.180       62.832       21.880        0.121      338.254       10.781      868.205
05/12/2014  08:37:00       22.333      -21.418       24.492       31.439       46.181       25.641      988.393     2132.690      657.474        0.267        0.189       30.943       28.755        0.864      338.434       11.082      868.214
05/12/2014  08:38:00       22.011       22.135       20.158       25.002       38.014       24.980      625.077     1445.029      624.004        0.204        0.135       31.216        3.552        0.013      338.403       11.031      868.215
05/12/2014  08:39:00       49.839       40.829       52.258       58.897       48.582       49.554     3468.799     2360.253     2455.566        0.758        0.414       64.428       47.967        0.554      338.517       11.224      868.213
05/12/2014  08:40:00       54.300       58.720       74.980       34.813       36.659       28.313     1211.951     1343.910      801.654        0.769        0.168       79.978       19.153        0.057      337.976       10.314      868.208
05/12/2014  08:41:00       94.382       48.791       12.309       42.149       36.698       35.646     1776.514     1346.734     1270.641        0.792        0.220      106.247       21.757        0.042      337.895       10.179      868.196
05/12/2014  08:42:00       61.703       49.722       12.497       28.423       22.380       25.340      807.875      500.869      642.101        0.419        0.098       79.244       13.391        0.029      337.959       10.286      868.192
05/12/2014  08:43:00       50.095       42.910       -1.815       16.077       16.031       20.432      258.485      256.978      417.452        0.264        0.047       65.961        8.437        0.016      337.857       10.114      868.167
05/12/2014  08:44:00       19.203       37.682       66.181       30.131       27.696       16.802      907.898      767.085      282.313        0.406        0.098       42.293       10.842        0.066      338.614       11.386      868.155
05/12/2014  08:45:00       15.702       25.012       36.848       19.892       24.935       23.845      395.678      621.729      568.583        0.191        0.079       29.532       13.817        0.219      338.578       11.325      868.134
05/12/2014  08:46:00       13.043       29.773       31.296       23.263       30.437       27.463      541.182      926.441      754.216        0.213        0.111       32.505       15.570        0.229      338.709       11.546      868.115
05/12/2014  08:47:00       -2.916       24.692       49.699       13.912       22.873       17.301      193.531      523.182      299.322        0.205        0.051       24.864       14.707        0.350      339.182       12.340      868.103
05/12/2014  08:48:00       71.384       61.728       13.792       42.578       28.311       28.182     1812.928      801.508      794.200        0.625        0.170       94.372       20.862        0.049      338.268       10.806      868.095
05/12/2014  08:49:00       17.632       17.511       28.447       37.699       28.838       24.080     1421.229      831.620      579.856        0.213        0.142       24.850       14.945        0.362      339.093       12.192      868.082
05/12/2014  08:50:00      115.465       95.282       18.613       79.822       46.928       35.279     6371.485     2202.196     1244.589        1.629        0.491      149.702       25.536        0.029      338.534       11.249      868.078
05/12/2014  08:51:00      145.852       80.144       -0.459       39.426       38.871       32.889     1554.388     1510.977     1081.676        1.592        0.207      166.421       19.749        0.014      338.092       10.509      868.088
05/12/2014  08:52:00       83.004       52.994       20.608       45.220       29.946       36.392     2044.813      896.737     1324.366        0.719        0.213       98.479       31.603        0.103      338.375       10.983      868.099
05/12/2014  08:53:00       88.427       49.493       11.435       54.676       27.907       27.161     2989.494      778.808      737.706        0.745        0.225      101.335       13.609        0.018      338.671       11.480      868.101
05/12/2014  08:54:00       43.510       53.706       11.847       42.546       48.318       38.722     1810.185     2334.597     1499.371        0.528        0.282       69.119       28.406        0.169      338.696       11.524      868.101
05/12/2014  08:55:00       63.356       65.591       57.790       43.520       28.162       26.379     1894.004      793.075      695.847        0.752        0.169       91.193       19.597        0.046      338.410       11.043      868.092
05/12/2014  08:56:00       90.468       62.277       57.561       59.255       55.295       46.307     3511.125     3057.507     2144.333        1.204        0.436      109.831       41.297        0.141      338.403       11.032      868.076
05/12/2014  08:57:00       76.953       81.485       78.046       50.855       43.449       52.618     2586.227     1887.814     2768.685        1.295        0.362      112.079       40.093        0.128      338.372       10.979      868.067
05/12/2014  08:58:00      135.185       87.503       24.961       59.534       60.939       39.696     3544.245     3713.601     1575.740        1.769        0.442      161.033       32.752        0.041      338.287       10.833      868.052
05/12/2014  08:59:00      106.870       94.116       13.514       48.092       32.701       34.686     2312.831     1069.387     1203.141        1.252        0.229      142.404       16.847        0.014      338.559       11.291      868.031
05/12/2014  09:00:00       75.475       76.891       13.852       35.089       28.454       30.657     1231.252      809.621      939.853        0.739        0.149      107.743       14.248        0.017      338.617       11.390      868.020
05/12/2014  09:01:00       40.270       49.890       53.172       48.227       53.817       49.363     2325.843     2896.260     2436.711        0.730        0.383       64.115       36.193        0.319      339.225       12.412      868.000
05/12/2014  09:02:00      128.097       68.390       41.152       60.015       45.387       42.911     3601.853     2059.989     1841.367        1.514        0.375      145.210       31.247        0.046      338.512       11.215      867.997
05/12/2014  09:03:00       37.242       53.907       56.676       43.057       40.579       41.322     1853.938     1646.689     1707.481        0.636        0.260       65.520       31.684        0.234      339.090       12.184      867.986
05/12/2014  09:04:00       46.451       33.026       58.434       48.062       42.678       29.773     2309.977     1821.384      886.423        0.584        0.251       56.995       22.397        0.154      339.161       12.304      867.973
05/12/2014  09:05:00       45.082       23.458       52.856       48.183       44.939       38.390     2321.630     2019.553     1473.820        0.559        0.291       50.820       30.917        0.370      339.096       12.196      867.962
05/12/2014  09:06:00       55.724       63.915       94.738       64.502       62.941       49.001     4160.488     3961.548     2401.065        1.334        0.526       84.796       51.694        0.372      338.972       11.986      867.953
05/12/2014  09:07:00       37.207       46.943       78.331       49.515       59.656       38.863     2451.709     3558.836     1510.362        0.862        0.376       59.900       37.965        0.402      339.032       12.088      867.970
05/12/2014  09:08:00       30.872       34.585       44.179       38.877       38.774       37.372     1511.400     1503.453     1396.667        0.426        0.221       46.359       22.764        0.241      339.171       12.322      867.983
05/12/2014  09:09:00       36.801       51.892       63.430       46.628       39.439       31.883     2174.175     1555.421     1016.538        0.641        0.237       63.617       25.437        0.160      339.168       12.317      868.007
05/12/2014  09:10:00      136.225       90.105       33.081       42.129       33.728       37.965     1774.892     1137.577     1441.373        1.606        0.218      163.328       16.716        0.010      338.663       11.467      868.026
05/12/2014  09:11:00      152.782       68.840       13.497       50.067       34.602       45.352     2506.747     1197.279     2056.806        1.701        0.288      167.575       16.837        0.010      338.861       11.800      868.044
05/12/2014  09:12:00       58.893       49.837       46.723       65.246       41.677       37.502     4257.046     1736.983     1406.377        0.777        0.370       77.150       25.534        0.110      339.373       12.662      868.051
05/12/2014  09:13:00       22.680      -57.620       39.185       31.610       36.374       27.378      999.202     1323.077      749.559        0.422        0.154       61.923       16.782        0.073      339.337       12.602      868.057
05/12/2014  09:14:00        6.299        5.411       21.162       14.296       25.653       24.262      204.382      658.089      588.660        0.098        0.073        8.304       18.076        4.738      339.671       13.165      868.064
05/12/2014  09:15:00       -4.675       18.161       15.329       20.994       25.691       26.474      440.734      660.037      700.874        0.119        0.090       18.753       13.915        0.551      340.103       13.895      868.068
05/12/2014  09:16:00       -8.124      -33.243        2.667       18.507       39.179       26.303      342.500     1534.959      691.852        0.187        0.128       34.221       23.341        0.465      339.862       13.487      868.074
05/12/2014  09:17:00       15.369       36.926       73.957       35.129       69.086       40.092     1234.081     4772.875     1607.352        0.734        0.381       39.997       46.484        1.351      340.121       13.923      868.074
05/12/2014  09:18:00       92.121       48.376       15.546       62.523       52.762       32.439     3909.116     2783.826     1052.273        0.941        0.387      104.051       26.446        0.065      339.371       12.659      868.079
05/12/2014  09:19:00       95.904       64.538       55.248       65.135       42.666       41.432     4242.532     1820.352     1716.619        1.210        0.389      115.597       34.530        0.089      339.518       12.907      868.070
05/12/2014  09:20:00      126.750       95.257       16.102       52.501       37.140       40.352     2756.377     1379.414     1628.296        1.558        0.288      158.554       21.895        0.019      339.135       12.260      868.080
05/12/2014  09:21:00       84.198       67.192        4.416       33.870       23.429       22.986     1147.205      548.918      528.334        0.692        0.111      107.722       15.566        0.021      339.037       12.097      868.082
05/12/2014  09:22:00        7.318        8.373       22.181       18.313       12.275       17.750      335.368      150.674      315.077        0.071        0.040       11.121        9.954        0.801      339.910       13.566      868.071
05/12/2014  09:23:00       21.686       31.150       25.794       46.685       26.576       23.618     2179.473      706.310      557.787        0.277        0.172       37.955        6.407        0.028      340.248       14.140      868.060
05/12/2014  09:24:00       92.510       38.644       14.503       71.939       36.377       39.355     5175.245     1323.321     1548.811        0.915        0.402      100.257       21.070        0.044      339.734       13.270      868.056
05/12/2014  09:25:00       35.499       27.710       20.768       38.901       29.178       26.633     1513.249      851.360      709.304        0.277        0.154       45.034       17.567        0.152      339.933       13.607      868.062
05/12/2014  09:26:00       95.099      -67.046       16.762       75.786       80.425       44.601     5743.465     6468.238     1989.261        1.401        0.710      116.357       43.827        0.142      339.778       13.344      868.045
05/12/2014  09:27:00      128.336       92.582       55.997       68.595       38.430       41.157     4705.253     1476.832     1693.877        1.802        0.394      158.245       16.990        0.012      339.531       12.929      868.046
05/12/2014  09:28:00      134.419       53.088       32.235       59.836       50.309       46.045     3580.397     2531.004     2120.137        1.508        0.412      144.522       38.372        0.070      339.465       12.815      868.038
05/12/2014  09:29:00      141.952       68.931        3.653       62.190       61.870       40.794     3867.554     3827.843     1664.123        1.714        0.468      157.803       27.204        0.030      339.405       12.715      868.045
05/12/2014  09:30:00       47.286       92.709       10.366       69.056       50.199       40.243     4768.741     2519.966     1619.461        0.992        0.445      104.072       30.366        0.085      339.863       13.488      868.053
05/12/2014  09:31:00       54.566      112.836       -3.426       61.598       67.008       42.015     3794.298     4490.055     1765.248        1.288        0.502      125.337       33.052        0.070      339.897       13.543      868.061
05/12/2014  09:32:00       42.838      102.941        4.433       59.170       66.457       42.928     3501.138     4416.540     1842.829        1.110        0.488      111.499       41.070        0.136      339.744       13.287      868.054
05/12/2014  09:33:00       97.162       86.432      -12.290       54.306       38.602       28.258     2949.145     1490.141      798.541        1.115        0.262      130.042       19.133        0.022      339.481       12.844      868.061
05/12/2014  09:34:00       48.372       29.223       -6.456       29.057       36.526       23.917      844.300     1334.127      572.034        0.299        0.138       56.514       10.016        0.031      339.541       12.945      868.056
05/12/2014  09:35:00       -8.372       37.555        4.279       22.550       29.087       26.574      508.487      846.028      706.179        0.178        0.103       38.477       19.779        0.264      339.898       13.547      868.055
05/12/2014  09:36:00       34.276       36.734       25.135       44.993       38.153       19.346     2024.328     1455.673      374.258        0.350        0.193       50.241       14.387        0.082      339.949       13.632      868.049
05/12/2014  09:37:00        3.269        7.745       52.778       22.152       36.232       28.565      490.706     1312.780      815.946        0.274        0.131        8.407       18.359        4.769      340.759       15.002      868.032
05/12/2014  09:38:00       29.951       44.989       86.830       64.417       65.547       43.545     4149.612     4296.460     1896.209        1.040        0.517       54.047       43.437        0.646      340.346       14.305      868.027
05/12/2014  09:39:00       30.636       77.685       92.222       61.873       53.730       45.798     3828.311     2886.909     2097.448        1.214        0.441       83.508       43.655        0.273      340.245       14.134      868.028
05/12/2014  09:40:00       74.601       38.570        3.558       49.584       53.324       35.652     2458.619     2843.448     1271.054        0.682        0.329       83.982       16.290        0.038      339.724       13.255      868.026
05/12/2014  09:41:00      -21.713      -97.954       22.912       35.647       41.375       30.185     1270.698     1711.856      911.119        0.724        0.195      100.331       21.170        0.045      340.103       13.894      868.031
05/12/2014  09:42:00      -13.906       -9.336       39.408       32.849       51.378       44.471     1079.029     2639.680     1977.646        0.376        0.285       16.749       42.461        6.427      340.318       14.258      868.045
05/12/2014  09:43:00       32.570       79.608       82.185       49.856       33.123       32.543     2485.612     1097.133     1059.079        0.940        0.232       86.013       31.831        0.137      339.940       13.617      868.055
05/12/2014  09:44:00       62.813       15.263       28.409       39.256       63.858       32.986     1541.031     4077.878     1088.075        0.584        0.335       64.640       23.506        0.132      339.814       13.405      868.048
05/12/2014  09:45:00       67.374       50.319       66.246       46.532       40.110       32.345     2165.200     1608.787     1046.189        0.814        0.241       84.091       28.970        0.119      339.983       13.689      868.048
05/12/2014  09:46:00       49.472       -1.870       63.253       71.536       67.378       54.468     5117.373     4539.839     2966.760        0.954        0.631       49.507       51.757        1.093      340.532       14.619      868.039
05/12/2014  09:47:00       62.100       44.539      101.879       86.549      121.150       86.009     7490.729    14677.412     7397.545        2.289        1.478       76.421       97.897        1.641      340.146       13.963      868.038
05/12/2014  09:48:00       67.091       15.276       69.024       63.168       91.577       60.193     3990.138     8386.412     3623.222        1.275        0.800       68.808       65.035        0.893      340.395       14.386      868.049
05/12/2014  09:49:00       38.194       11.141       11.444       66.650       57.987       33.362     4442.242     3362.514     1113.040        0.531        0.446       39.786       28.607        0.517      340.113       13.909      868.045
05/12/2014  09:50:00       26.931      -21.465       31.042       39.519       69.488       64.766     1561.750     4828.576     4194.653        0.637        0.529       34.438       64.057        3.460      340.162       13.994      868.058
05/12/2014  09:51:00       69.928       30.399       69.462       67.311       61.106       54.112     4530.815     3733.936     2928.078        1.091        0.560       76.250       50.548        0.439      340.484       14.536      868.060
05/12/2014  09:52:00       97.886       93.820      121.412       74.735      104.072       55.274     5585.322    10831.058     3055.252        2.629        0.974      135.587       62.671        0.214      340.028       13.765      868.077
05/12/2014  09:53:00       86.757      -92.698        4.037       58.735      115.735       53.389     3449.847    13394.685     2850.373        1.791        0.985      126.963       68.106        0.288      339.998       13.715      868.104
05/12/2014  09:54:00       -4.547       19.423       47.030       54.610       34.104       32.623     2982.211     1163.077     1064.235        0.391        0.260       19.948       23.152        1.347      340.532       14.619      868.132
05/12/2014  09:55:00        3.756       39.686       39.848       21.578       21.651       29.765      465.604      468.754      885.928        0.250        0.091       39.863       22.573        0.321      340.445       14.471      868.147
05/12/2014  09:56:00        2.435       19.247       43.807       28.109       23.573       16.405      790.116      555.669      269.116        0.195        0.081       19.400       18.200        0.880      340.930       15.292      868.168
05/12/2014  09:57:00       68.858      -97.326       12.969       91.733      118.333       57.741     8414.901    14002.589     3334.062        2.006        1.288      119.221       76.031        0.407      340.762       15.008      868.181
05/12/2014  09:58:00       96.213     -147.749       -1.493       91.543       92.567       60.962     8380.210     8568.736     3716.313        2.587        1.033      176.314       62.380        0.125      340.250       14.139      868.177
05/12/2014  09:59:00       56.406      -37.800       27.902       63.267       65.144       47.723     4002.676     4243.789     2277.465        0.795        0.526       67.900       42.934        0.400      340.940       15.307      868.187
05/12/2014  10:00:00       77.550     -149.801       -2.547       67.215       97.588       43.157     4517.810     9523.458     1862.512        2.218        0.795      168.684       46.107        0.075      340.318       14.255      868.182
05/12/2014  10:01:00      131.509      -29.058       23.608       84.991      100.856       63.738     7223.508    10171.836     4062.485        2.007        1.073      134.681       31.881        0.056      340.414       14.415      868.197
05/12/2014  10:02:00       62.691      -14.107       24.186       65.956       64.773       52.254     4350.210     4195.533     2730.482        0.799        0.564       64.259       59.445        0.856      340.613       14.755      868.202
05/12/2014  10:03:00       30.342       34.285       51.984       30.176       33.749       32.785      910.618     1139.009     1074.830        0.396        0.156       45.783       21.566        0.222      340.701       14.906      868.205
05/12/2014  10:04:00      120.058       92.152       92.553      100.767       61.765       66.381    10154.071     3814.873     4406.375        2.492        0.919      151.347       50.832        0.113      340.223       14.095      868.196
05/12/2014  10:05:00      106.387       90.857       58.635       69.901       42.364       53.089     4886.082     1794.743     2818.447        1.625        0.475      139.905       48.907        0.122      340.129       13.936      868.196
05/12/2014  10:06:00       96.457       43.804       12.852       49.021       44.145       41.126     2403.010     1948.749     1691.355        0.871        0.302      105.937       14.885        0.020      340.196       14.050      868.184
05/12/2014  10:07:00       56.198       32.999       41.693       75.082       48.865       40.495     5637.294     2387.800     1639.822        0.782        0.483       65.170       16.425        0.064      340.817       15.099      868.179
05/12/2014  10:08:00      -36.658       -4.574        9.659       26.436       26.099       25.399      698.859      681.136      645.093        0.174        0.101       36.942       15.517        0.176      340.957       15.336      868.176
05/12/2014  10:09:00       37.500       45.853       35.481       59.506       51.572       42.462     3540.949     2659.692     1803.040        0.638        0.400       59.234       33.046        0.311      340.813       15.093      868.165
05/12/2014  10:10:00       41.474       43.429       79.884       72.923       88.143       74.097     5317.746     7769.237     5490.330        1.428        0.929       60.051       72.641        1.463      341.031       15.461      868.164
05/12/2014  10:11:00       57.017        4.233       63.893       61.696      122.182       78.083     3806.443    14928.338     6096.939        1.609        1.242       57.174       87.878        2.362      340.691       14.886      868.158
05/12/2014  10:12:00       42.669      -25.371       52.458       48.607       53.226       35.185     2362.639     2833.049     1237.966        0.582        0.322       49.642       30.424        0.376      340.952       15.328      868.174
05/12/2014  10:13:00       19.298      -22.332       12.268       29.971       48.832       31.075      898.240     2384.573      965.647        0.263        0.212       29.515       22.325        0.572      340.952       15.329      868.171
05/12/2014  10:14:00       62.394      -45.324       34.744       91.413      140.404       62.214     8356.362    19713.418     3870.537        1.954        1.597       77.119       81.748        1.124      340.826       15.114      868.169
05/12/2014  10:15:00      128.396     -223.345      -41.454       80.575       86.527       52.592     6492.305     7486.840     2765.926        4.241        0.837      257.621       30.493        0.014      340.305       14.231      868.163
05/12/2014  10:16:00       25.491      -40.035       40.381       58.837       75.655       45.421     3461.830     5723.690     2063.034        0.756        0.562       47.462       51.195        1.164      341.144       15.654      868.161
05/12/2014  10:17:00        2.349        5.606       25.756       58.502       53.763       48.988     3422.476     2890.512     2399.840        0.470        0.436        6.079       24.303       15.984      340.889       15.222      868.140
05/12/2014  10:18:00       11.990      -10.442       54.228       46.179      125.081       45.327     2132.528    15645.164     2054.575        1.151        0.992       15.899       58.709       13.635      341.133       15.634      868.121
05/12/2014  10:19:00       99.485      -81.799       34.820      129.911      159.953       85.075    16876.970    25584.974     7237.758        3.374        2.485      128.796      118.788        0.851      340.761       15.003      868.118
05/12/2014  10:20:00       49.635      -92.708       28.528       48.100       80.109       56.321     2313.653     6417.494     3172.079        1.189        0.595      105.159       53.896        0.263      340.923       15.280      868.111
05/12/2014  10:21:00      233.511     -264.714      -57.356      104.713      102.817       59.371    10964.771    10571.403     3524.958        7.647        1.253      352.988       57.635        0.027      340.514       14.583      868.084
05/12/2014  10:22:00      136.787     -154.650      -19.042       98.588      128.832       69.410     9719.670    16597.788     4817.755        3.706        1.557      206.464       83.201        0.162      340.587       14.709      868.078
05/12/2014  10:23:00       37.319       -6.015       38.558       47.390       57.682       52.095     2245.813     3327.249     2713.855        0.560        0.414       37.801       35.024        0.858      341.216       15.776      868.068
05/12/2014  10:24:00        8.106       29.155       37.296       26.607       30.473       27.262      707.945      928.629      743.240        0.234        0.119       30.261       13.465        0.198      341.608       16.440      868.044
05/12/2014  10:25:00       68.174      -34.811       34.737      102.661      120.072       68.022    10539.299    14417.403     4626.993        1.832        1.479       76.547       77.080        1.014      341.147       15.658      868.039
05/12/2014  10:26:00       40.127       23.559       39.695       52.961      108.996       55.884     2804.843    11880.041     3123.076        1.077        0.890       46.532       52.622        1.279      341.285       15.891      868.062
05/12/2014  10:27:00      138.773      110.809       26.137       86.438       57.331       67.876     7471.511     3286.796     4607.130        2.379        0.768      177.585       26.736        0.023      341.219       15.778      868.064
05/12/2014  10:28:00       89.681       70.562       21.383      103.328       59.418       45.373    10676.628     3530.500     2058.746        1.487        0.813      114.112       20.188        0.031      340.936       15.301      868.051
05/12/2014  10:29:00       68.908       90.950       72.865      120.991      108.354       83.753    14638.844    11740.495     7014.511        2.586        1.670      114.107       71.067        0.388      341.061       15.511      868.018
05/12/2014  10:30:00      208.024     -244.683      -55.420      106.289      110.677       73.419    11297.287    12249.331     5390.370        6.757        1.447      321.160       56.902        0.031      340.632       14.783      868.018
05/12/2014  10:31:00       92.674     -187.475       -8.171       63.885       49.214       38.181     4081.251     2421.977     1457.776        2.588        0.398      209.130       28.470        0.019      340.439       14.457      868.051
05/12/2014  10:32:00       61.874       49.385       86.458       82.110       99.858       69.189     6742.101     9971.693     4787.101        1.762        1.075       79.166       73.127        0.853      341.084       15.552      868.043
05/12/2014  10:33:00      274.632      211.744      140.880      146.738      136.807      101.285    21531.923    18716.113    10258.582        9.530        2.525      346.783       80.058        0.053      340.446       14.470      868.028
05/12/2014  10:34:00      125.670      104.999      117.202      111.126       78.820       63.375    12349.002     6212.648     4016.374        3.156        1.129      163.761       54.537        0.111      340.678       14.862      868.026
05/12/2014  10:35:00      176.698       81.093       80.766      125.367      125.394       89.512    15716.933    15723.619     8012.385        4.188        1.973      194.418       88.652        0.208      340.860       15.170      868.014
05/12/2014  10:36:00      214.828      147.433       83.336      129.013       87.880       72.702    16644.278     7722.843     5285.513        5.224        1.483      260.553       45.237        0.030      341.030       15.458      868.016
05/12/2014  10:37:00      264.518      158.981       88.514      133.506      109.686       98.894    17823.850    12031.110     9780.059        7.135        1.982      308.617       82.316        0.071      340.771       15.018      868.024
05/12/2014  10:38:00      146.746      117.594      113.135      141.811       86.138       77.583    20110.344     7419.739     6019.133        4.085        1.677      188.050       84.117        0.200      340.560       14.662      868.007
05/12/2014  10:39:00      179.071      121.438       35.266       91.687       64.514       69.346     8406.547     4162.014     4808.864        3.271        0.869      216.364       52.673        0.059      340.997       15.400      867.994
05/12/2014  10:40:00      233.847      101.107       30.009       77.047       67.840       61.362     5936.301     4602.248     3765.260        4.005        0.715      254.768       37.672        0.022      340.965       15.346      867.984
05/12/2014  10:41:00      160.175       79.158       16.446       70.241       68.065       53.263     4933.831     4632.907     2836.917        2.230        0.620      178.667       24.743        0.019      341.013       15.428      867.974
05/12/2014  10:42:00      216.731      122.114       24.194      157.420      105.991       63.141    24780.954    11234.111     3986.769        5.123        2.000      248.765       14.563        0.003      341.051       15.495      867.975
05/12/2014  10:43:00      250.217      166.232       36.187      108.528       87.355       80.901    11778.417     7630.868     6545.015        5.875        1.298      300.402       53.208        0.031      340.764       15.005      867.964
05/12/2014  10:44:00       89.105       89.965       28.074      106.620       70.760       54.433    11367.733     5006.974     2963.000        1.808        0.967      126.623       32.556        0.066      341.159       15.678      867.953
05/12/2014  10:45:00      109.499      101.210        0.643       99.190       58.235       59.541     9838.639     3391.259     3545.139        1.950        0.839      149.109       38.105        0.065      341.522       16.292      867.939
05/12/2014  10:46:00      103.451      126.885       -6.394       82.895       70.128       50.216     6871.520     4917.877     2521.671        2.057        0.716      163.713       36.371        0.049      341.117       15.606      867.938
05/12/2014  10:47:00       37.843      -47.537        4.735       81.663      104.419       37.275     6668.926    10903.368     1389.448        1.133        0.948       60.761       43.804        0.520      341.358       16.014      867.952
05/12/2014  10:48:00      127.089      -53.461       57.014      125.264      187.226      118.142    15691.081    35053.708    13957.444        4.347        3.235      137.876      143.718        1.087      341.100       15.576      867.931
05/12/2014  10:49:00       37.820        1.489       94.207       73.213      165.114       82.756     5360.198    27262.720     6848.541        2.488        1.974       37.849       99.134        6.860      341.247       15.825      867.915
05/12/2014  10:50:00      106.558       55.166      115.962      108.641      141.559       69.042    11802.804    20038.887     4766.862        3.222        1.830      119.991       76.044        0.402      341.313       15.937      867.916
05/12/2014  10:51:00      138.273      104.243       72.427      110.794       81.563       73.106    12275.397     6652.524     5344.441        2.975        1.214      173.165       50.059        0.084      341.253       15.836      867.935
05/12/2014  10:52:00      231.936      133.341       44.578      112.129       89.581       56.934    12572.926     8024.709     3241.523        4.870        1.192      267.534       45.995        0.030      341.207       15.757      867.941
05/12/2014  10:53:00      216.132      140.000       62.757      102.677       83.038       59.378    10542.614     6895.321     3525.722        4.560        1.048      257.513       29.306        0.013      341.073       15.529      867.936
05/12/2014  10:54:00      179.459      102.808       27.057       87.730       65.867       60.036     7696.634     4338.436     3604.324        2.957        0.782      206.821       53.536        0.067      340.580       14.696      867.947
05/12/2014  10:55:00       56.291       13.800       29.656       59.878       71.451       43.438     3585.349     5105.190     1886.869        0.741        0.529       57.958       33.298        0.330      340.956       15.335      867.936
05/12/2014  10:56:00       36.405       91.894       13.201       60.327       44.025       29.854     3639.329     1938.194      891.279        0.821        0.323       98.843       30.345        0.094      341.057       15.506      867.924
05/12/2014  10:57:00       88.604       56.571       18.909       61.548       35.828       35.968     3788.153     1283.654     1293.663        0.889        0.318      105.123       28.938        0.076      340.813       15.092      867.920
05/12/2014  10:58:00      148.635       71.241       45.922      117.337       77.857       56.225    13767.920     6061.705     3161.245        2.613        1.150      164.827       30.644        0.035      341.071       15.528      867.927
05/12/2014  10:59:00      214.613      150.641       72.043      167.203      142.750       94.670    27956.723    20377.582     8962.383        6.561        2.865      262.205       64.144        0.060      341.224       15.787      867.872
05/12/2014  11:00:00      134.703      134.201      184.650      139.236      190.150      133.319    19386.599    36156.895    17774.016        7.177        3.666      190.144      135.694        0.509      341.382       16.052      867.903
05/12/2014  11:01:00      122.341      164.120      136.559      140.462      118.503       86.211    19729.444    14043.045     7432.389        5.087        2.060      204.702       66.567        0.106      341.194       15.735      867.925
05/12/2014  11:02:00      143.149       87.197       34.903       93.779       74.007       69.265     8794.577     5476.972     4797.582        2.419        0.953      167.616       56.146        0.112      341.313       15.938      867.925
05/12/2014  11:03:00       84.171       29.045       49.717       98.400       58.379       58.370     9682.586     3408.053     3407.063        1.345        0.825       89.041       53.225        0.357      341.351       16.004      867.942
05/12/2014  11:04:00       36.441        1.980       53.104       63.962       49.096       39.564     4091.139     2410.402     1565.325        0.611        0.403       36.494       37.197        1.039      341.548       16.337      867.897
05/12/2014  11:05:00      183.321      -40.612       76.882      157.945      151.621      125.365    24946.639    22988.820    15716.316        5.240        3.183      187.765      117.608        0.392      341.433       16.140      867.892
05/12/2014  11:06:00      123.910      122.088      162.012      132.755      165.381      103.033    17624.022    27350.842    10615.769        5.604        2.780      173.952      108.315        0.388      341.496       16.246      867.913
05/12/2014  11:07:00       22.888        8.752       64.353       70.861      122.854       75.847     5021.336    15093.122     5752.796        1.530        1.293       24.504       70.735        8.333      341.469       16.204      867.941
05/12/2014  11:08:00      126.673       21.006       76.697       91.993      117.168       83.945     8462.637    13728.385     7046.747        2.580        1.462      128.403       85.888        0.447      341.198       15.742      867.932
05/12/2014  11:09:00       40.840       -8.839       -0.013       62.024       83.797       35.713     3847.000     7022.002     1275.453        0.694        0.607       41.786       30.352        0.528      341.181       15.716      867.891
05/12/2014  11:10:00      106.290       89.967       33.510       68.219       61.955       68.260     4653.860     3838.445     4659.386        1.683        0.658      139.253       44.874        0.104      341.258       15.846      867.854
05/12/2014  11:11:00      154.581       39.277      124.245      145.140      172.220      108.689    21065.663    29659.569    11813.203        5.169        3.127      159.493       98.174        0.379      341.413       16.107      867.854
05/12/2014  11:12:00      255.355      140.831      132.568      164.640      130.178      104.097    27106.492    16946.438    10836.160        7.874        2.744      291.615       84.586        0.084      341.292       15.900      867.866
05/12/2014  11:13:00      287.920      160.899       66.284      120.148       84.348       72.362    14435.589     7114.650     5236.249        6.998        1.339      329.828       64.530        0.038      341.172       15.697      867.899
05/12/2014  11:14:00      309.451      125.847       55.951      150.560      114.883      113.457    22668.245    13198.139    12872.511        8.172        2.437      334.062       80.545        0.058      341.236       15.804      867.894
05/12/2014  11:15:00       77.202       35.275       76.436       90.401       78.711       62.007     8172.320     6195.345     3844.874        1.563        0.911       84.879       36.490        0.185      341.382       16.056      867.923
05/12/2014  11:16:00       75.222       -2.994       79.268       97.794       88.197       60.069     9563.589     7778.740     3608.270        1.645        1.048       75.282       44.026        0.342      341.200       15.747      867.923
05/12/2014  11:17:00       93.308      -10.453       73.479      102.761      125.107       86.029    10559.763    15651.773     7400.922        2.391        1.681       93.891       83.078        0.783      341.490       16.237      867.903
05/12/2014  11:18:00       74.562       16.176       86.754      103.881      111.781       86.278    10791.326    12495.055     7443.954        2.203        1.537       76.296       94.680        1.540      341.460       16.187      867.898
05/12/2014  11:19:00      140.183      -85.705       55.745      135.857      150.601       79.024    18457.193    22680.744     6244.771        3.873        2.369      164.306       81.450        0.246      341.488       16.233      867.878
05/12/2014  11:20:00      122.143      -86.797       36.967      112.884      150.935       59.414    12742.742    22781.362     3530.039        3.143        1.953      149.842       71.810        0.230      341.201       15.747      867.880
05/12/2014  11:21:00       30.698      -81.589       46.644       84.791       90.238       69.699     7189.439     8142.843     4857.966        1.498        1.010       87.173       46.870        0.289      341.550       16.341      867.862
05/12/2014  11:22:00      103.796       37.022       47.495       86.763      112.886       50.338     7527.831    12743.339     2533.962        1.860        1.140      110.201       52.904        0.230      341.688       16.574      867.886
05/12/2014  11:23:00      154.806      101.851      109.153      122.163      115.205       99.597    14923.791    13272.282     9919.547        4.218        1.906      185.307       82.380        0.198      341.343       15.988      867.879
05/12/2014  11:24:00      222.022      125.155       84.375      109.573      110.128       77.219    12006.159    12128.277     5962.795        5.108        1.505      254.867       51.914        0.041      341.360       16.016      867.876
05/12/2014  11:25:00      111.814       94.489       57.780      111.614      105.546       76.835    12457.638    11139.854     5903.601        2.713        1.475      146.392       56.620        0.150      341.839       16.829      867.836
05/12/2014  11:26:00      297.972      168.938       31.209      132.878      114.896       87.725    17656.499    13201.096     7695.761        7.842        1.928      342.531       37.709        0.012      341.737       16.654      867.846
05/12/2014  11:27:00      293.940      182.405       23.543      129.579      122.149       89.057    16790.745    14920.325     7931.149        7.993        1.982      345.937       52.364        0.023      341.485       16.228      867.834
05/12/2014  11:28:00      267.026      179.748       79.185      107.931       97.446       69.910    11649.087     9495.654     4887.382        6.795        1.302      321.888       46.459        0.021      341.324       15.954      867.850
05/12/2014  11:29:00      254.893      121.983       93.744      174.948      125.454      104.571    30606.629    15738.590    10935.171        7.295        2.864      282.577       99.446        0.124      341.439       16.148      867.864
05/12/2014  11:30:00      248.410      155.244       52.743      143.547       94.480       76.417    20605.699     8926.484     5839.626        6.197        1.769      292.931       27.889        0.009      341.479       16.218      867.871
05/12/2014  11:31:00      229.093       96.975       83.488      167.409       98.491      108.704    28025.634     9700.402    11816.501        5.919        2.477      248.772       92.075        0.137      341.536       16.314      867.844
05/12/2014  11:32:00      139.308       86.723       58.181      118.008      108.906      105.939    13925.854    11860.619    11222.971        3.365        1.850      164.096       84.991        0.268      341.443       16.155      867.853
05/12/2014  11:33:00      114.573       68.360       19.632      104.339       64.523       56.286    10886.707     4163.275     3168.104        1.820        0.911      133.417       25.440        0.036      341.852       16.852      867.827
05/12/2014  11:34:00      293.220      185.111       33.493      116.263       99.411       87.914    13517.150     9882.520     7728.951        7.624        1.556      346.762       42.229        0.015      341.703       16.594      867.826
05/12/2014  11:35:00      266.917      157.316       49.984      119.415       98.477       74.833    14260.006     9697.767     5600.044        6.402        1.478      309.828       35.050        0.013      341.647       16.502      867.841
05/12/2014  11:36:00      226.021      105.214       17.421      126.958      119.088       60.907    16118.251    14182.024     3709.698        4.823        1.700      249.310       48.211        0.037      341.147       15.656      867.847
05/12/2014  11:37:00      215.718      145.222       18.581       80.855       63.181       57.308     6537.520     3991.789     3284.194        4.089        0.691      260.046       44.248        0.029      341.113       15.597      867.839
05/12/2014  11:38:00      174.053      103.581       30.606       80.710       80.090       54.411     6514.120     6414.338     2960.573        2.892        0.794      202.543       34.499        0.029      341.378       16.046      867.834
05/12/2014  11:39:00      152.955       81.739       11.335       69.843       57.711       55.990     4878.059     3330.527     3134.837        2.077        0.567      173.426       30.534        0.031      341.773       16.717      867.811
05/12/2014  11:40:00        9.643       36.978       16.983       43.494       84.462       41.807     1891.715     7133.761     1747.814        0.626        0.539       38.215       30.014        0.617      341.825       16.808      867.794
05/12/2014  11:41:00       40.704       23.379        6.432       50.931       45.122       37.242     2593.957     2035.966     1386.976        0.413        0.301       46.940       26.876        0.328      341.694       16.584      867.776
05/12/2014  11:42:00      101.190       81.366       59.888       87.128       62.536       38.189     7591.292     3910.752     1458.367        1.670        0.648      129.846       23.246        0.032      341.664       16.533      867.775
05/12/2014  11:43:00      164.493       14.767       87.185      143.859      166.399      103.333    20695.287    27688.705    10677.766        4.696        2.953      165.155      116.726        0.500      341.678       16.556      867.761
05/12/2014  11:44:00      148.255       92.093      111.839      110.180      129.566       94.102    12139.684    16787.474     8855.144        4.037        1.889      174.529       74.554        0.182      341.741       16.661      867.746
05/12/2014  11:45:00      167.975     -175.071       19.063      168.176      189.047      120.842    28283.026    35738.914    14602.709        6.891        3.931      242.622      132.721        0.299      341.819       16.794      867.719
05/12/2014  11:46:00      176.717       27.650      114.671      172.871      160.612      107.957    29884.437    25796.167    11654.619        5.623        3.367      178.867      102.646        0.329      341.617       16.451      867.703
05/12/2014  11:47:00       49.140      -10.760       84.139       89.203      120.889       76.137     7957.162    14614.151     5796.784        1.898        1.418       50.304       77.568        2.378      341.998       17.099      867.725
05/12/2014  11:48:00       53.889     -133.667       -9.874       84.599       90.858       63.076     7156.933     8255.178     3978.557        2.013        0.970      144.122       35.184        0.060      342.001       17.103      867.743
05/12/2014  11:49:00      -27.019       35.095       65.441       52.144       47.806       47.872     2718.999     2285.423     2291.749        0.677        0.365       44.291       33.186        0.561      342.189       17.425      867.726
05/12/2014  11:50:00       10.343       25.308       66.955       48.531       30.227       27.821     2355.225      913.647      774.020        0.464        0.202       27.340       25.844        0.894      341.850       16.849      867.740
05/12/2014  11:51:00       49.139       74.019       65.424       49.234       35.730       40.883     2423.962     1276.606     1671.460        0.877        0.269       88.845       30.743        0.120      341.737       16.657      867.763
05/12/2014  11:52:00       84.050       63.497       50.182       66.087       49.928       37.620     4367.457     2492.814     1415.238        1.094        0.414      105.339       30.956        0.086      342.033       17.160      867.779
05/12/2014  11:53:00        9.039      -15.827        3.421       38.566       50.620       35.209     1487.324     2562.404     1239.664        0.282        0.264       18.226       25.820        2.007      342.460       17.885      867.782
05/12/2014  11:54:00       60.351        1.513       29.190       59.002       63.726       47.926     3481.221     4060.974     2296.924        0.717        0.492       60.370       28.061        0.216      342.690       18.276      867.784
05/12/2014  11:55:00       68.642       -2.853       54.613       85.879      118.647       61.630     7375.217    14076.996     3798.273        1.647        1.263       68.702       66.548        0.938      342.131       17.326      867.772
05/12/2014  11:56:00      137.208      -66.229       38.069      118.816      134.170       75.081    14117.160    18001.568     5637.159        3.120        1.888      152.356       80.270        0.278      342.287       17.589      867.759
05/12/2014  11:57:00       88.793       -8.926       68.632       84.514      133.669       85.525     7142.698    17867.433     7314.581        2.249        1.616       89.241       93.720        1.103      341.972       17.056      867.760
05/12/2014  11:58:00       81.177       53.589       65.264       73.810      103.743       77.903     5447.853    10762.510     6068.806        1.800        1.114       97.270       56.302        0.335      341.667       16.539      867.738
05/12/2014  11:59:00       32.413      -94.023       21.711       49.796       62.210       44.432     2479.632     3870.056     1974.195        0.934        0.416       99.453       41.727        0.176      341.984       17.078      867.723
05/12/2014  12:00:00       48.546       45.586      103.558       86.474      122.114       83.567     7477.720    14911.828     6983.429        2.226        1.469       66.594       82.901        1.550      342.125       17.317      867.698
05/12/2014  12:01:00       41.968      -47.063       16.078       53.129       76.482       57.443     2822.700     5849.567     3299.667        0.810        0.599       63.057       52.116        0.683      341.838       16.829      867.707
05/12/2014  12:02:00       79.171     -133.055       24.027      109.685      187.090      105.054    12030.866    35002.670    11036.390        4.130        2.903      154.828      116.826        0.569      342.140       17.339      867.695
05/12/2014  12:03:00       87.143       77.566       73.091      136.665       89.541       67.034    18677.351     8017.548     4493.623        2.506        1.559      116.663       54.572        0.219      342.343       17.686      867.717
05/12/2014  12:04:00      228.360      136.004       16.937      102.741       75.625       65.343    10555.716     5719.135     4269.765        4.573        1.027      265.792       34.464        0.017      342.017       17.130      867.718
05/12/2014  12:05:00      260.776      164.336       29.205      136.565      115.525       84.367    18649.891    13345.924     7117.732        6.748        1.956      308.238       13.627        0.002      341.992       17.087      867.726
05/12/2014  12:06:00      266.115      173.417       38.389      109.848      116.915       72.316    12066.671    13669.114     5229.541        6.666        1.548      317.633       28.816        0.008      341.992       17.087      867.724
05/12/2014  12:07:00      193.375       99.904       19.461      104.160       74.646       62.359    10849.247     5572.013     3888.663        3.403        1.015      217.657       53.250        0.060      342.057       17.197      867.726
05/12/2014  12:08:00       66.605       60.755       45.442       90.880       51.682       49.427     8259.245     2671.061     2443.072        1.178        0.669       90.152       49.774        0.305      342.159       17.373      867.715
05/12/2014  12:09:00       45.633       55.091       73.344       62.271       53.785       48.590     3877.739     2892.814     2360.971        0.981        0.457       71.536       47.212        0.436      341.983       17.074      867.706
05/12/2014  12:10:00      134.079       37.677       39.199      120.390      145.838       81.324    14493.748    21268.774     6613.555        3.165        2.119      139.272       42.644        0.094      341.987       17.079      867.709
05/12/2014  12:11:00      187.125      146.637      108.489      148.846      105.492       88.430    22155.171    11128.552     7819.953        5.469        2.055      237.735       80.226        0.114      342.220       17.474      867.720
05/12/2014  12:12:00      104.481      118.304      127.264      120.344      101.293       89.734    14482.739    10260.331     8052.221        3.695        1.640      157.836       87.365        0.306      341.913       16.955      867.735
05/12/2014  12:13:00       76.448        0.194       83.403       86.766       91.694       64.272     7528.424     8407.817     4130.832        1.643        1.003       76.449       63.655        0.693      341.219       15.779      867.738
05/12/2014  12:14:00      241.639       99.385       29.033      109.138       64.725       63.621    11911.177     4189.327     4047.651        4.462        1.007      261.279       50.067        0.037      341.469       16.200      867.737
05/12/2014  12:15:00      193.806       87.786       35.539       81.334       84.734       60.066     6615.217     7179.916     3607.937        3.196        0.870      212.761       17.626        0.007      341.664       16.531      867.739
05/12/2014  12:16:00       58.990       12.851       37.828       64.015       74.993       42.009     4097.934     5623.883     1764.771        0.828        0.574       60.373       31.573        0.273      341.681       16.562      867.723
05/12/2014  12:17:00       10.198      -87.292       -3.506       41.995       67.331       43.024     1763.589     4533.454     1851.083        0.794        0.407       87.886       31.206        0.126      341.521       16.290      867.702
05/12/2014  12:18:00       57.010        9.414       32.173       40.006       53.728       39.615     1600.476     2886.703     1569.311        0.521        0.303       57.783       31.940        0.306      341.964       17.044      867.663
05/12/2014  12:19:00       51.348       69.002       -1.635       59.701       44.460       34.548     3564.168     1976.667     1193.548        0.707        0.337       86.010       29.158        0.115      342.019       17.136      867.656
05/12/2014  12:20:00      132.326       68.667       25.322       85.239       65.064       46.715     7265.666     4233.272     2182.262        1.827        0.684      149.081       22.364        0.023      342.087       17.250      867.661
05/12/2014  12:21:00       99.765       64.538       33.603       46.873       50.010       47.802     2197.057     2501.016     2284.987        1.111        0.349      118.820       30.383        0.065      342.276       17.573      867.667
05/12/2014  12:22:00      166.581     -102.275        6.140      179.495      106.457       66.759    32218.559    11333.056     4456.786        4.312        2.400      195.472       70.877        0.131      341.974       17.058      867.648
05/12/2014  12:23:00      143.891      -59.338       73.654      162.078      234.944      129.008    26269.269    55198.646    16643.050        6.386        4.906      155.646      161.672        1.079      342.081       17.238      867.605
05/12/2014  12:24:00      209.110     -292.781      -49.613      115.053      132.993       81.944    13237.280    17687.082     6714.888        8.477        1.882      359.788       71.226        0.039      341.951       17.016      867.584
05/12/2014  12:25:00       65.393     -127.858       18.761       74.294      136.964       79.956     5519.548    18759.037     6392.980        2.582        1.534      143.610       64.328        0.201      342.565       18.061      867.589
05/12/2014  12:26:00      110.576      -24.515       78.969      134.443      136.412       97.111    18074.849    18608.301     9430.542        3.258        2.306      113.261       93.594        0.683      342.443       17.853      867.607
05/12/2014  12:27:00      118.968     -197.920        0.186      106.528      120.262       63.975    11348.127    14462.847     4092.831        4.161        1.495      230.924       78.174        0.115      341.970       17.051      867.603
05/12/2014  12:28:00       45.794     -108.242       19.520      108.931       93.677       80.119    11866.063     8775.287     6419.044        2.062        1.353      117.530       64.685        0.303      342.175       17.399      867.594
05/12/2014  12:29:00      126.897     -171.868       24.568       79.807      151.303       75.471     6369.220    22892.638     5695.942        4.059        1.748      213.639       85.882        0.162      341.888       16.911      867.589
05/12/2014  12:30:00       56.611      -36.780       73.985       84.384      119.212       75.567     7120.601    14211.399     5710.370        1.853        1.352       67.510       71.771        1.130      342.468       17.897      867.600
05/12/2014  12:31:00      199.476      113.712       67.029      166.296      123.484      114.102    27654.270    15248.344    13019.172        5.656        2.796      229.611       88.816        0.150      342.075       17.228      867.630
05/12/2014  12:32:00       77.087      -74.308       57.340       97.383      198.213       91.147     9483.442    39288.421     8307.768        3.590        2.854      107.071      120.315        1.263      342.428       17.829      867.646
05/12/2014  12:33:00       82.894       24.356       87.437       83.468       87.544       63.521     6966.845     7663.919     4034.931        1.688        0.933       86.398       31.324        0.131      342.485       17.926      867.647
05/12/2014  12:34:00       49.127       -4.761       41.717       65.140       65.101       58.690     4243.202     4238.126     3444.575        0.805        0.596       49.357       49.385        1.001      342.043       17.176      867.671
05/12/2014  12:35:00       90.668      -78.714        4.532       52.303       52.986       40.461     2735.586     2807.526     1637.104        1.081        0.359      120.069       25.424        0.045      341.378       16.050      867.657
05/12/2014  12:36:00       56.265       75.150      100.183       81.575       60.225       39.803     6654.553     3627.061     1584.291        1.536        0.593       93.879       33.187        0.125      341.795       16.756      867.634
05/12/2014  12:37:00      -60.859       23.079        4.573       32.371       43.750       31.011     1047.908     1914.043      961.666        0.409        0.196       65.089       21.842        0.113      341.768       16.710      867.598
05/12/2014  12:38:00       59.744       57.619       36.599       55.804       44.864       30.353     3114.055     2012.789      921.286        0.714        0.302       83.002       21.973        0.070      342.075       17.232      867.567
05/12/2014  12:39:00      250.324      148.862       49.823      114.508      107.736       78.164    13112.058    11607.103     6109.631        5.906        1.541      291.243       43.653        0.022      341.909       16.945      867.574
05/12/2014  12:40:00      186.025      137.201       34.858      169.008       94.473       85.327    28563.605     8925.060     7280.702        4.970        2.238      231.149       53.294        0.053      341.870       16.882      867.570
05/12/2014  12:41:00      177.056      136.960       11.002      118.632       90.439       61.128    14073.444     8179.178     3736.660        3.810        1.299      223.845       50.126        0.050      342.140       17.339      867.560
05/12/2014  12:42:00      114.500       55.343       82.376      119.168      112.089       84.969    14201.025    12563.957     7219.721        2.847        1.699      127.173       62.115        0.239      342.207       17.454      867.576
05/12/2014  12:43:00       88.893      155.833      171.772      103.936      123.578       79.319    10802.772    15271.439     6291.576        4.702        1.618      179.404       72.209        0.162      341.848       16.843      867.576
05/12/2014  12:44:00       73.500       65.767       96.374       62.926       53.541       54.359     3959.676     2866.666     2954.854        1.440        0.489       98.628       25.334        0.066      341.517       16.285      867.586
05/12/2014  12:45:00       78.815       50.615       19.657       68.979       62.584       30.524     4758.169     3916.800      931.722        0.938        0.480       93.668       31.050        0.110      341.579       16.388      867.578
05/12/2014  12:46:00      121.233      106.904       19.205       40.241       37.915       43.775     1619.342     1437.530     1916.245        1.573        0.249      161.635       17.231        0.011      341.585       16.399      867.562
05/12/2014  12:47:00       49.996       42.966       40.187       46.809       39.986       41.397     2191.100     1598.844     1713.726        0.573        0.275       65.922       23.512        0.127      342.208       17.458      867.546
05/12/2014  12:48:00       37.138       30.699       33.951       44.987       43.087       32.217     2023.818     1856.449     1037.965        0.420        0.246       48.184       23.904        0.246      342.411       17.802      867.546
05/12/2014  12:49:00       82.891      -97.625       22.854       81.774      101.149       59.392     6686.909    10231.037     3527.426        1.868        1.022      128.068       66.792        0.272      342.400       17.782      867.535
05/12/2014  12:50:00       73.543       -8.551       63.620       63.317      108.135       59.525     4009.015    11693.074     3543.234        1.438        0.962       74.039       72.793        0.967      341.860       16.867      867.544
05/12/2014  12:51:00      117.793     -105.061        6.776       63.498       91.915       41.538     4031.972     8448.373     1725.400        1.958        0.710      157.839       37.087        0.055      341.831       16.814      867.530
05/12/2014  12:52:00       -0.360      -19.976       24.066       45.590       73.776       44.176     2078.448     5442.866     1951.481        0.522        0.474       19.980       24.183        1.465      342.560       18.054      867.525
05/12/2014  12:53:00      110.330      -94.669       16.320       54.537       95.180       47.978     2974.323     9059.202     2301.887        1.787        0.717      145.379       56.271        0.150      341.816       16.791      867.527
05/12/2014  12:54:00       33.028      -32.715       25.660       44.835       55.468       39.875     2010.141     3076.743     1590.045        0.475        0.334       46.488       36.873        0.629      342.204       17.452      867.482
05/12/2014  12:55:00       23.260      -16.379       27.659       43.823       81.097       41.500     1920.422     6576.793     1722.219        0.589        0.511       28.448       50.140        3.106      342.242       17.515      867.467
05/12/2014  12:56:00       92.005       84.257       37.174      176.317       83.209       56.452    31087.540     6923.739     3186.813        2.906        2.060      124.757       43.174        0.120      342.330       17.663      867.458
05/12/2014  12:57:00      188.755      129.239        9.130       94.489       73.297       58.890     8928.237     5372.499     3467.990        3.509        0.888      228.760       45.780        0.040      341.958       17.029      867.463
05/12/2014  12:58:00      179.778      135.007       45.822      110.616       86.463       73.613    12235.827     7475.765     5418.844        3.888        1.257      224.827       42.507        0.036      342.122       17.308      867.456
05/12/2014  12:59:00      237.797      177.810       23.984      101.917       85.649       74.277    10386.994     7335.698     5517.049        5.598        1.162      296.924       52.795        0.032      342.096       17.261      867.453
05/12/2014  13:00:00      118.829       90.375       23.589       58.488       37.154       37.157     3420.836     1380.383     1380.610        1.451        0.309      149.292       27.457        0.034      342.054       17.193      867.453
05/12/2014  13:01:00       51.963       68.436       53.829       47.506       41.416       32.119     2256.824     1715.252     1031.606        0.764        0.250       85.928       19.965        0.054      342.422       17.820      867.438
05/12/2014  13:02:00      168.386      101.112       63.854      117.747       81.818       63.682    13864.303     6694.149     4055.366        3.363        1.231      196.412       38.080        0.038      342.392       17.767      867.415
05/12/2014  13:03:00      201.789      135.783       82.051      112.495      108.556       79.258    12655.036    11784.362     6281.809        4.830        1.536      243.219       71.358        0.086      342.864       18.567      867.414
05/12/2014  13:04:00      186.191       60.416       66.093      127.919      140.159       75.558    16363.372    19644.596     5709.018        4.219        2.086      195.748       70.371        0.129      342.730       18.342      867.427
05/12/2014  13:05:00       96.812      -19.777       50.103       91.335      151.368       71.952     8342.082    22912.148     5177.047        2.435        1.822       98.812       70.252        0.505      342.605       18.131      867.433
05/12/2014  13:06:00      107.019        5.217      104.315      123.354      169.616       97.364    15216.230    28769.602     9479.733        3.790        2.673      107.146      110.869        1.071      342.456       17.877      867.423
05/12/2014  13:07:00       36.033       53.953       41.971       72.830       56.036       66.739     5304.164     3140.005     4454.082        0.943        0.645       64.879       45.639        0.495      342.070       17.221      867.449
05/12/2014  13:08:00       28.357       63.564       -0.745       33.168       36.177       27.796     1100.086     1308.748      772.590        0.401        0.159       69.603       22.568        0.105      342.326       17.657      867.414
05/12/2014  13:09:00       81.822      100.730       91.804       69.534       73.221       63.039     4835.032     5361.365     3973.914        1.972        0.709      129.774       57.015        0.193      342.256       17.538      867.430
05/12/2014  13:10:00      111.565       71.076       84.617      103.265       70.115       64.958    10663.740     4916.141     4219.546        2.223        0.990      132.282       45.140        0.116      342.294       17.601      867.403
05/12/2014  13:11:00       66.185       14.479       30.280       62.202       80.470       54.958     3869.034     6475.437     3020.387        0.943        0.668       67.750       54.635        0.650      342.470       17.903      867.416
05/12/2014  13:12:00       58.976       25.763       48.872       61.071      110.469       81.056     3729.613    12203.434     6570.128        1.451        1.125       64.358       70.532        1.201      342.467       17.895      867.406
05/12/2014  13:13:00      134.389      113.175       93.414      130.662      101.481       94.445    17072.598    10298.455     8919.884        3.794        1.815      175.696       83.610        0.226      342.685       18.266      867.381
05/12/2014  13:14:00      139.970     -135.762       32.760      151.848      253.835       88.633    23057.934    64432.123     7855.841        6.720        4.767      194.995      143.331        0.540      342.400       17.782      867.411
05/12/2014  13:15:00      129.671      -76.595       26.863      110.875      123.357       74.672    12293.171    15216.835     5575.922        2.824        1.654      150.604       93.840        0.388      342.476       17.910      867.405
05/12/2014  13:16:00       26.776        1.290       93.185       62.578      105.111       70.225     3915.992    11048.312     4931.612        1.465        0.995       26.808       56.625        4.462      342.915       18.658      867.413
05/12/2014  13:17:00      181.546     -177.132      -18.590       93.439      125.675       81.291     8730.885    15794.299     6608.227        4.790        1.557      253.643       92.533        0.133      342.317       17.640      867.407
05/12/2014  13:18:00       26.136      -59.832       62.888       95.054       88.736       71.964     9035.260     7874.118     5178.875        1.515        1.104       65.291       47.018        0.519      342.836       18.524      867.409
05/12/2014  13:19:00      -14.418       19.245       36.764       61.620       54.607       42.239     3797.046     2981.930     1784.131        0.524        0.428       24.047       34.026        2.002      343.247       19.224      867.433
05/12/2014  13:20:00       12.854       -4.757       42.579       50.151       80.750       55.123     2515.090     6520.577     3038.557        0.704        0.604       13.706       48.910       12.734      342.993       18.793      867.437
05/12/2014  13:21:00       48.047      -93.720       18.836       42.583       75.515       36.772     1813.279     5702.511     1352.181        1.016        0.443      105.318       37.312        0.126      342.449       17.867      867.421
05/12/2014  13:22:00       36.599       41.877       38.113       73.909       78.485       42.087     5462.470     6159.907     1771.310        0.897        0.670       55.616       45.845        0.679      342.677       18.255      867.426
05/12/2014  13:23:00       58.914      -86.721       34.052       79.781      122.613       58.275     6364.991    15033.856     3395.987        1.847        1.240      104.840       64.864        0.383      342.790       18.445      867.425
05/12/2014  13:24:00      193.953     -137.434       27.124      159.871      207.796      112.554    25558.580    43179.052    12668.351        6.931        4.070      237.710      138.655        0.340      342.494       17.941      867.384
05/12/2014  13:25:00      142.080     -296.974      -12.664      128.401      103.702       73.168    16486.803    10754.142     5353.488        7.056        1.630      329.212       54.386        0.027      342.321       17.646      867.399
05/12/2014  13:26:00      127.755       65.392      120.425      111.279      238.513       98.073    12383.101    56888.613     9618.311        5.698        3.945      143.518      115.263        0.645      342.304       17.616      867.385
05/12/2014  13:27:00       41.804       69.304       99.074       74.122       59.784       39.855     5494.024     3574.105     1588.383        1.351        0.533       80.936       43.268        0.286      342.341       17.683      867.387
05/12/2014  13:28:00       47.533      112.628      146.285      113.716      111.746       76.480    12931.274    12487.080     5849.117        3.380        1.563      122.247       64.145        0.275      342.653       18.210      867.375
05/12/2014  13:29:00       31.980      -60.150       39.942       77.824      158.575       81.297     6056.649    25145.882     6609.246        2.202        1.891       68.123       93.665        1.890      342.532       18.007      867.374
05/12/2014  13:30:00      161.480     -182.660        2.816      119.950      139.152       80.555    14387.896    19363.155     6489.112        4.984        2.012      243.804       86.674        0.126      342.657       18.217      867.349
05/12/2014  13:31:00      239.563     -340.290      -46.853       63.266       69.583       38.103     4002.607     4841.764     1451.848        9.284        0.515      416.158       31.905        0.006      342.124       17.311      867.339
05/12/2014  13:32:00      109.043       53.736      127.896      115.181      135.562       84.628    13266.597    18377.009     7161.883        3.496        1.940      121.564       95.267        0.614      342.426       17.825      867.348
05/12/2014  13:33:00       51.877       56.615      120.983       72.021      123.091       83.020     5187.083    15151.425     6892.242        2.388        1.362       76.789       89.924        1.371      342.541       18.021      867.349
05/12/2014  13:34:00      130.670      -28.745       73.534       89.537      207.228      132.463     8016.888    42943.418    17546.334        4.589        3.425      133.794      152.811        1.304      342.452       17.869      867.342
05/12/2014  13:35:00       58.978      -91.225       35.963      101.389      126.543       80.267    10279.713    16013.031     6442.869        2.291        1.637      108.630       81.493        0.563      342.643       18.195      867.346
05/12/2014  13:36:00      111.919       87.709       99.502      116.836       90.757       83.901    13650.595     8236.800     7039.319        2.952        1.446      142.192       62.319        0.192      342.474       17.906      867.343
05/12/2014  13:37:00       70.210       -5.172       66.527       72.292      144.668       75.212     5226.169    20928.922     5656.770        2.059        1.591       70.400       83.758        1.415      342.553       18.039      867.346
05/12/2014  13:38:00       59.129       30.459       12.514       59.646       36.367       48.923     3557.612     1322.543     2393.459        0.593        0.364       66.513       34.142        0.264      342.569       18.071      867.355
05/12/2014  13:39:00       75.890      -88.934       -1.774       66.114      117.394       42.905     4371.069    13781.278     1840.825        1.683        1.000      116.913       51.975        0.198      342.740       18.361      867.352
05/12/2014  13:40:00      121.205      156.111      155.720      125.100       98.754       83.899    15649.980     9752.444     7039.080        4.787        1.622      197.639       79.127        0.160      342.329       17.659      867.378
05/12/2014  13:41:00       26.212      -53.900       10.316       44.648       69.094       29.720     1993.433     4773.984      883.256        0.567        0.383       59.936       28.718        0.230      342.262       17.550      867.389
05/12/2014  13:42:00       39.648       43.300       56.964       62.996       75.013       46.979     3968.537     5626.997     2206.985        0.924        0.590       58.710       40.176        0.468      342.692       18.280      867.371
05/12/2014  13:43:00      140.071      165.362      147.924      148.522      109.608       98.834    22058.716    12013.980     9768.157        5.633        2.192      216.713       96.778        0.199      342.371       17.730      867.388
05/12/2014  13:44:00       90.291      132.950      157.279      104.468       96.964       73.847    10913.635     9402.096     5453.352        3.816        1.288      160.712       61.614        0.147      342.574       18.077      867.363
05/12/2014  13:45:00      114.694      -16.948       26.876      120.442       93.484       52.398    14506.280     8739.294     2745.555        2.007        1.300      115.939       43.283        0.139      342.998       18.800      867.363
05/12/2014  13:46:00      134.633      134.712      158.886      124.078      140.787      105.206    15395.373    19821.012    11068.281        5.389        2.314      190.455      103.237        0.294      342.587       18.098      867.375
05/12/2014  13:47:00       14.292       83.393       98.146       53.751       66.900       54.542     2889.154     4475.634     2974.806        1.356        0.517       84.608       44.093        0.272      342.675       18.252      867.400
05/12/2014  13:48:00       40.773      -60.639        0.834       56.197       94.218       35.260     3158.059     8876.968     1243.270        0.931        0.664       73.072       31.382        0.184      342.847       18.542      867.393
05/12/2014  13:49:00      152.917      -18.983       69.786      147.114      112.966       76.478    21642.617    12761.248     5848.850        3.443        2.013      154.090       81.227        0.278      343.096       18.965      867.350
05/12/2014  13:50:00       97.852       21.488       37.631       86.331      122.910       54.285     7453.074    15106.932     2946.808        1.847        1.275      100.184       49.732        0.246      342.637       18.185      867.375
05/12/2014  13:51:00       -0.373        8.677       64.332       52.426      108.729       68.474     2748.494    11821.940     4688.622        1.173        0.963        8.685       66.525       58.672      342.878       18.596      867.344
05/12/2014  13:52:00      122.501       88.013      107.226      130.000       94.139       77.037    16900.073     8862.189     5934.642        3.297        1.585      150.840       66.087        0.192      342.650       18.206      867.334
05/12/2014  13:53:00      175.926     -274.578       -7.667      149.018      158.909       93.875    22206.299    25252.182     8812.455        8.133        2.814      326.103      114.159        0.123      342.971       18.751      867.309
05/12/2014  13:54:00      131.712      -53.697       39.742      116.989      128.948       81.810    13686.530    16627.554     6692.911        2.940        1.850      142.238       84.523        0.353      342.936       18.694      867.321
05/12/2014  13:55:00       57.652       54.405      110.146       91.675       81.755       55.005     8404.290     6683.843     3025.527        1.826        0.906       79.269       52.993        0.447      342.809       18.478      867.332
05/12/2014  13:56:00      146.209     -208.419       -8.774       77.779       93.739       54.006     6049.524     8787.059     2916.697        4.132        0.888      254.589       62.840        0.061      342.405       17.788      867.320
05/12/2014  13:57:00       94.751      -87.795        9.375       87.395      100.868       80.165     7637.833    10174.315     6426.405        2.050        1.212      129.173       68.538        0.282      342.700       18.292      867.296
05/12/2014  13:58:00       99.049      -68.007       35.767       80.787       87.683       70.967     6526.614     7688.367     5036.301        1.748        0.963      120.148       75.877        0.399      342.653       18.212      867.294
05/12/2014  13:59:00       45.795      -85.412       25.072       73.166       78.638       46.369     5353.243     6183.900     2150.042        1.185        0.684       96.914       51.766        0.285      342.780       18.430      867.270
05/12/2014  14:00:00      -38.084      -47.536       -0.105       53.243       61.383       38.686     2834.803     3767.819     1496.610        0.590        0.405       60.910       37.815        0.385      342.999       18.802      867.234
05/12/2014  14:01:00       30.421      -26.769       32.608       70.117       86.316       51.200     4916.328     7450.528     2621.457        0.884        0.749       40.522       56.649        1.954      342.979       18.768      867.218
05/12/2014  14:02:00       12.906        2.452       26.060       32.659       30.994       30.946     1066.639      960.601      957.673        0.192        0.149       13.137       15.718        1.432      343.066       18.917      867.186
05/12/2014  14:03:00      182.351      -88.581       63.499      142.725      151.106       87.259    20370.349    22832.985     7614.078        4.796        2.541      202.727       99.902        0.243      342.847       18.542      867.166
05/12/2014  14:04:00      185.965     -146.848      -18.331       59.996      100.011       51.560     3599.541    10002.234     2658.485        3.637        0.813      236.954       50.320        0.045      342.609       18.136      867.168
05/12/2014  14:05:00       92.433       -8.040       35.682       75.359       99.475       54.628     5678.912     9895.319     2984.221        1.422        0.928       92.782       59.529        0.412      342.844       18.536      867.147
05/12/2014  14:06:00       75.428      -35.762       42.167       72.600      116.506       62.229     5270.787    13573.695     3872.488        1.573        1.136       83.476       55.617        0.444      342.915       18.658      867.139
05/12/2014  14:07:00      190.252      132.386       88.138      151.196      120.844       98.683    22860.106    14603.312     9738.368        5.434        2.360      231.780       83.870        0.131      342.794       18.451      867.123
05/12/2014  14:08:00      112.700       98.278       72.446       92.484       81.254       63.488     8553.370     6602.235     4030.774        2.339        0.959      149.532       44.999        0.091      342.978       18.765      867.106
05/12/2014  14:09:00       91.165       24.195       47.156      117.542       86.063       66.335    13816.217     7406.818     4400.272        1.837        1.281       94.321       56.480        0.359      343.059       18.903      867.076
05/12/2014  14:10:00      122.795       10.466       39.558      112.219      108.729       80.058    12593.159    11822.034     6409.244        2.378        1.541      123.240       71.795        0.339      343.422       19.520      867.071
05/12/2014  14:11:00      124.477       65.730       61.434      119.559      133.826       85.157    14294.370    17909.372     7251.759        3.151        1.973      140.766       74.771        0.282      343.287       19.292      867.065
05/12/2014  14:12:00      111.824       46.291       99.326      118.212      146.111       84.053    13974.080    21348.397     7064.934        3.344        2.119      121.026       68.917        0.324      343.298       19.309      867.047
05/12/2014  14:13:00      144.035      -59.730       36.347       88.291       76.990       67.541     7795.387     5927.422     4561.755        2.196        0.914      155.929       50.938        0.107      342.712       18.312      867.094
05/12/2014  14:14:00       -5.317       -5.717       36.221       25.457       60.243       41.217      648.065     3629.247     1698.807        0.367        0.299        7.807       28.324       13.161      343.123       19.014      867.101
05/12/2014  14:15:00      -12.475       -4.755       19.070       57.176       56.929       47.124     3269.082     3240.911     2220.627        0.463        0.437       13.351       36.134        7.325      343.362       19.419      867.024
05/12/2014  14:16:00       22.557      -66.207        1.815       50.865       43.331       34.220     2587.203     1877.614     1171.033        0.526        0.282       69.944       25.379        0.132      343.180       19.111      867.005
05/12/2014  14:17:00       12.536       22.793       21.840       31.320       31.231       28.685      980.912      975.368      822.842        0.197        0.139       26.013       21.865        0.707      343.125       19.018      867.008
05/12/2014  14:18:00       59.747      -10.530        5.099       33.572       38.980       25.928     1127.081     1519.466      672.271        0.351        0.166       60.668       15.833        0.068      342.557       18.052      867.009
05/12/2014  14:19:00       69.728       -3.506       15.623       52.168       37.852       26.810     2721.459     1432.811      718.796        0.499        0.244       69.816       13.551        0.038      342.638       18.188      866.991
05/12/2014  14:20:00       76.006       41.458        2.804       62.495       50.006       32.210     3905.643     2500.561     1037.455        0.747        0.372       86.578       22.576        0.068      343.062       18.910      866.975
05/12/2014  14:21:00      173.096      100.496       31.137      104.863       72.875       55.688    10996.251     5310.801     3101.182        3.022        0.970      200.154       34.667        0.030      342.839       18.526      866.960
05/12/2014  14:22:00       57.102      211.221      -33.674       56.008       68.730       38.331     3136.861     4723.818     1469.291        2.917        0.466      218.804       33.456        0.023      342.819       18.493      866.964
05/12/2014  14:23:00       45.121      124.994       -6.771       62.035       89.045       47.837     3848.339     7929.017     2288.333        1.588        0.703      132.889       44.485        0.112      343.166       19.086      866.967
05/12/2014  14:24:00      112.793      121.362       12.467      115.696       78.677       55.671    13385.555     6190.010     3099.283        2.514        1.134      165.683       47.467        0.082      343.076       18.931      866.986
05/12/2014  14:25:00      120.770      140.425       -3.970      113.251       87.320       47.412    12825.759     7624.778     2247.922        2.850        1.135      185.215       36.845        0.040      342.752       18.379      867.004
05/12/2014  14:26:00      -33.830       96.318      -25.378       28.526       29.224       17.869      813.753      854.065      319.299        0.653        0.099      102.087       12.933        0.016      342.479       17.917      867.004
05/12/2014  14:27:00       37.679       18.625       -1.771       24.917       26.783       24.192      620.881      717.320      585.231        0.185        0.096       42.031       14.414        0.118      342.824       18.504      867.003
05/12/2014  14:28:00       70.602      -44.536        6.287       46.997       94.595       40.842     2208.730     8948.197     1668.086        0.991        0.641       83.475       33.377        0.160      343.161       19.076      866.981
05/12/2014  14:29:00      165.815       83.753       51.281       92.378       78.308       68.675     8533.614     6132.142     4716.283        2.826        0.969      185.766       45.175        0.059      343.145       19.048      866.990
05/12/2014  14:30:00       83.354       87.238       93.631       92.241       73.144       53.585     8508.494     5350.059     2871.369        2.002        0.836      120.658       33.398        0.077      343.438       19.549      867.009
05/12/2014  14:31:00      173.613      126.701       63.928      149.544      102.409       79.553    22363.261    10487.610     6328.655        4.472        1.959      214.929       39.896        0.034      343.166       19.085      866.998
05/12/2014  14:32:00      315.298      186.017       76.186      168.936       98.008       86.652    28539.336     9605.622     7508.510        9.273        2.283      366.081       65.649        0.032      342.912       18.651      866.986
05/12/2014  14:33:00      239.891      141.605       47.390      135.622       82.289       88.652    18393.213     6771.458     7859.142        5.643        1.651      278.567       32.185        0.013      342.736       18.353      867.024
05/12/2014  14:34:00      250.663      142.850       27.352      110.423       89.942       70.345    12193.311     8089.530     4948.451        5.460        1.262      288.510       60.542        0.044      343.192       19.127      867.025
05/12/2014  14:35:00      240.165      171.918       18.605       73.373       53.281       58.795     5383.610     2838.816     3456.795        4.963        0.584      295.356       32.130        0.012      343.009       18.814      867.045
05/12/2014  14:36:00      193.721      107.889       21.865      118.868       70.690       60.100    14129.579     4997.107     3611.983        3.619        1.137      221.738       28.607        0.017      342.918       18.663      867.043
05/12/2014  14:37:00      133.886       51.263       59.013      130.895      109.602       74.570    17133.381    12012.617     5560.649        2.936        1.735      143.364       73.974        0.266      343.008       18.815      867.031
05/12/2014  14:38:00       10.893       -1.365       55.172       68.221       91.740       54.630     4654.138     8416.261     2984.428        0.961        0.803       10.979       50.928       21.519      343.217       19.174      867.001
05/12/2014  14:39:00       75.607     -167.791       -7.813       77.808       76.357       50.540     6054.122     5830.346     2554.339        2.418        0.722      184.039       41.804        0.052      343.344       19.387      866.979
05/12/2014  14:40:00       45.444       63.816       67.270       63.138       76.395       71.082     3986.363     5836.234     5052.602        1.277        0.744       78.343       58.855        0.564      343.355       19.408      866.977
05/12/2014  14:41:00      161.379      182.726      137.073      122.007       82.315       88.702    14885.678     6775.767     7868.101        5.387        1.476      243.787       60.626        0.062      343.003       18.806      866.962
05/12/2014  14:42:00      132.172      102.837      118.228      124.201       82.410       72.841    15425.783     6791.401     5305.833        3.477        1.376      167.466       62.954        0.141      343.198       19.137      866.962
05/12/2014  14:43:00      209.242      117.210       46.715      159.879       99.820       87.517    25561.191     9963.944     7659.160        5.144        2.159      239.834       81.631        0.116      343.248       19.224      866.991
05/12/2014  14:44:00      150.607       77.647       18.690      105.180       90.403       56.121    11062.881     8172.714     3149.621        2.572        1.119      169.444       38.857        0.053      343.294       19.303      867.004
05/12/2014  14:45:00      176.399      118.824       27.291       98.702       74.518       59.210     9742.004     5552.900     3505.785        3.239        0.940      212.687       28.716        0.018      342.841       18.531      866.997
05/12/2014  14:46:00      183.853      133.880       38.288       75.083       50.194       59.307     5637.484     2519.478     3517.272        3.243        0.584      227.433       32.144        0.020      342.861       18.563      866.972
05/12/2014  14:47:00      198.074      144.098      118.923      184.457      140.575      123.597    34024.349    19761.419    15276.193        7.159        3.453      244.944      114.144        0.217      343.353       19.402      866.963
05/12/2014  14:48:00      248.917      201.683      124.355      119.788       76.074       84.067    14349.096     5787.233     7067.181        7.265        1.360      320.368       75.420        0.055      343.045       18.877      867.023
05/12/2014  14:49:00      156.764       98.857       70.630       70.894       61.557       56.443     5025.960     3789.230     3185.764        2.567        0.600      185.331       41.460        0.050      342.737       18.354      867.053
05/12/2014  14:50:00      154.874       83.030       36.537       77.918       45.908       51.921     6071.258     2107.507     2695.788        2.154        0.544      175.727       28.013        0.025      342.674       18.246      867.042
05/12/2014  14:51:00       59.626       44.472        7.166       33.001       38.196       27.003     1089.042     1458.927      729.166        0.443        0.164       74.385       25.433        0.117      342.824       18.503      867.014
05/12/2014  14:52:00      -98.879      -10.998       -5.387       67.770       43.176       30.416     4592.742     1864.137      925.114        0.865        0.369       99.488       16.850        0.029      343.352       19.404      866.986
05/12/2014  14:53:00      -56.885       29.542       14.902       55.454       90.666       37.704     3075.118     8220.396     1421.594        0.852        0.636       64.099       21.354        0.111      343.911       20.358      866.940
05/12/2014  14:54:00       -7.427      -19.078       17.602       31.461       49.911       33.054      989.816     2491.086     1092.554        0.265        0.229       20.472       28.901        1.993      343.723       20.036      866.945
05/12/2014  14:55:00      -55.376       48.980       19.797       82.574       76.861       48.481     6818.546     5907.584     2350.424        1.046        0.754       73.929       44.828        0.368      343.520       19.689      866.945
05/12/2014  14:56:00       45.583      118.287       -0.597       58.852       79.162       52.506     3463.532     6266.601     2756.879        1.428        0.624      126.766       52.955        0.175      343.219       19.174      866.933
05/12/2014  14:57:00       -0.531      145.444      -22.830       53.851       49.455       39.604     2899.927     2445.832     1568.452        1.429        0.346      145.445       22.539        0.024      343.062       18.908      866.919
05/12/2014  14:58:00      -31.181      123.320      -13.439       42.583       74.306       31.923     1813.327     5521.439     1019.078        1.236        0.418      127.201       32.950        0.067      343.489       19.636      866.901
05/12/2014  14:59:00      -39.599      164.378       -9.088       54.436       64.129       37.814     2963.315     4112.570     1429.882        1.859        0.425      169.081       35.330        0.044      343.252       19.232      866.900
05/12/2014  15:00:00       31.022      163.740        6.409       57.742      102.457       60.393     3334.168    10497.412     3647.346        2.264        0.874      166.652       68.002        0.167      343.487       19.631      866.903
05/12/2014  15:01:00      101.731      105.865        6.721       71.818       62.688       47.531     5157.778     3929.745     2259.202        1.647        0.567      146.822       33.719        0.053      343.514       19.678      866.880
05/12/2014  15:02:00      115.800      140.995       -4.885       72.556       70.045       58.529     5264.427     4906.277     3425.661        2.345        0.680      182.454       43.792        0.058      343.093       18.959      866.878
05/12/2014  15:03:00      125.358      101.785       30.988      103.007       71.441       60.472    10610.460     5103.810     3656.904        2.320        0.969      161.477       41.765        0.067      343.164       19.080      866.865
05/12/2014  15:04:00       64.688       53.054       19.901       87.621       46.895       40.948     7677.384     2199.135     1676.730        0.947        0.578       83.662       35.209        0.177      343.485       19.629      866.885
05/12/2014  15:05:00      163.433      105.036       45.520       94.360       74.507       58.391     8903.871     5551.263     3409.547        2.884        0.893      194.276       50.054        0.066      343.173       19.096      866.889
05/12/2014  15:06:00      100.501       92.188       14.412       67.477       26.773       39.653     4553.117      716.790     1572.349        1.282        0.342      136.379       32.811        0.058      342.888       18.612      866.917
05/12/2014  15:07:00       34.340       60.424       12.579       62.537      100.873       49.439     3910.880    10175.324     2444.257        1.076        0.827       69.500       55.576        0.639      343.470       19.605      866.896
05/12/2014  15:08:00       90.220       -9.016       25.010       71.520      101.829       47.795     5115.050    10369.147     2284.333        1.330        0.888       90.670       62.200        0.471      343.295       19.306      866.896
05/12/2014  15:09:00       65.182      -58.365       22.947      147.838      117.824       70.138    21856.052    13882.444     4919.290        2.441        2.033       87.494       68.369        0.611      343.769       20.113      866.882
05/12/2014  15:10:00       95.928       21.891       82.036       85.290       80.903       66.131     7274.389     6545.232     4373.306        1.730        0.910       98.394       61.336        0.389      343.185       19.120      866.877
05/12/2014  15:11:00       51.878        3.703       16.616       58.476       47.183       42.238     3419.451     2226.236     1784.036        0.520        0.371       52.010       39.163        0.567      342.945       18.712      866.885
05/12/2014  15:12:00      -19.123        6.700       14.112       44.607       34.126       31.015     1989.816     1164.566      961.955        0.236        0.206       20.263       16.691        0.679      343.810       20.184      866.864
05/12/2014  15:13:00       80.703      -72.446       -1.437       55.912       58.272       38.702     3126.130     3395.573     1497.854        0.989        0.401      108.450       29.778        0.075      343.290       19.298      866.866
05/12/2014  15:14:00       69.972        9.490       40.846       52.404       62.532       41.742     2746.189     3910.267     1742.384        0.752        0.420       70.613       37.279        0.279      343.217       19.174      866.844
05/12/2014  15:15:00      137.533       95.902       68.585       95.717       93.003       88.143     9161.786     8649.473     7769.187        2.919        1.279      167.667       70.973        0.179      343.387       19.463      866.833
05/12/2014  15:16:00      212.162      137.958       86.246      102.723       74.511       65.455    10552.115     5551.929     4284.404        4.593        1.019      253.072       40.125        0.025      343.223       19.181      866.835
05/12/2014  15:17:00      195.958      123.504       46.861       96.936       62.070       72.306     9396.559     3852.673     5228.201        3.716        0.924      231.631       53.435        0.053      343.212       19.162      866.829
05/12/2014  15:18:00      162.615      106.498        6.176       84.983       59.954       44.922     7222.077     3594.440     2017.960        2.533        0.642      194.385       15.912        0.007      343.150       19.056      866.802
05/12/2014  15:19:00       43.299       43.956       57.501       62.442       43.453       40.326     3899.045     1888.122     1626.175        0.726        0.371       61.701       32.903        0.284      343.347       19.394      866.791
05/12/2014  15:20:00      -12.341       19.487      -10.426       76.688       43.832       32.967     5881.039     1921.288     1086.831        0.476        0.444       23.066       37.171        2.597      342.981       18.771      866.752
05/12/2014  15:21:00      -89.853       16.690      -19.189       34.664       37.725       24.550     1201.615     1423.157      602.711        0.597        0.161       91.390       13.829        0.023      343.058       18.902      866.701
05/12/2014  15:22:00      -39.652       20.271       17.502       65.135       42.292       33.925     4242.621     1788.595     1150.884        0.473        0.359       44.533       36.503        0.672      343.662       19.932      866.693
05/12/2014  15:23:00      109.811       34.556       28.334       98.233      105.512       51.852     9649.793    11132.869     2688.673        1.876        1.174      115.120       42.756        0.138      343.186       19.117      866.676
05/12/2014  15:24:00       17.779       19.184       54.267       39.381       72.438       40.212     1550.834     5247.324     1617.023        0.602        0.421       26.155       33.464        1.637      343.295       19.306      866.644
05/12/2014  15:25:00        9.906       43.372       59.855       64.917       47.496       37.684     4214.228     2255.859     1420.121        0.672        0.395       44.489       22.870        0.264      343.461       19.590      866.659
05/12/2014  15:26:00       91.034       65.921       27.067       87.988       53.988       46.532     7741.813     2914.680     2165.239        1.309        0.641      112.395       47.700        0.180      343.677       19.956      866.657
05/12/2014  15:27:00      157.592       88.572       48.292       91.759       83.378       68.276     8419.656     6951.827     4661.579        2.752        1.002      180.777       41.326        0.052      343.769       20.112      866.639
05/12/2014  15:28:00      132.522       74.331       46.300      110.639       80.464       60.096    12240.950     6474.387     3611.531        2.377        1.116      151.944       44.699        0.087      343.683       19.967      866.628
05/12/2014  15:29:00       74.879       -2.177       21.394       85.398       77.655       59.453     7292.838     6030.342     3534.711        1.146        0.843       74.910       49.613        0.439      343.900       20.337      866.630
05/12/2014  15:30:00       58.930      -56.847       22.215       84.335       93.767       50.554     7112.405     8792.252     2555.667        1.283        0.923       81.880       46.852        0.327      343.836       20.229      866.624
05/12/2014  15:31:00       62.872      -65.296       10.640       69.668       90.527       70.851     4853.613     8195.105     5019.806        1.320        0.903       90.645       54.232        0.358      343.593       19.813      866.603
05/12/2014  15:32:00       91.725       72.411       93.024       93.381      101.061       58.781     8720.064    10213.415     3455.255        2.235        1.119      116.862       46.214        0.156      343.644       19.899      866.611
05/12/2014  15:33:00      110.465      116.881      106.409      107.056       74.096       63.861    11461.022     5490.165     4078.183        2.910        1.051      160.822       59.859        0.139      343.219       19.175      866.604
05/12/2014  15:34:00       66.782       45.835       29.835       67.124       80.785       59.659     4505.625     6526.216     3559.218        1.102        0.730       80.998       36.166        0.199      343.483       19.627      866.589
05/12/2014  15:35:00      131.370     -196.824      -23.618       66.883       96.966       36.626     4473.303     9402.465     1341.463        3.588        0.761      236.638       44.963        0.036      343.243       19.213      866.580
05/12/2014  15:36:00       68.470     -123.191       -8.542       60.205       59.470       35.694     3624.604     3536.730     1274.043        1.418        0.422      140.940       21.423        0.023      343.543       19.727      866.561
05/12/2014  15:37:00       76.834       35.531       56.807       73.851       87.697       52.097     5453.992     7690.731     2714.054        1.312        0.793       84.652       51.156        0.365      343.469       19.601      866.537
05/12/2014  15:38:00       20.917       90.590      110.376       57.702       64.330       39.544     3329.537     4138.350     1563.765        1.493        0.452       92.974       41.235        0.197      343.824       20.207      866.543
05/12/2014  15:39:00       45.061      -46.751       -7.190       47.032       51.410       34.042     2211.972     2643.013     1158.841        0.514        0.301       64.932       23.741        0.134      343.017       18.832      866.534
05/12/2014  15:40:00       74.675       66.711       75.010       70.252       95.745       88.268     4935.330     9167.012     7791.254        1.877        1.095      100.134       86.307        0.743      343.093       18.961      866.495
05/12/2014  15:41:00      101.238      122.729       93.959      111.003      108.300       92.648    12321.614    11728.916     8583.580        3.338        1.632      159.096       84.724        0.284      343.219       19.174      866.467
05/12/2014  15:42:00      124.172     -198.693      -39.243       99.054      101.515       46.906     9811.669    10305.196     2200.171        3.937        1.116      234.302       41.812        0.032      343.271       19.261      866.475
05/12/2014  15:43:00       29.384      -65.785       21.903       45.699       76.511       42.501     2088.430     5853.889     1806.345        0.771        0.487       72.050       50.439        0.490      343.560       19.757      866.483
05/12/2014  15:44:00      102.762     -239.961      -33.815      111.739       89.762       45.006    12485.675     8057.297     2025.511        4.592        1.128      261.039       48.960        0.035      343.306       19.321      866.465
05/12/2014  15:45:00       84.252      -87.597       15.926       63.806       72.228       56.594     4071.251     5216.910     3202.840        1.376        0.625      121.539       51.064        0.177      343.563       19.763      866.453
05/12/2014  15:46:00       -9.911       12.804       19.175       43.273       60.177       35.730     1872.541     3621.211     1276.649        0.370        0.339       16.192       34.221        4.467      344.015       20.535      866.439
05/12/2014  15:47:00       22.642       -8.431       25.604       49.793       66.827       32.405     2479.350     4465.816     1050.081        0.462        0.400       24.161       38.049        2.480      343.815       20.193      866.433
05/12/2014  15:48:00       53.392      -38.326       30.663       71.065       66.620       40.645     5050.198     4438.238     1652.030        0.820        0.557       65.724       42.051        0.409      343.638       19.892      866.434
05/12/2014  15:49:00      -51.678       14.321        2.573       44.832       37.549       28.625     2009.893     1409.900      819.418        0.356        0.212       53.626       21.709        0.164      343.894       20.328      866.424
05/12/2014  15:50:00       35.067      -29.264        1.603       40.448       54.774       30.661     1636.074     3000.168      940.073        0.383        0.279       45.674       25.007        0.300      343.378       19.447      866.409
05/12/2014  15:51:00      -31.020      -37.350        7.968       61.505       47.194       34.880     3782.815     2227.236     1216.597        0.482        0.361       48.552       28.952        0.356      343.963       20.445      866.397
05/12/2014  15:52:00      -76.491      -39.534        5.152       55.041       38.581       28.044     3029.565     1488.532      786.476        0.637        0.265       86.103       12.195        0.020      343.900       20.338      866.397
05/12/2014  15:53:00       -4.447       10.300        3.129       40.957       39.801       40.536     1677.468     1584.103     1643.157        0.252        0.245       11.219       17.947        2.559      343.913       20.360      866.408
05/12/2014  15:54:00       16.280       17.150       -0.884       38.669       21.352       24.120     1495.257      455.928      581.779        0.155        0.127       23.646        7.646        0.105      343.538       19.722      866.424
05/12/2014  15:55:00       14.943       48.528       27.137       55.234       34.491       34.010     3050.802     1189.632     1156.671        0.435        0.270       50.776       21.813        0.185      343.856       20.264      866.428
05/12/2014  15:56:00       73.776       50.721       18.685       31.328       34.664       39.771      981.431     1201.622     1581.770        0.606        0.188       89.529       17.060        0.036      343.619       19.858      866.425
05/12/2014  15:57:00      112.836       89.922       54.297       78.698       86.159       54.417     6193.347     7423.335     2961.225        2.017        0.829      144.284       57.185        0.157      343.769       20.113      866.379
05/12/2014  15:58:00       66.175      -91.936       40.557       99.032      147.809       61.086     9807.351    21847.560     3731.511        2.492        1.769      113.276       71.599        0.400      343.757       20.092      866.367
05/12/2014  15:59:00      161.932     -161.280       15.542      127.183      154.679       85.866    16175.538    23925.523     7373.055        4.996        2.374      228.546      100.563        0.194      343.684       19.966      866.350
05/12/2014  16:00:00      120.791     -104.349       30.498       87.490      196.312      111.723     7654.455    38538.430    12482.075        4.253        2.934      159.622      143.041        0.803      343.371       19.431      866.357
05/12/2014  16:01:00      156.605     -162.156       -9.369       71.551       71.864       45.384     5119.534     5164.386     2059.668        3.162        0.617      225.432       48.188        0.046      343.391       19.466      866.347
05/12/2014  16:02:00      117.639     -221.507      -14.363       85.268       63.617       38.910     7270.560     4047.168     1513.950        3.797        0.642      250.807       37.159        0.022      343.407       19.494      866.334
05/12/2014  16:03:00       65.726      -49.685       35.307       69.747       90.667       35.648     4864.592     8220.453     1270.759        1.119        0.718       82.392       42.844        0.270      343.722       20.034      866.336
05/12/2014  16:04:00       29.241       59.639       91.828       56.688       73.884       44.122     3213.489     5458.798     1946.777        1.173        0.531       66.422       38.613        0.338      343.634       19.885      866.356
05/12/2014  16:05:00      127.816      127.535      106.525       96.334       77.137       65.293     9280.162     5950.113     4263.180        3.172        0.975      180.560       53.350        0.087      343.689       19.974      866.354
05/12/2014  16:06:00      126.276       88.491       91.191       87.247       71.452       53.350     7612.115     5105.396     2846.182        2.382        0.778      154.196       39.435        0.065      343.747       20.075      866.345
05/12/2014  16:07:00      209.537      158.358       31.274       95.250       69.816       59.740     9072.491     4874.229     3568.816        4.373        0.876      262.646       42.834        0.027      343.726       20.036      866.334
05/12/2014  16:08:00      165.672      114.437        6.115       83.133       68.262       53.673     6911.117     4659.753     2880.746        2.751        0.723      201.353       29.201        0.021      343.577       19.783      866.320
05/12/2014  16:09:00       85.414       33.713       36.358       94.932       70.863       47.264     9012.150     5021.626     2233.905        1.301        0.813       91.826       23.471        0.065      343.837       20.230      866.308
05/12/2014  16:10:00      123.347       98.826       70.235       80.513       51.465       67.700     6482.279     2648.659     4583.343        2.181        0.686      158.054       51.447        0.106      344.015       20.532      866.321
05/12/2014  16:11:00      141.151      111.631       13.335      100.494       84.303       62.460    10099.055     7106.970     3901.193        2.683        1.055      179.959       49.964        0.077      344.113       20.698      866.314
05/12/2014  16:12:00      240.517      182.498       24.788      113.645       92.096       75.639    12915.163     8481.618     5721.246        5.944        1.356      301.918       38.149        0.016      343.373       19.436      866.327
05/12/2014  16:13:00      160.151      128.049       23.880       93.602       72.389       63.980     8761.370     5240.138     4093.451        3.035        0.905      205.049       45.964        0.050      343.563       19.760      866.315
05/12/2014  16:14:00      270.954      211.773       20.370       78.998       69.334       62.847     6240.630     4807.201     3949.741        6.684        0.750      343.895       29.368        0.007      343.505       19.660      866.318
05/12/2014  16:15:00      124.487      126.119       19.083      108.622       77.161       62.141    11798.714     5953.858     3861.496        2.669        1.081      177.209       37.203        0.044      343.591       19.810      866.307
05/12/2014  16:16:00      145.139      116.640       23.455      102.771       51.461       64.050    10561.894     2648.220     4102.432        2.626        0.866      186.199       39.294        0.045      343.481       19.622      866.306
05/12/2014  16:17:00       64.144       -1.264       36.249       63.359       49.165       38.641     4014.314     2417.239     1493.150        0.668        0.396       64.157       30.916        0.232      343.346       19.392      866.296
05/12/2014  16:18:00       39.136       25.363        6.540       82.441       40.965       33.529     6796.586     1678.121     1124.213        0.591        0.480       46.636       30.600        0.431      343.470       19.604      866.280
05/12/2014  16:19:00       59.217       45.765       -4.671       68.199       82.493       31.142     4651.058     6805.093      969.829        0.902        0.621       74.841       18.016        0.058      343.511       19.673      866.290
05/12/2014  16:20:00       84.399       45.086       29.935       56.197       43.173       36.436     3158.153     1863.949     1327.558        0.820        0.317       95.687       30.894        0.104      343.432       19.538      866.292
05/12/2014  16:21:00      136.286       96.785        6.721       66.255       46.040       42.393     4389.686     2119.699     1797.142        1.814        0.415      167.156       25.455        0.023      343.860       20.267      866.291
05/12/2014  16:22:00      175.700       94.173       42.241       75.304       69.908       47.434     5670.638     4887.106     2250.004        2.716        0.640      199.347       24.635        0.015      343.801       20.167      866.295
05/12/2014  16:23:00      144.694      103.587       27.279       89.675       62.463       60.554     8041.533     3901.601     3666.776        2.401        0.780      177.951       36.804        0.043      343.786       20.140      866.301
05/12/2014  16:24:00      162.895       96.995       44.583      150.188       83.325       65.075    22556.413     6942.990     4234.725        3.583        1.687      189.586       19.980        0.011      343.657       19.922      866.308
05/12/2014  16:25:00      117.052       80.676       41.351       87.948       57.992       54.920     7734.875     3363.128     3016.188        1.801        0.706      142.161       40.764        0.082      343.859       20.267      866.335
05/12/2014  16:26:00       98.847       69.700       33.345       72.631       66.354       56.217     5275.320     4402.908     3160.323        1.429        0.642      120.950       45.097        0.139      343.799       20.165      866.340
05/12/2014  16:27:00      137.774       95.455       54.731       57.800       46.368       37.615     3340.879     2149.975     1414.873        1.900        0.345      167.611       15.657        0.009      343.319       19.347      866.353
05/12/2014  16:28:00       37.953       59.517       36.344       54.998       48.894       54.931     3024.802     2390.604     3017.406        0.737        0.422       70.588       21.208        0.090      343.655       19.920      866.343
05/12/2014  16:29:00      123.119      131.108      106.202       66.701       55.383       52.234     4449.030     3067.265     2728.431        2.693        0.512      179.854       40.063        0.050      343.385       19.457      866.331
05/12/2014  16:30:00      108.056       65.103       32.488       83.478       72.998       60.438     6968.538     5328.651     3652.755        1.646        0.797      126.152       34.751        0.076      343.655       19.917      866.331
05/12/2014  16:31:00       36.573      -28.263       28.984       76.149      109.020       65.811     5798.738    11885.430     4331.105        1.249        1.101       46.221       76.007        2.704      343.859       20.266      866.334
05/12/2014  16:32:00      111.172     -143.070      -21.565       67.759      114.002       57.951     4591.262    12996.431     3358.331        2.712        1.047      181.186       59.348        0.107      343.575       19.779      866.339
05/12/2014  16:33:00      151.746     -190.857      -38.190       76.552       79.650       63.714     5860.276     6344.119     4059.524        3.858        0.813      243.830       65.817        0.073      343.484       19.625      866.345
05/12/2014  16:34:00      -26.647     -139.715      -13.165       80.292       51.314       28.270     6446.783     2633.178      799.188        1.514        0.494      142.233       23.481        0.027      343.469       19.602      866.373
05/12/2014  16:35:00      -95.195     -119.757        0.593       36.777       71.311       30.453     1352.551     5085.288      927.385        1.538        0.368      152.983       30.611        0.040      343.526       19.698      866.362
05/12/2014  16:36:00      -55.200       -1.077      -13.283       52.825       41.946       32.993     2790.437     1759.456     1088.531        0.443        0.282       55.210       19.683        0.127      343.572       19.779      866.351
05/12/2014  16:37:00      -46.960      -67.928       12.767       55.745       70.141       35.966     3107.512     4919.784     1293.541        0.815        0.466       82.580       32.108        0.151      343.822       20.203      866.358
05/12/2014  16:38:00      -91.669      -22.218       -3.551       94.025       44.843       30.026     8840.693     2010.857      901.543        1.033        0.588       94.323       36.081        0.146      343.938       20.403      866.359
05/12/2014  16:39:00     -116.697      -48.147       -9.594       58.459       45.771       33.147     3417.446     2095.021     1098.712        1.132        0.331      126.239       27.220        0.046      344.043       20.582      866.346
05/12/2014  16:40:00     -195.259      -84.187       -3.186       59.916       63.884       34.271     3589.877     4081.220     1174.495        2.703        0.442      212.634       28.211        0.018      343.918       20.367      866.337
05/12/2014  16:41:00     -276.363      -85.410       -6.569       94.443       69.222       41.696     8919.506     4791.738     1738.581        4.958        0.772      289.260       42.292        0.021      343.752       20.083      866.333
05/12/2014  16:42:00     -180.844      -65.927      -32.122      108.483       48.076       33.291    11768.457     2311.339     1108.264        2.663        0.759      192.487       27.784        0.021      343.572       19.776      866.345
05/12/2014  16:43:00      -73.804       -4.081        7.555       53.876       45.293       23.310     2902.668     2051.469      543.335        0.551        0.275       73.917       24.466        0.110      344.097       20.673      866.349
05/12/2014  16:44:00        6.184      -37.682       13.446       29.684       35.096       20.406      881.140     1231.728      416.391        0.208        0.126       38.186       20.195        0.280      344.040       20.577      866.345
05/12/2014  16:45:00      -15.173      -63.078        9.693       63.506       36.926       27.255     4032.993     1363.528      742.824        0.522        0.307       64.877       12.179        0.035      343.785       20.142      866.330
05/12/2014  16:46:00      -94.028      -73.712        7.458      101.373       54.812       41.849    10276.410     3004.369     1751.369        1.468        0.752      119.477       52.694        0.195      343.885       20.313      866.314
05/12/2014  16:47:00     -181.677     -108.404       -5.417       81.931       85.384       41.036     6712.723     7290.382     1683.982        3.023        0.784      211.561       44.348        0.044      343.680       19.959      866.301
05/12/2014  16:48:00     -153.741      -37.533      -16.018       46.443       52.778       20.674     2156.949     2785.522      427.431        1.533        0.268      158.256       23.099        0.021      343.505       19.662      866.304
05/12/2014  16:49:00     -151.376      -94.777        3.626       99.081       57.170       39.828     9817.025     3268.408     1586.276        2.329        0.734      178.598       37.136        0.043      343.797       20.159      866.276
05/12/2014  16:50:00      -54.614      -82.188        3.386       52.706       50.656       31.173     2777.960     2565.997      971.771        0.803        0.316       98.679       24.794        0.063      343.811       20.187      866.261
05/12/2014  16:51:00      -17.298      -64.592       28.720       53.658       88.706       35.486     2879.191     7868.725     1259.223        0.865        0.600       66.868       32.887        0.242      344.089       20.661      866.255
05/12/2014  16:52:00      -66.897      -35.318       -6.124       39.966       42.605       23.971     1597.271     1815.202      574.598        0.487        0.199       75.648       19.315        0.065      343.837       20.231      866.242
05/12/2014  16:53:00       89.774     -197.499      -11.186      101.806      105.312       40.963    10364.406    11090.571     1677.940        3.516        1.157      216.945       45.602        0.044      343.881       20.302      866.221
05/12/2014  16:54:00      145.264     -208.642      -22.120       65.513       45.974       33.816     4291.985     2113.571     1143.545        3.633        0.377      254.230       24.450        0.009      343.729       20.041      866.218
05/12/2014  16:55:00       56.548      -93.395       17.291       60.421       90.422       46.077     3650.671     8176.067     2123.051        1.308        0.697      109.180       45.988        0.177      344.066       20.620      866.226
05/12/2014  16:56:00       49.387       57.857       78.214       54.950       57.710       44.936     3019.505     3330.393     2019.265        1.013        0.418       76.069       29.027        0.146      343.626       19.870      866.239
05/12/2014  16:57:00       99.664       88.841       75.383       80.082       71.197       52.127     6413.072     5069.055     2717.248        1.885        0.710      133.512       42.322        0.100      343.789       20.147      866.221
05/12/2014  16:58:00      130.975       91.924       63.362       97.851       51.939       55.691     9574.846     2697.655     3101.448        2.249        0.769      160.014       31.912        0.040      343.910       20.353      866.209
05/12/2014  16:59:00      173.632       78.358       22.626       96.837       75.824       70.696     9377.338     5749.354     4997.978        2.846        1.006      190.494       35.729        0.035      343.941       20.404      866.218
05/12/2014  17:00:00       29.310       96.693       -1.892       49.305       55.874       31.987     2430.985     3121.886     1023.154        0.839        0.329      101.037       29.244        0.084      344.032       20.563      866.227
05/12/2014  17:01:00      134.307      120.599        8.462      110.789       72.277       48.514    12274.119     5224.022     2353.560        2.625        0.993      180.506       31.932        0.031      343.999       20.505      866.233
05/12/2014  17:02:00      206.777      127.974       15.120       67.588       59.559       46.174     4568.180     3547.288     2132.039        3.480        0.512      243.175       21.703        0.008      343.660       19.925      866.232
05/12/2014  17:03:00       90.737       99.723       23.201       70.607       62.991       54.503     4985.334     3967.832     2970.541        1.532        0.596      134.826       27.985        0.043      343.878       20.298      866.220
05/12/2014  17:04:00      226.873      152.709       28.077       80.845       65.783       57.440     6535.950     4327.361     3299.298        4.487        0.708      273.480       44.238        0.026      343.692       19.977      866.227
05/12/2014  17:05:00      149.452       86.981       15.150       55.474       44.959       34.278     3077.368     2021.338     1175.013        1.820        0.314      172.921       25.495        0.022      343.533       19.710      866.240
05/12/2014  17:06:00       83.350       56.923       28.106       56.800       45.362       27.198     3226.236     2057.674      739.736        0.850        0.301      100.933       30.775        0.093      343.791       20.152      866.248
05/12/2014  17:07:00       40.986       41.008       22.604       35.201       36.271       38.326     1239.137     1315.562     1468.851        0.395        0.201       57.979       14.202        0.060      343.382       19.454      866.236
05/12/2014  17:08:00       66.094       30.468       19.643       37.805       41.703       29.896     1429.189     1739.165      893.779        0.487        0.203       72.778       25.298        0.121      343.340       19.381      866.225
05/12/2014  17:09:00       73.819       69.293       29.555       50.384       37.505       31.716     2538.552     1406.604     1005.910        0.804        0.248      101.246       21.624        0.046      343.321       19.350      866.221
05/12/2014  17:10:00       79.388       76.270        2.477       80.040       59.518       40.966     6406.450     3542.405     1678.235        1.187        0.581      110.089       26.637        0.059      343.820       20.199      866.220
05/12/2014  17:11:00      -26.370      120.177      -21.238       37.628       40.666       27.326     1415.846     1653.745      746.726        0.970        0.191      123.036       19.542        0.025      343.724       20.038      866.214
05/12/2014  17:12:00      -35.933       75.113        2.045       36.194       60.695       35.795     1310.038     3683.843     1281.289        0.660        0.314       83.265       32.219        0.150      343.996       20.503      866.210
05/12/2014  17:13:00      -12.301       70.464       -5.828       34.703       58.187       25.841     1204.315     3385.733      667.774        0.520        0.263       71.529       30.488        0.182      344.092       20.666      866.203
05/12/2014  17:14:00      -48.876       96.725      -24.962       46.785       73.922       26.712     2188.825     5464.465      713.534        1.037        0.418      108.373       36.449        0.113      344.225       20.894      866.184
05/12/2014  17:15:00      -63.665       -6.222       -2.890       41.782       22.933       25.159     1745.722      525.935      632.971        0.350        0.145       63.968       24.121        0.142      344.382       21.161      866.157
05/12/2014  17:16:00       17.728       56.409       -0.969       49.157       45.362       28.764     2416.416     2057.748      827.386        0.440        0.265       59.129       26.566        0.202      343.942       20.409      866.145
05/12/2014  17:17:00       88.169       -1.539       42.741      100.519       86.037       58.720    10104.165     7402.289     3448.092        1.527        1.048       88.183       54.581        0.383      343.783       20.138      866.132
05/12/2014  17:18:00       60.655        2.227       77.819       84.027      137.462       56.780     7060.545    18895.799     3223.972        1.945        1.459       60.696       69.237        1.301      343.829       20.216      866.104
05/12/2014  17:19:00       39.626        7.080       54.792       70.228       68.077       47.159     4931.914     4634.491     2223.937        0.820        0.590       40.253       39.064        0.942      343.836       20.227      866.110
05/12/2014  17:20:00      108.793      -56.781        3.737       56.706       63.596       53.741     3215.549     4044.425     2888.141        1.261        0.507      122.719       43.321        0.125      343.509       19.670      866.135
05/12/2014  17:21:00       57.342      -23.385       -3.220       28.254       56.301       33.346      798.276     3169.849     1111.983        0.446        0.254       61.927       19.893        0.103      343.760       20.098      866.141
05/12/2014  17:22:00      117.471       41.111        7.535       65.155       50.875       35.581     4245.171     2588.250     1266.001        1.182        0.405      124.457       26.634        0.046      343.812       20.188      866.144
05/12/2014  17:23:00      163.471      133.280       30.181       93.459       76.133       60.552     8734.495     5796.213     3666.491        3.179        0.910      210.918       42.964        0.041      343.788       20.143      866.140
05/12/2014  17:24:00      217.400      153.337       60.923      115.234       97.003       82.750    13278.983     9409.637     6847.548        5.201        1.477      266.036       57.835        0.047      343.763       20.101      866.119
05/12/2014  17:25:00      121.402      127.883       89.911      111.740       62.096       62.382    12485.861     3855.909     3891.502        2.970        1.012      176.331       63.617        0.130      343.891       20.319      866.122
05/12/2014  17:26:00      156.695       82.990       60.092      114.673       68.189       72.141    13149.892     4649.674     5204.378        2.902        1.150      177.315       70.769        0.159      343.643       19.898      866.117
05/12/2014  17:27:00       75.508       28.476       17.509       66.948       78.985       40.683     4482.060     6238.588     1655.072        0.959        0.619       80.699       29.388        0.133      343.757       20.094      866.103
05/12/2014  17:28:00      326.285      170.509       26.731      118.904       99.059       71.706    14138.225     9812.617     5141.817        8.267        1.455      368.151       41.183        0.013      343.922       20.373      866.121
05/12/2014  17:29:00      219.362      153.661       40.741       70.327       63.592       55.936     4945.903     4044.005     3128.892        4.275        0.606      267.828       18.679        0.005      343.745       20.069      866.136
05/12/2014  17:30:00      153.941      101.676       47.495       90.790       61.259       61.329     8242.888     3752.606     3761.279        2.602        0.788      184.488       36.044        0.038      343.838       20.228      866.140
05/12/2014  17:31:00       86.404       63.026       77.024       74.843       78.929       57.782     5601.492     6229.851     3338.749        1.627        0.759      106.948       45.088        0.178      343.608       19.838      866.140
05/12/2014  17:32:00      162.005       68.470       15.846      118.290       51.521       49.291    13992.563     2654.394     2429.638        2.513        0.954      175.880       38.785        0.049      343.583       19.795      866.133
05/12/2014  17:33:00      112.300       65.015       67.801      102.783       66.386       53.297    10564.334     4407.093     2840.520        1.962        0.891      129.762       30.888        0.057      343.836       20.228      866.135
05/12/2014  17:34:00      176.936      126.379       21.697       86.497       64.387       47.622     7481.763     4145.673     2267.858        3.082        0.695      217.435       27.824        0.016      343.748       20.074      866.146
05/12/2014  17:35:00       68.283      131.427      -20.138       83.212       84.526       33.754     6924.212     7144.577     1139.345        1.877        0.760      148.107       33.014        0.050      343.703       19.999      866.139
05/12/2014  17:36:00      128.063       98.847       19.975       36.288       26.355       22.078     1316.803      694.590      487.454        1.453        0.125      161.774        4.139        0.001      343.741       20.065      866.133
05/12/2014  17:37:00       92.974       60.226       45.804       39.585       39.038       32.138     1566.944     1523.974     1032.863        0.925        0.206      110.776       20.085        0.033      343.763       20.104      866.150
05/12/2014  17:38:00       84.671       61.674       57.719       93.828       59.140       49.153     8803.723     3497.494     2416.043        1.451        0.736      104.751       26.209        0.063      343.573       19.779      866.143
05/12/2014  17:39:00      107.009       99.634       54.970       70.542       52.237       47.240     4976.157     2728.748     2231.587        1.717        0.497      146.211       33.698        0.053      343.499       19.651      866.155
05/12/2014  17:40:00      107.044       86.286       29.681       64.141       55.976       57.390     4114.023     3133.331     3293.650        1.516        0.527      137.490       34.830        0.064      343.955       20.431      866.168
05/12/2014  17:41:00       79.592       46.681       28.936       50.913       40.834       38.608     2592.104     1667.398     1490.567        0.755        0.288       92.271       26.575        0.083      344.006       20.518      866.181
05/12/2014  17:42:00       74.490       67.964       39.780      100.044       53.195       65.456    10008.852     2829.717     4284.433        1.443        0.856      100.836       65.728        0.425      343.639       19.891      866.163
05/12/2014  17:43:00       15.902       97.468       -9.869       44.993       59.919       34.213     2024.387     3590.342     1170.547        0.832        0.339       98.756       38.281        0.150      343.972       20.460      866.146
05/12/2014  17:44:00       42.919      127.629      -15.590       52.577      110.024       39.362     2764.322    12105.179     1549.353        1.739        0.821      134.652       51.676        0.147      343.962       20.443      866.147
05/12/2014  17:45:00       90.799       78.283       69.020       78.424       66.655       53.489     6150.275     4442.943     2861.041        1.629        0.673      119.886       22.505        0.035      343.740       20.064      866.111
05/12/2014  17:46:00      108.783       96.952       61.588       64.839       52.617       48.857     4204.129     2768.566     2387.055        1.719        0.468      145.716       35.893        0.061      343.868       20.282      866.127
05/12/2014  17:47:00      118.567       86.781       28.975      110.675       69.551       51.323    12249.043     4837.301     2634.009        2.107        0.986      146.932       37.938        0.067      344.068       20.623      866.148
05/12/2014  17:48:00      123.336      100.271        2.420      114.711       71.042       53.987    13158.649     5047.006     2914.645        2.319        1.056      158.953       39.327        0.061      343.958       20.433      866.153
05/12/2014  17:49:00      115.149      110.661       12.833       63.831       61.150       45.840     4074.410     3739.374     2101.337        1.779        0.496      159.703       34.985        0.048      343.895       20.327      866.159
05/12/2014  17:50:00       62.856      104.556        2.644       61.639       69.290       47.976     3799.385     4801.055     2301.670        1.289        0.545      121.995       45.367        0.138      343.839       20.232      866.151
05/12/2014  17:51:00       27.554      181.618       -4.719       67.044      105.114       60.064     4494.920    11048.946     3607.638        2.646        0.958      183.696       67.026        0.133      343.795       20.156      866.158
05/12/2014  17:52:00       36.336      112.868        3.053       73.974       77.789       43.701     5472.119     6051.086     1909.743        1.375        0.672      118.573       39.406        0.110      343.895       20.328      866.154
05/12/2014  17:53:00       -7.682      131.420      -18.759       35.177       74.553       27.559     1237.409     5558.147      759.485        1.262        0.378      131.644       34.018        0.067      343.734       20.052      866.153
05/12/2014  17:54:00      -64.181      103.857      -28.390       24.466       69.651       18.695      598.564     4851.241      349.485        1.075        0.290      122.088       13.621        0.012      343.793       20.154      866.153
05/12/2014  17:55:00      -68.236       56.454      -18.329       46.246       50.819       31.847     2138.734     2582.587     1014.257        0.696        0.287       88.562       25.614        0.084      343.855       20.260      866.134
05/12/2014  17:56:00       -2.064       26.329        7.162       26.281       56.329       28.360      690.702     3172.963      804.316        0.271        0.233       26.410       34.131        1.670      343.934       20.395      866.126
05/12/2014  17:57:00        5.371       11.392       19.464       20.275       18.631       11.166      411.078      347.102      124.686        0.071        0.044       12.595        8.199        0.424      343.998       20.504      866.125
05/12/2014  17:58:00       10.226       54.085       -1.498       37.073       36.023       26.182     1374.391     1297.666      685.473        0.319        0.168       55.044       20.400        0.137      343.547       19.735      866.129
05/12/2014  17:59:00     -174.211       86.659      -25.888       75.550       61.840       44.246     5707.851     3824.133     1957.752        2.501        0.574      194.575       44.658        0.053      344.001       20.509      866.116
05/12/2014  18:00:00      -95.079      112.044      -26.565       76.486       76.751       44.053     5850.105     5890.679     1940.663        1.799        0.684      146.948       39.777        0.073      344.034       20.565      866.107
05/12/2014  18:01:00      175.632      109.968       26.292      102.817       91.977       79.646    10571.289     8459.695     6343.482        3.450        1.269      207.219       46.438        0.050      343.845       20.241      866.106
05/12/2014  18:02:00      193.282      122.434       22.967       82.583       52.938       50.027     6819.915     2802.479     2502.738        3.250        0.606      228.797       43.872        0.037      343.735       20.052      866.105
05/12/2014  18:03:00      156.126      128.657        7.651      110.149       71.869       50.914    12132.711     5165.155     2592.204        3.043        0.995      202.306       31.617        0.024      343.868       20.281      866.104
05/12/2014  18:04:00      157.435      136.523       16.551      118.621       89.106       78.760    14070.837     7939.914     6203.095        3.595        1.411      208.385       63.059        0.092      343.848       20.247      866.116
05/12/2014  18:05:00       67.514      144.111        1.484       93.333       88.379       67.330     8711.035     7810.914     4533.380        2.319        1.053      159.142       58.057        0.133      343.964       20.445      866.109
05/12/2014  18:06:00       93.519       96.429       11.508      104.624       72.365       61.608    10946.193     5236.674     3795.602        1.907        0.999      134.329       39.974        0.089      344.030       20.558      866.113
05/12/2014  18:07:00      199.219      144.407       25.128       98.119       81.522       81.668     9627.249     6645.766     6669.736        4.205        1.147      246.052       54.023        0.048      343.837       20.227      866.120
05/12/2014  18:08:00      131.388      121.286       12.218      101.094       69.766       57.559    10219.955     4867.340     3313.032        2.526        0.920      178.810       42.550        0.057      343.790       20.148      866.122
05/12/2014  18:09:00      155.692      129.048       30.249       92.333       74.405       58.194     8525.302     5536.036     3386.518        2.962        0.872      202.221       30.967        0.023      343.787       20.143      866.118
05/12/2014  18:10:00      179.412      142.078       44.882       92.344       61.620       59.731     8527.424     3797.047     3567.813        3.514        0.795      228.856       38.434        0.028      343.654       19.915      866.127
05/12/2014  18:11:00       22.641      -20.370       39.890       65.539       78.038       47.214     4295.316     6089.969     2229.205        0.756        0.631       30.455       13.155        0.187      343.224       19.185      866.117
05/12/2014  18:12:00       13.606      -64.869       -1.018       32.520       43.787       31.304     1057.540     1917.319      979.924        0.417        0.198       66.280       20.653        0.097      343.001       18.807      866.120
05/12/2014  18:13:00       29.365      -12.224        2.864       43.077       45.765       29.127     1855.646     2094.466      848.390        0.291        0.240       31.807       28.181        0.785      343.259       19.244      866.121
05/12/2014  18:14:00       62.076       84.481        1.795       59.140       59.368       30.679     3497.544     3524.541      941.189        0.948        0.398      104.835       31.861        0.092      343.546       19.732      866.143
05/12/2014  18:15:00       65.416       73.049        2.625       58.663       59.295       34.110     3441.404     3515.954     1163.492        0.887        0.406       98.058       25.677        0.069      343.777       20.128      866.143
05/12/2014  18:16:00       21.664       96.267       -2.110       72.070       48.333       36.145     5194.030     2336.053     1306.426        0.929        0.442       98.675       36.129        0.134      343.793       20.154      866.137
05/12/2014  18:17:00       24.362      140.417      -28.638       47.838       62.368       23.572     2288.522     3889.800      555.616        1.393        0.337      142.514       24.186        0.029      343.903       20.341      866.139
05/12/2014  18:18:00        3.299      165.370      -20.172       49.581       74.019       33.357     2458.287     5478.831     1112.675        1.841        0.452      165.403       36.522        0.049      343.894       20.325      866.142
05/12/2014  18:19:00       -6.225      201.163      -27.045       37.468       63.911       30.254     1403.888     4084.568      915.318        2.382        0.320      201.260       26.944        0.018      343.923       20.376      866.148
05/12/2014  18:20:00      -38.992      204.440      -22.333       27.141       42.800       23.688      736.646     1831.858      561.115        2.347        0.156      208.125       19.688        0.009      343.784       20.139      866.140
05/12/2014  18:21:00      -50.863      245.279      -35.555       62.307       47.508       29.396     3882.213     2257.016      864.118        3.551        0.350      250.497       25.105        0.010      343.848       20.245      866.150
05/12/2014  18:22:00       31.156      234.729      -31.452       42.455       56.052       34.719     1802.423     3141.879     1205.388        3.160        0.307      236.787       31.109        0.017      343.861       20.269      866.156
05/12/2014  18:23:00      -53.833      166.014      -25.790       37.510       44.232       25.839     1407.010     1956.429      667.636        1.758        0.202      174.523       19.611        0.013      343.748       20.078      866.150
05/12/2014  18:24:00       31.777      123.630        0.591       66.843       76.759       50.729     4467.927     5891.877     2573.399        1.461        0.647      127.649       49.712        0.152      343.824       20.207      866.152
05/12/2014  18:25:00       22.322      203.532      -20.982       46.425      116.920       48.969     2155.275    13670.384     2398.000        3.029        0.911      204.752       64.698        0.100      343.899       20.333      866.156
05/12/2014  18:26:00       15.059      267.231      -44.237       62.857       62.708       30.385     3950.975     3932.297      923.249        4.120        0.440      267.655       27.663        0.011      343.852       20.251      866.158
05/12/2014  18:27:00      -35.201      191.557      -33.694       39.938       83.429       27.376     1595.038     6960.374      749.447        2.418        0.465      194.765       38.987        0.040      343.747       20.074      866.158
05/12/2014  18:28:00      -39.426      115.907      -28.458       77.764       47.025       31.677     6047.285     2211.390     1003.435        1.253        0.463      122.429       25.364        0.043      343.856       20.262      866.132
05/12/2014  18:29:00      -71.087      206.416      -26.654       46.212       61.548       35.940     2135.555     3788.206     1291.671        2.779        0.361      218.314       31.285        0.021      343.864       20.273      866.125
05/12/2014  18:30:00      -25.293      209.224      -29.484       27.531       40.902       17.143      757.958     1672.941      293.874        2.400        0.136      210.747       12.641        0.004      343.726       20.038      866.109
05/12/2014  18:31:00        9.586      161.184      -24.102       40.743       58.591       25.430     1659.986     3432.958      646.700        1.620        0.287      161.469       27.571        0.029      343.790       20.149      866.094
05/12/2014  18:32:00       -6.014       22.733       24.500       42.138       41.568       23.961     1775.592     1727.891      574.137        0.261        0.204       23.515       20.510        0.761      344.127       20.725      866.082
05/12/2014  18:33:00       44.008       20.336       15.767       38.917       37.904       21.722     1514.526     1436.728      471.839        0.301        0.171       48.479        8.788        0.033      343.664       19.936      866.068
05/12/2014  18:34:00       84.607       89.078       -5.140       45.693       49.026       31.496     2087.866     2403.551      992.016        1.030        0.274      122.855       31.378        0.065      343.442       19.557      866.066
05/12/2014  18:35:00       46.137      149.619       -5.917       37.363       54.865       41.849     1396.021     3010.201     1751.341        1.535        0.308      156.571       39.808        0.065      343.729       20.044      866.088
05/12/2014  18:36:00       80.876       72.734       50.968       68.466       46.295       47.794     4687.635     2143.249     2284.310        1.177        0.456      108.771       35.991        0.109      343.392       19.470      866.094
05/12/2014  18:37:00       88.104       69.453       49.810       62.576       62.494       40.580     3915.762     3905.455     1646.754        1.227        0.473      112.188       46.906        0.175      343.623       19.866      866.092
05/12/2014  18:38:00        1.630       22.075       44.919       25.914       62.876       53.735      671.539     3953.420     2887.432        0.501        0.376       22.136       52.407        5.605      343.546       19.735      866.098
05/12/2014  18:39:00       30.145       22.600       50.661       68.378       74.142       54.722     4675.600     5496.964     2994.445        0.857        0.658       37.676       46.442        1.519      343.423       19.525      866.100
05/12/2014  18:40:00       54.512       38.199       11.799       56.006       28.524       30.244     3136.683      813.637      914.684        0.472        0.243       66.564       17.268        0.067      343.613       19.847      866.106
05/12/2014  18:41:00       43.131       52.424       -1.677       63.990       42.187       33.844     4094.760     1779.713     1145.390        0.581        0.351       67.887       22.942        0.114      343.711       20.014      866.108
05/12/2014  18:42:00       13.833       85.452        1.053       44.868       63.834       29.701     2013.129     4074.732      882.153        0.723        0.349       86.565       25.371        0.086      343.782       20.136      866.096
05/12/2014  18:43:00       24.196       42.306        8.070       54.208       40.570       29.198     2938.486     1645.948      852.501        0.394        0.272       48.736       19.027        0.152      343.591       19.811      866.094
05/12/2014  18:44:00       37.172      128.097        0.754       68.683       80.320       47.399     4717.418     6451.360     2246.652        1.560        0.671      133.382       56.004        0.176      343.881       20.303      866.103
05/12/2014  18:45:00       90.718       60.670       27.455       82.696       47.998       45.085     6838.635     2303.847     2032.614        1.192        0.559      109.135       17.442        0.026      343.852       20.255      866.106
05/12/2014  18:46:00       60.218      181.675       -8.009       55.938      138.417       55.369     3129.111    19159.324     3065.712        3.102        1.268      191.395       72.899        0.145      343.756       20.089      866.110
05/12/2014  18:47:00        9.118      239.495      -23.304       62.908      110.831       59.707     3957.363    12283.609     3564.941        3.889        0.990      239.669       59.170        0.061      343.753       20.084      866.113
05/12/2014  18:48:00       12.174      218.988       -0.808      130.746       80.730       67.626    17094.535     6517.401     4573.261        3.814        1.409      219.327       64.809        0.087      343.785       20.139      866.124
05/12/2014  18:49:00       82.952       74.807       28.939      135.470       93.718       51.237    18352.186     8782.994     2625.251        2.153        1.488      111.701       46.959        0.177      343.754       20.088      866.150
05/12/2014  18:50:00       54.422      187.995      -15.716       83.363      114.323       52.884     6949.370    13069.679     2796.741        3.068        1.141      195.713       61.019        0.097      343.741       20.063      866.168
05/12/2014  18:51:00       76.333      214.056      -18.194       89.871      108.250       71.937     8076.837    11717.997     5174.976        3.847        1.248      227.259       59.581        0.069      343.692       19.979      866.175
05/12/2014  18:52:00       45.611      241.475      -32.734       69.943       89.839       56.829     4892.048     8071.050     3229.585        3.882        0.810      245.745       56.284        0.052      343.689       19.973      866.182
05/12/2014  18:53:00       30.727      160.779        3.598       71.156       98.410       57.046     5063.198     9684.522     3254.265        2.240        0.900      163.689       59.962        0.134      343.735       20.055      866.181
05/12/2014  18:54:00       37.933      130.908       -8.427       53.089       82.077       49.634     2818.440     6736.567     2463.561        1.533        0.601      136.294       52.520        0.148      343.711       20.013      866.190
05/12/2014  18:55:00       59.745      155.255      -16.154       52.656       89.447       44.725     2772.636     8000.854     2000.308        2.035        0.639      166.354       50.988        0.094      343.701       19.997      866.198
05/12/2014  18:56:00       65.932       99.785        4.030       66.255       72.905       60.703     4389.780     5315.203     3684.907        1.385        0.669      119.600       43.922        0.135      343.696       19.989      866.196
05/12/2014  18:57:00       71.000      116.000        9.917       84.910       86.531       54.149     7209.686     7487.538     2932.100        1.811        0.881      136.004       43.326        0.101      343.674       19.951      866.204
05/12/2014  18:58:00       47.702      138.190        2.874       75.229       91.537       62.412     5659.412     8378.992     3895.265        1.965        0.897      146.191       60.269        0.170      343.691       19.980      866.219
05/12/2014  18:59:00       -2.736      203.164      -34.656       60.997       78.379       31.809     3720.574     6143.300     1011.800        2.668        0.544      203.182       26.508        0.017      343.766       20.106      866.247
05/12/2014  19:00:00      -11.944      214.143      -26.256       50.984       61.384       31.946     2599.402     3767.988     1020.565        2.704        0.369      214.476       33.975        0.025      343.748       20.075      866.257
05/12/2014  19:01:00        7.000      273.172      -41.995       83.055      101.191       29.045     6898.135    10239.712      843.595        4.720        0.899      273.261       35.438        0.017      343.683       19.964      866.279
05/12/2014  19:02:00      -29.653      277.774      -23.617       54.862      153.783       47.589     3009.845    23649.163     2264.704        5.375        1.446      279.352       73.137        0.069      343.657       19.919      866.283
05/12/2014  19:03:00      -51.484      270.101      -36.239       45.167       63.407       24.534     2040.025     4020.423      601.933        4.179        0.333      274.963       24.091        0.008      343.681       19.958      866.273
05/12/2014  19:04:00       88.974      159.696       -5.648       93.895       93.600       46.926     8816.319     8760.991     2202.077        2.661        0.989      182.809       51.917        0.081      343.662       19.929      866.278
05/12/2014  19:05:00      139.609      208.436        3.124      112.339      110.940       70.869    12620.015    12307.744     5022.453        4.644        1.498      250.871       70.653        0.079      343.588       19.803      866.272
05/12/2014  19:06:00      103.805      157.549       13.205       89.789       98.135       66.899     8062.011     9630.431     4475.525        2.897        1.108      188.672       57.612        0.093      343.627       19.870      866.263
05/12/2014  19:07:00       21.829      138.557        7.488       64.428       84.838       63.445     4150.970     7197.447     4025.330        1.755        0.769      140.266       52.232        0.139      343.636       19.886      866.272
05/12/2014  19:08:00       33.767      238.075      -20.085       75.845      128.430       55.168     5752.472    16494.148     3043.459        4.175        1.265      240.458       69.038        0.082      343.628       19.869      866.286
05/12/2014  19:09:00       80.869      196.417      -27.710       57.783       90.285       50.387     3338.918     8151.456     2538.870        2.996        0.701      212.414       51.287        0.058      343.637       19.886      866.297
05/12/2014  19:10:00      109.628      144.676       26.919       91.063       73.801       61.903     8292.462     5446.550     3831.932        2.562        0.879      181.520       48.580        0.072      343.605       19.832      866.293
05/12/2014  19:11:00       82.533      119.740       12.704       67.672       66.933       43.950     4579.509     4480.007     1931.566        1.615        0.550      145.428       43.027        0.088      343.543       19.728      866.294
05/12/2014  19:12:00      102.299       92.826       -0.297       63.151       85.639       47.863     3988.012     7334.070     2290.834        1.634        0.681      138.137       38.884        0.079      343.555       19.748      866.315
05/12/2014  19:13:00      126.587       94.939        4.267       64.580       76.821       44.215     4170.562     5901.526     1954.990        1.854        0.601      158.233       41.950        0.070      343.460       19.585      866.331
05/12/2014  19:14:00      136.076      106.230        9.467       87.487       80.322       66.330     7653.977     6451.548     4399.628        2.419        0.925      172.631       54.479        0.100      343.534       19.711      866.338
05/12/2014  19:15:00       87.290      256.506      -17.426       93.338      159.616       86.098     8711.925    25477.341     7412.916        5.765        2.080      270.952       88.918        0.108      343.468       19.600      866.358
05/12/2014  19:16:00       93.923      225.538        5.147      110.189      149.922      100.786    12141.548    22476.665    10157.748        5.224        2.239      244.314       97.548        0.159      343.420       19.518      866.359
05/12/2014  19:17:00      102.033      205.922      -17.765      118.077      126.959       87.874    13942.153    16118.708     7721.830        4.545        1.889      229.815       78.806        0.118      343.382       19.451      866.361
05/12/2014  19:18:00       69.138      207.146       -2.325      116.829      118.709       74.261    13649.085    14091.848     5514.738        4.047        1.663      218.379       67.709        0.096      343.378       19.445      866.377
05/12/2014  19:19:00       27.754      207.392      -12.576       78.235      119.970       63.116     6120.768    14392.882     3983.605        3.421        1.225      209.241       60.872        0.085      343.368       19.430      866.402
05/12/2014  19:20:00       61.550      233.708       -4.376       74.685      190.031       82.248     5577.830    36111.824     6764.698        5.343        2.423      241.677      100.874        0.174      343.337       19.376      866.393
05/12/2014  19:21:00       55.161      242.339      -23.504       80.037      120.300       67.170     6405.913    14472.106     4511.833        4.385        1.269      248.538       62.373        0.063      343.344       19.388      866.387
05/12/2014  19:22:00       73.764      324.303      -37.295       98.501      130.593       85.695     9702.409    17054.589     7343.710        7.305        1.705      332.586       85.891        0.067      343.337       19.375      866.401
05/12/2014  19:23:00       85.567      293.902      -36.880      103.910      158.111       82.778    10797.277    24999.165     6852.233        6.885        2.132      306.104       77.709        0.064      343.329       19.360      866.418
05/12/2014  19:24:00       93.449      248.250      -22.149       92.562      130.335       76.338     8567.652    16987.114     5827.499        5.111        1.569      265.256       82.293        0.096      343.309       19.325      866.419
05/12/2014  19:25:00       64.061      181.758        5.415       92.375      149.740       92.065     8533.072    22421.967     8475.974        3.829        1.972      192.716       77.242        0.161      343.296       19.305      866.425
05/12/2014  19:26:00       73.695      170.419        5.172       84.778      121.409       82.027     7187.370    14740.050     6728.398        3.157        1.433      185.671       78.714        0.180      343.281       19.279      866.437
05/12/2014  19:27:00       58.909      272.355      -27.504       83.111      131.463       76.586     6907.370    17282.617     5865.461        5.422        1.503      278.653       83.916        0.091      343.265       19.252      866.441
05/12/2014  19:28:00       56.217      176.757       -9.115       78.844      106.691       69.705     6216.311    11383.005     4858.759        2.847        1.123      185.481       68.468        0.136      343.257       19.239      866.450
05/12/2014  19:29:00       54.099      153.738      -17.269       88.972       84.903       61.290     7916.018     7208.516     3756.473        2.287        0.944      162.979       55.172        0.115      343.245       19.217      866.469
05/12/2014  19:30:00       78.579      204.732      -24.000       61.077       96.182       52.061     3730.356     9251.060     2710.372        3.218        0.785      219.294       60.397        0.076      343.225       19.182      866.487
05/12/2014  19:31:00       65.766      209.218      -25.636       82.610      122.812       62.999     6824.483    15082.749     3968.896        3.731        1.294      219.311       63.116        0.083      343.180       19.108      866.492
05/12/2014  19:32:00      186.436      208.010       -8.448      124.390      122.025       90.801    15472.966    14890.093     8244.757        5.835        1.930      279.332       75.460        0.073      343.167       19.084      866.498
05/12/2014  19:33:00       80.162      209.141       -8.396       90.105      111.998       74.297     8118.910    12543.625     5519.970        3.820        1.309      223.978       67.499        0.091      343.141       19.040      866.523
05/12/2014  19:34:00       75.433      151.549       -2.830       65.109       93.030       63.477     4239.189     8654.531     4029.273        2.279        0.846      169.284       58.655        0.120      343.135       19.031      866.540
05/12/2014  19:35:00       18.040      197.013       -4.876       84.710      137.914       67.453     7175.812    19020.213     4549.876        3.495        1.537      197.837       75.167        0.144      343.129       19.021      866.554
05/12/2014  19:36:00       52.350      128.101       -6.038       65.929       66.293       49.059     4346.670     4394.709     2406.765        1.517        0.557      138.385       42.104        0.093      343.069       18.920      866.558
05/12/2014  19:37:00       61.784      220.801       -9.217       97.895      137.504       86.671     9583.426    18907.443     7511.926        4.432        1.800      229.282       85.947        0.141      343.093       18.959      866.555
05/12/2014  19:38:00       32.351      229.187      -27.355       60.903       73.778       40.102     3709.141     5443.222     1608.136        3.254        0.538      231.459       33.607        0.021      343.069       18.918      866.567
05/12/2014  19:39:00       67.568      261.055      -27.526      103.141      112.851       60.480    10638.136    12735.385     3657.861        5.025        1.352      269.657       62.923        0.054      343.064       18.910      866.558
05/12/2014  19:40:00       87.186      173.535       -5.920      128.973      123.135       86.847    16634.157    15162.332     7542.403        3.854        1.967      194.206       74.659        0.148      343.061       18.904      866.560
05/12/2014  19:41:00       71.269      164.354      -16.483       77.824       94.654       61.452     6056.540     8959.390     3776.407        2.557        0.940      179.141       56.769        0.100      343.034       18.859      866.565
05/12/2014  19:42:00       81.835      169.691      -10.617       96.075      126.069       62.884     9230.501    15893.371     3954.393        3.234        1.454      188.393       72.934        0.150      343.032       18.855      866.582
05/12/2014  19:43:00       58.322      197.750      -19.482       79.452      128.072       68.732     6312.554    16402.316     4724.144        3.516        1.372      206.171       78.558        0.145      343.041       18.872      866.584
05/12/2014  19:44:00       66.929      230.083      -11.525       84.807      140.324       73.360     7192.293    19690.921     5381.762        4.490        1.613      239.620       80.478        0.113      343.030       18.852      866.599
05/12/2014  19:45:00       36.678      126.610      -11.258       65.954       85.313       52.208     4349.928     7278.248     2725.700        1.593        0.718      131.815       51.473        0.152      342.982       18.771      866.604
05/12/2014  19:46:00        9.980      148.093       -2.746       57.685       87.178       47.461     3327.509     7600.051     2252.565        1.761        0.659      148.429       46.036        0.096      342.986       18.778      866.613
05/12/2014  19:47:00       46.926      218.960      -26.069       53.057       96.642       57.549     2815.060     9339.752     3311.852        3.314        0.773      223.932       58.618        0.069      343.004       18.807      866.601
05/12/2014  19:48:00       46.172      156.649      -12.976       64.829       73.619       50.398     4202.746     5419.774     2539.987        1.950        0.608      163.312       43.846        0.072      342.958       18.731      866.602
05/12/2014  19:49:00       76.839      152.763       -9.444       69.445      122.877       63.779     4822.596    15098.672     4067.712        2.665        1.199      170.999       64.263        0.141      342.932       18.685      866.612
05/12/2014  19:50:00       48.440      289.946      -34.191       94.848      108.520       69.395     8996.069    11776.482     4815.693        5.658        1.279      293.965       68.780        0.055      342.950       18.715      866.617
05/12/2014  19:51:00       58.109      190.704      -13.262       66.534       96.621       58.931     4426.797     9335.570     3472.892        2.857        0.862      199.360       61.368        0.095      342.924       18.672      866.633
05/12/2014  19:52:00       38.503      155.303       -4.504       57.732       84.450       54.221     3332.994     7131.776     2939.865        1.951        0.670      160.005       55.721        0.121      342.878       18.593      866.653
05/12/2014  19:53:00       41.029      187.396      -10.808       61.679       93.453       57.192     3804.357     8733.475     3270.926        2.636        0.790      191.835       61.336        0.102      342.901       18.633      866.661
05/12/2014  19:54:00       63.986      110.746       17.041       68.278       54.340       48.935     4661.927     2952.835     2394.605        1.333        0.500      127.902       40.823        0.102      342.855       18.556      866.677
05/12/2014  19:55:00       42.931      170.140      -13.536       59.215       89.804       46.802     3506.417     8064.774     2190.397        2.236        0.688      175.472       47.818        0.074      342.843       18.533      866.695
05/12/2014  19:56:00       51.106      123.714       -2.248       52.263       77.481       54.398     2731.461     6003.312     2959.097        1.481        0.585      133.854       46.219        0.119      342.822       18.499      866.703
05/12/2014  19:57:00       83.669       96.692       22.538      105.172       77.179       70.655    11061.190     5956.636     4992.175        1.943        1.101      127.866       51.969        0.165      342.819       18.494      866.724
05/12/2014  19:58:00       62.789      167.914      -10.544       72.146      106.271       64.946     5205.113    11293.604     4217.933        2.648        1.036      179.270       66.754        0.139      342.787       18.439      866.732
05/12/2014  19:59:00       79.453      150.882       -6.402       72.315      104.895       58.971     5229.393    11002.913     3477.588        2.441        0.985      170.523       62.885        0.136      342.763       18.398      866.736
05/12/2014  20:00:00       89.699      123.644        4.680       70.485       88.044       62.764     4968.113     7751.693     3939.291        2.000        0.833      152.754       57.261        0.141      342.768       18.407      866.743
05/12/2014  20:01:00       65.433      153.571       -4.773       65.376       81.247       58.367     4274.074     6601.126     3406.733        2.108        0.714      166.930       57.649        0.119      342.761       18.394      866.734
05/12/2014  20:02:00       59.344       96.998       16.092       65.919       75.377       67.191     4345.292     5681.663     4514.583        1.386        0.727      113.712       50.052        0.194      342.738       18.357      866.732
05/12/2014  20:03:00       59.457      195.087      -23.376       55.166       88.814       52.120     3043.288     7887.887     2716.529        2.789        0.682      203.946       51.833        0.065      342.746       18.370      866.732
05/12/2014  20:04:00       61.237      110.528        6.861       67.457       98.917       53.510     4550.508     9784.566     2863.295        1.660        0.860      126.358       60.803        0.232      342.729       18.341      866.737
05/12/2014  20:05:00       46.271      155.099       -5.877       77.076      107.007       61.421     5940.770    11450.510     3772.554        2.369        1.058      161.853       54.414        0.113      342.747       18.371      866.730
05/12/2014  20:06:00       45.085      138.486       -6.232       59.623       79.739       51.451     3554.903     6358.284     2647.225        1.690        0.628      145.640       44.470        0.093      342.698       18.289      866.737
05/12/2014  20:07:00       37.765      248.479      -29.342       60.771       84.062       51.001     3693.054     7066.380     2601.127        3.869        0.668      251.333       48.160        0.037      342.717       18.318      866.745
05/12/2014  20:08:00       23.099      222.004      -20.691       64.695      110.898       48.802     4185.405    12298.285     2381.668        3.455        0.943      223.202       57.517        0.066      342.718       18.320      866.750
05/12/2014  20:09:00       35.363      145.156       -7.079       50.285       82.956       46.805     2528.623     6881.644     2190.734        1.698        0.580      149.402       47.398        0.101      342.655       18.215      866.755
05/12/2014  20:10:00       68.863      172.040       -9.000       71.050      112.042       70.800     5048.138    12553.433     5012.697        2.851        1.131      185.310       65.233        0.124      342.686       18.266      866.762
05/12/2014  20:11:00       41.276      294.928      -43.151       65.164      114.571       47.544     4246.340    13126.571     2260.388        5.509        0.982      297.802       45.355        0.023      342.705       18.298      866.776
05/12/2014  20:12:00       31.785      187.788        1.576       68.159      107.935       65.669     4645.637    11650.056     4312.392        2.844        1.030      190.459       64.462        0.115      342.668       18.236      866.785
05/12/2014  20:13:00       67.694      155.641        8.202       87.501      123.371       76.818     7656.479    15220.425     5901.067        2.882        1.439      169.725       76.749        0.204      342.638       18.186      866.797
05/12/2014  20:14:00       62.432      257.188      -21.529       71.299      159.257       67.051     5083.610    25362.875     4495.842        5.272        1.747      264.657       71.597        0.073      342.674       18.248      866.806
05/12/2014  20:15:00       56.655      102.884       11.269       70.328       77.093       57.565     4945.971     5943.313     3313.773        1.406        0.710      117.452       32.733        0.078      342.570       18.071      866.825
05/12/2014  20:16:00       46.710      148.738       -2.585       68.997      116.877       60.629     4760.576    13660.139     3675.855        2.320        1.105      155.900       69.328        0.198      342.566       18.065      866.844
05/12/2014  20:17:00       97.863      121.225       20.737      102.710      104.264       80.784    10549.359    10870.973     6525.988        2.632        1.397      155.797       69.090        0.197      342.588       18.101      866.850
05/12/2014  20:18:00       24.882      227.664      -32.700       50.117      121.225       45.817     2511.723    14695.505     2099.174        3.641        0.965      229.020       50.964        0.050      342.590       18.103      866.868
05/12/2014  20:19:00       38.931      226.369      -19.970       63.483      125.388       71.664     4030.039    15722.253     5135.689        3.902        1.244      229.692       67.195        0.086      342.571       18.071      866.874
05/12/2014  20:20:00       55.857      236.304      -26.201       81.230      128.500       68.844     6598.270    16512.145     4739.438        4.374        1.392      242.816       74.920        0.095      342.564       18.060      866.887
05/12/2014  20:21:00       49.766      178.779        4.864       61.881      139.046       69.055     3829.201    19333.818     4768.526        3.119        1.397      185.577       81.708        0.194      342.515       17.976      866.907
05/12/2014  20:22:00       36.439      257.295      -24.658       68.987      119.611       62.246     4759.165    14306.910     3874.579        4.553        1.147      259.863       74.129        0.081      342.511       17.969      866.928
05/12/2014  20:23:00       21.494      162.350       -5.275       76.928      105.065       67.644     5917.940    11038.701     4575.662        2.419        1.077      163.767       64.529        0.155      342.480       17.918      866.949
05/12/2014  20:24:00       17.087      249.850      -31.167       64.966       89.376       47.636     4220.602     7988.132     2269.192        3.908        0.724      250.433       42.219        0.028      342.503       17.955      866.972
05/12/2014  20:25:00       49.774      297.712      -39.368       68.461      138.679       57.235     4686.842    19231.819     3275.881        5.992        1.360      301.844       72.199        0.057      342.514       17.974      866.991
05/12/2014  20:26:00       15.012      244.503      -31.960       59.509       70.163       40.732     3541.319     4922.879     1659.085        3.557        0.506      244.964       32.564        0.018      342.477       17.911      867.002
05/12/2014  20:27:00       25.088      198.649      -10.547       73.356      121.757       58.942     5381.069    14824.732     3474.113        3.194        1.184      200.227       70.496        0.124      342.448       17.862      867.010
05/12/2014  20:28:00       75.473      177.395      -10.442       94.431      114.864       77.154     8917.262    13193.844     5952.724        3.266        1.403      192.783       75.801        0.155      342.426       17.824      867.026
05/12/2014  20:29:00       49.137      196.723      -27.953       78.865      122.046       66.663     6219.629    14895.296     4444.014        3.372        1.278      202.766       56.903        0.079      342.433       17.837      867.038
05/12/2014  20:30:00       30.814      262.707      -36.682       65.492      114.884       56.953     4289.178    13198.244     3243.668        4.602        1.037      264.508       67.327        0.065      342.438       17.844      867.047
05/12/2014  20:31:00       34.419      157.659      -14.776       60.030      121.954       52.896     3603.605    14872.769     2798.014        2.376        1.064      161.373       59.057        0.134      342.392       17.769      867.056
05/12/2014  20:32:00       30.735      190.337       -9.820       63.172       94.048       54.148     3990.759     8844.959     2932.023        2.652        0.788      192.803       57.665        0.089      342.394       17.771      867.065
05/12/2014  20:33:00       33.715      246.766      -33.425       48.982       88.917       41.176     2399.221     7906.187     1695.499        3.757        0.600      249.058       37.712        0.023      342.397       17.775      867.081
05/12/2014  20:34:00       48.738      163.672       -5.809       61.579       93.503       59.238     3791.923     8742.755     3509.115        2.262        0.802      170.775       51.198        0.090      342.348       17.692      867.084
05/12/2014  20:35:00       40.121      203.815      -16.548       83.680      112.064       58.656     7002.262    12558.442     3440.523        3.321        1.150      207.726       66.881        0.104      342.354       17.702      867.093
05/12/2014  20:36:00       61.102      182.383       -6.043       67.715      129.140       64.992     4585.384    16677.024     4224.007        3.125        1.274      192.346       78.419        0.166      342.353       17.702      867.104
05/12/2014  20:37:00       67.344      186.610      -19.615       54.155       99.392       56.186     2932.781     9878.703     3156.859        2.785        0.798      198.390       56.606        0.081      342.337       17.675      867.111
05/12/2014  20:38:00       89.043      204.071      -15.533       77.594      131.019       60.474     6020.843    17165.862     3657.059        3.832        1.342      222.652       71.988        0.105      342.314       17.636      867.119
05/12/2014  20:39:00       40.841      200.746       -5.558       77.536      134.662       64.723     6011.809    18133.924     4189.092        3.516        1.417      204.859       73.036        0.127      342.301       17.612      867.140
05/12/2014  20:40:00       79.645      197.780        1.961       85.572      130.552       80.191     7322.500    17043.955     6430.612        3.812        1.540      213.214       88.483        0.172      342.290       17.594      867.145
05/12/2014  20:41:00       50.893      155.600       -5.991       84.241       97.490       62.265     7096.506     9504.366     3876.941        2.365        1.024      163.712       61.124        0.139      342.250       17.526      867.156
05/12/2014  20:42:00       50.521      139.800      -12.144       65.995       78.864       50.286     4355.397     6219.547     2528.731        1.767        0.655      148.649       45.178        0.092      342.231       17.496      867.154
05/12/2014  20:43:00       51.878      272.025      -37.770       66.466      136.285       50.525     4417.733    18573.708     2552.817        5.182        1.277      276.928       61.958        0.050      342.271       17.560      867.168
05/12/2014  20:44:00       86.917      134.936        9.726       88.254       61.393       53.738     7788.819     3769.144     2887.759        2.015        0.722      160.506       41.063        0.065      342.237       17.504      867.169
05/12/2014  20:45:00       48.215      193.854      -24.540       65.621       78.689       45.448     4306.119     6191.920     2065.560        2.653        0.628      199.760       46.906        0.055      342.227       17.486      867.181
05/12/2014  20:46:00       82.962      175.837       -3.763       85.413      102.086       71.902     7295.375    10421.480     5169.941        3.035        1.144      194.426       67.439        0.120      342.207       17.452      867.199
05/12/2014  20:47:00       24.411      220.333      -12.725       79.804      140.512       69.388     6368.695    19743.601     4814.743        4.011        1.546      221.681       82.548        0.139      342.233       17.497      867.208
05/12/2014  20:48:00       39.721      163.631       -6.612       62.563       99.209       55.437     3914.180     9842.427     3073.268        2.261        0.841      168.383       60.782        0.130      342.189       17.421      867.216
05/12/2014  20:49:00       50.123      106.000        3.759       73.131       67.723       58.120     5348.162     4586.431     3377.932        1.353        0.666      117.254       42.114        0.129      342.147       17.353      867.215
05/12/2014  20:50:00       49.108      141.103       -5.976       69.694       77.442       46.344     4857.222     5997.187     2147.811        1.768        0.650      149.405       44.209        0.088      342.141       17.341      867.229
05/12/2014  20:51:00       37.114      196.965       -7.095       57.662      111.708       62.091     3324.861    12478.647     3855.314        2.994        0.983      200.431       62.827        0.098      342.177       17.401      867.231
05/12/2014  20:52:00       52.178      240.010      -25.692       72.845      153.276       71.270     5306.323    23493.430     5079.429        4.743        1.694      245.617       83.342        0.115      342.203       17.446      867.251
05/12/2014  20:53:00       69.991      162.500        3.550       88.711      112.860       79.337     7869.671    12737.342     6294.354        2.910        1.345      176.932       78.914        0.199      342.195       17.434      867.260
05/12/2014  20:54:00       25.337      153.980      -11.852       59.514       75.690       49.985     3541.939     5729.048     2498.455        1.813        0.588      156.051       44.900        0.083      342.138       17.337      867.292
05/12/2014  20:55:00       56.603      167.611       -4.772       90.766       86.986       61.258     8238.404     7566.632     3752.540        2.544        0.978      176.911       55.079        0.097      342.147       17.351      867.308
05/12/2014  20:56:00       45.090      151.378        1.764       74.305      106.281       62.460     5521.182    11295.557     3901.232        2.283        1.036      157.950       62.285        0.155      342.128       17.319      867.321
05/12/2014  20:57:00       50.739      174.182        1.149       79.123      119.174       64.580     6260.425    14202.420     4170.522        2.877        1.232      181.422       75.930        0.175      342.147       17.351      867.332
05/12/2014  20:58:00       59.058      187.319       -7.588       67.815       97.755       66.329     4598.836     9556.034     4399.471        2.859        0.928      196.409       67.054        0.117      342.118       17.301      867.339
05/12/2014  20:59:00       61.505      176.681       -8.327       56.763       95.351       55.585     3222.050     9091.725     3089.704        2.523        0.770      187.080       51.763        0.077      342.099       17.270      867.353
05/12/2014  21:00:00       53.678      142.145       -8.421       46.303       70.792       43.804     2143.964     5011.572     1918.801        1.611        0.454      151.942       42.787        0.079      342.056       17.197      867.356
05/12/2014  21:01:00       32.294      121.757       -2.204       57.957       79.676       50.102     3358.990     6348.197     2510.161        1.404        0.611      125.967       38.445        0.093      342.065       17.213      867.373
05/12/2014  21:02:00       42.893      211.892      -15.112       78.646       98.066       56.492     6185.154     9617.038     3191.367        3.298        0.950      216.190       54.954        0.065      342.081       17.239      867.383
05/12/2014  21:03:00       72.715      145.906       -5.947       67.629       63.290       43.409     4573.630     4005.638     1884.361        1.854        0.523      163.022       30.294        0.035      342.086       17.250      867.406
05/12/2014  21:04:00       52.908       89.047       14.609       61.485       62.629       45.268     3780.386     3922.355     2049.159        1.035        0.488      103.579       36.656        0.125      341.994       17.094      867.418
05/12/2014  21:05:00       56.871      185.368      -14.156       64.354       81.857       56.578     4141.463     6700.512     3201.026        2.592        0.702      193.896       50.698        0.068      342.072       17.224      867.447
05/12/2014  21:06:00       52.013       98.918        4.932       59.450       74.262       39.960     3534.347     5514.791     1596.763        1.158        0.532      111.759       36.253        0.105      341.977       17.064      867.460
05/12/2014  21:07:00       94.112      155.622       -9.182       90.267       81.761       53.617     8148.176     6684.847     2874.805        2.543        0.885      181.866       47.341        0.068      342.028       17.149      867.469
05/12/2014  21:08:00       69.136      148.506        2.704       68.924       79.223       49.393     4750.580     6276.353     2439.648        2.015        0.673      163.811       49.853        0.093      341.970       17.052      867.496
05/12/2014  21:09:00       46.345      189.059       -8.510       64.146      129.089       63.082     4114.745    16663.896     3979.322        3.136        1.238      194.657       72.482        0.139      342.001       17.101      867.498
05/12/2014  21:10:00       22.023      283.292      -38.894       50.370       63.606       37.792     2537.157     4045.687     1428.235        4.513        0.401      284.147       29.556        0.011      342.039       17.165      867.515
05/12/2014  21:11:00       41.737      178.506      -12.960       56.545       88.045       51.144     3197.297     7751.894     2615.705        2.367        0.678      183.320       53.583        0.085      342.015       17.127      867.531
05/12/2014  21:12:00       48.572      151.336        2.440       68.152       92.975       56.054     4644.728     8644.318     3141.997        2.085        0.822      158.940       59.876        0.142      342.011       17.121      867.538
05/12/2014  21:13:00       80.736      180.191      -22.874       67.055      116.114       58.524     4496.348    13482.517     3425.086        3.045        1.070      197.452       57.988        0.086      342.033       17.159      867.557
05/12/2014  21:14:00       35.002      287.069      -44.208       62.214       95.497       40.893     3870.625     9119.692     1672.248        5.012        0.733      289.195       36.597        0.016      342.010       17.116      867.577
05/12/2014  21:15:00       62.613      108.705        5.908       73.329       91.091       54.900     5377.101     8297.626     3014.010        1.623        0.834      125.448       49.606        0.156      341.916       16.959      867.583
05/12/2014  21:16:00       68.107      191.066      -16.733       83.611      115.261       63.222     6990.738    13284.992     3997.052        3.284        1.214      202.842       64.539        0.101      341.956       17.027      867.604
05/12/2014  21:17:00       45.326      176.183       -8.764       55.098       87.679       56.946     3035.820     7687.627     3242.881        2.357        0.698      181.920       56.402        0.096      341.917       16.961      867.602
05/12/2014  21:18:00       59.458      170.510       -9.099       72.190       88.370       52.161     5211.343     7809.259     2720.822        2.421        0.787      180.579       49.690        0.076      341.928       16.978      867.625
05/12/2014  21:19:00       61.627      189.797      -21.955       49.200       78.734       46.344     2420.684     6199.039     2147.743        2.553        0.538      199.551       44.702        0.050      341.895       16.921      867.625
05/12/2014  21:20:00       79.197      130.432      -10.526       42.998       66.466       47.838     1848.869     4417.720     2288.457        1.597        0.428      152.593       43.109        0.080      341.887       16.910      867.630
05/12/2014  21:21:00       81.486      131.891        4.411       85.409       77.923       58.356     7294.766     6072.010     3405.452        2.041        0.839      155.033       46.438        0.090      341.869       16.879      867.633
05/12/2014  21:22:00       92.990      114.345       28.236       82.895       66.373       65.710     6871.615     4405.331     4317.803        1.905        0.780      147.384       48.835        0.110      341.859       16.864      867.629
05/12/2014  21:23:00       54.112      135.102       -5.453       56.353       79.227       46.894     3175.605     6276.952     2199.092        1.643        0.583      145.535       47.393        0.106      341.821       16.800      867.655
05/12/2014  21:24:00       73.691       99.588       23.672       70.068       71.859       63.059     4909.551     5163.682     3976.388        1.498        0.702      123.887       47.518        0.147      341.765       16.705      867.676
05/12/2014  21:25:00       57.617      176.947      -11.678       58.336       81.125       57.033     3403.070     6581.251     3252.725        2.400        0.662      186.091       49.054        0.069      341.808       16.776      867.676
05/12/2014  21:26:00       20.484      154.005      -16.224       42.305       63.585       35.357     1789.746     4042.994     1250.115        1.574        0.354      155.362       26.503        0.029      341.765       16.705      867.699
05/12/2014  21:27:00       48.235      183.331      -16.061       48.738       70.590       50.710     2375.380     4982.978     2571.469        2.306        0.496      189.570       43.667        0.053      341.786       16.739      867.706
05/12/2014  21:28:00       79.731      112.720        1.481       80.829       84.151       58.521     6533.316     7081.444     3424.728        1.805        0.852      138.068       47.571        0.119      341.730       16.644      867.711
05/12/2014  21:29:00       80.601       80.890       24.529       70.190       48.754       42.709     4926.609     2376.974     1824.027        1.138        0.456      114.191       26.567        0.054      341.674       16.549      867.732
05/12/2014  21:30:00       59.886      131.872       12.627       60.398       96.334       59.311     3647.950     9280.206     3517.773        1.879        0.822      144.833       63.347        0.191      341.709       16.609      867.745
05/12/2014  21:31:00       84.652      163.920        1.575       59.381      124.644       71.295     3526.146    15536.152     5082.973        2.909        1.207      184.488       77.455        0.176      341.751       16.679      867.752
05/12/2014  21:32:00       80.670      219.096      -28.529       69.325      100.460       62.556     4805.921    10092.121     3913.307        3.706        0.941      233.476       58.224        0.062      341.752       16.681      867.767
05/12/2014  21:33:00       68.406      152.505       -4.969       69.036       84.373       54.866     4765.968     7118.819     3010.284        2.143        0.745      167.144       52.942        0.100      341.695       16.583      867.777
05/12/2014  21:34:00       93.417      120.553       17.198       73.329       73.042       52.090     5377.210     5335.107     2713.350        1.849        0.671      152.512       44.059        0.083      341.652       16.510      867.780
05/12/2014  21:35:00       67.446      148.955      -14.011       51.984       80.833       52.464     2702.379     6533.956     2752.508        1.946        0.599      163.513       52.059        0.101      341.664       16.532      867.802
05/12/2014  21:36:00       92.130      127.055       -4.857       62.510       70.780       45.869     3907.485     5009.833     2103.925        1.784        0.551      156.942       44.164        0.079      341.643       16.498      867.815
05/12/2014  21:37:00       98.967       89.589       16.996       55.576       49.916       37.040     3088.697     2491.564     1371.964        1.253        0.348      133.493       34.360        0.066      341.606       16.434      867.824
05/12/2014  21:38:00       88.230      161.516      -12.848       54.328       78.868       52.207     2951.505     6220.103     2725.620        2.296        0.595      184.044       41.329        0.050      341.643       16.497      867.851
05/12/2014  21:39:00      116.388      107.467       -5.275       61.660       50.877       39.758     3801.898     2588.443     1580.661        1.655        0.399      158.415       26.334        0.028      341.597       16.418      867.864
05/12/2014  21:40:00      108.994       64.018       18.756       43.519       34.617       31.541     1893.922     1198.323      994.820        1.021        0.204      126.404       20.390        0.026      341.438       16.151      867.875
05/12/2014  21:41:00      125.984       82.043       23.715       44.254       47.202       37.069     1958.452     2228.037     1374.136        1.436        0.278      150.343       24.936        0.028      341.369       16.033      867.899
05/12/2014  21:42:00      119.503       81.698       21.095       45.649       40.425       36.540     2083.859     1634.147     1335.177        1.323        0.253      144.760       20.739        0.021      341.411       16.106      867.898
05/12/2014  21:43:00      126.686       91.619       18.823       51.089       43.493       29.918     2610.038     1891.601      895.060        1.510        0.270      156.344       13.027        0.007      341.460       16.186      867.910
05/12/2014  21:44:00      124.848       62.327        8.945       75.212       57.921       47.692     5656.886     3354.876     2274.515        1.542        0.564      139.541       31.259        0.050      341.497       16.250      867.925
05/12/2014  21:45:00      149.043      101.397       24.489       46.103       39.714       38.496     2125.508     1577.176     1481.934        1.914        0.259      180.264       17.478        0.009      341.451       16.172      867.950
05/12/2014  21:46:00      111.419       65.880       30.370       58.003       36.683       44.544     3364.304     1345.621     1984.172        1.218        0.335      129.439       33.809        0.068      341.207       15.759      867.969
05/12/2014  21:47:00      131.755      101.709       25.388       59.524       36.855       38.740     3543.116     1358.282     1500.821        1.737        0.320      166.446       31.755        0.036      341.448       16.165      867.995
05/12/2014  21:48:00      100.938      100.039       64.257       49.096       37.862       37.225     2410.453     1433.557     1385.680        1.478        0.261      142.114       17.226        0.015      341.158       15.677      868.015
05/12/2014  21:49:00       73.529       33.361       37.706       42.874       49.571       32.965     1838.169     2457.256     1086.670        0.666        0.269       80.743       23.923        0.088      341.043       15.481      868.020
05/12/2014  21:50:00       57.363       36.759       44.524       32.610       39.178       29.987     1063.408     1534.913      899.197        0.506        0.175       68.130       23.476        0.119      340.974       15.365      868.029
05/12/2014  21:51:00       25.838       33.028       31.783       33.473       27.654       22.524     1120.438      764.768      507.341        0.258        0.120       41.934       17.534        0.175      340.906       15.249      868.032
05/12/2014  21:52:00      117.659       67.650       38.050       34.837       24.939       26.329     1213.602      621.961      693.191        1.120        0.126      135.721       15.213        0.013      341.075       15.536      868.029
05/12/2014  21:53:00      119.529       70.592       45.557       44.874       26.659       33.054     2013.659      710.727     1092.566        1.258        0.191      138.818       26.351        0.036      340.814       15.095      868.043
05/12/2014  21:54:00       85.221       83.250       51.908       54.258       45.723       29.708     2943.976     2090.622      882.556        1.140        0.296      119.136       17.279        0.021      340.930       15.289      868.051
05/12/2014  21:55:00      137.226       63.304       39.144       62.409       39.167       39.916     3894.922     1534.074     1593.285        1.570        0.351      151.124       33.098        0.048      340.831       15.123      868.072
05/12/2014  21:56:00      141.965       72.695       38.750       57.436       44.135       38.929     3298.896     1947.857     1515.491        1.685        0.338      159.495       32.781        0.042      341.035       15.466      868.095
05/12/2014  21:57:00      105.465       78.324       43.135       49.339       29.488       33.990     2434.379      869.527     1155.331        1.179        0.223      131.367        5.441        0.002      340.917       15.268      868.105
05/12/2014  21:58:00       75.827       56.417       53.087       46.105       26.213       24.906     2125.649      687.147      620.326        0.759        0.172       94.513       18.416        0.038      340.876       15.199      868.122
05/12/2014  21:59:00      106.383       71.851       58.624       64.664       37.080       41.623     4181.467     1374.890     1732.472        1.360        0.364      128.374       32.731        0.065      340.836       15.130      868.141
05/12/2014  22:00:00       69.680       44.551       38.443       45.265       29.613       30.100     2048.936      876.917      905.992        0.607        0.192       82.705       20.592        0.062      340.737       14.963      868.152
05/12/2014  22:01:00       89.594       51.208       19.793       50.215       40.678       26.640     2521.546     1654.674      709.687        0.796        0.244      103.196       19.509        0.036      340.726       14.946      868.162
05/12/2014  22:02:00       65.048       40.776       10.508       41.961       30.750       30.159     1760.708      945.551      909.557        0.481        0.181       76.772       23.240        0.092      340.428       14.442      868.173
05/12/2014  22:03:00      131.686       92.822       27.807       76.086       56.552       31.968     5789.077     3198.086     1021.976        1.837        0.500      161.112       19.804        0.015      340.986       15.383      868.158
05/12/2014  22:04:00      101.614       74.727       15.046       64.010       48.457       39.209     4097.289     2348.053     1537.382        1.206        0.399      126.133       26.614        0.045      341.101       15.579      868.157
05/12/2014  22:05:00       63.139       62.685        1.487       45.489       39.832       28.751     2069.226     1586.558      826.623        0.620        0.224       88.971       19.829        0.050      341.057       15.507      868.162
05/12/2014  22:06:00       56.554       70.711        4.611       49.258       52.080       42.494     2426.336     2712.358     1805.703        0.758        0.347       90.545       36.158        0.159      341.062       15.514      868.161
05/12/2014  22:07:00       44.028       69.480       -1.081       38.000       49.100       39.606     1443.986     2410.804     1568.610        0.609        0.271       82.256       34.287        0.174      341.068       15.525      868.177
05/12/2014  22:08:00       46.321       91.296       -9.052       41.267       37.806       32.897     1702.948     1429.324     1082.232        0.739        0.211      102.375       28.143        0.076      341.075       15.536      868.178
05/12/2014  22:09:00       34.322      109.607      -26.783       25.052       33.136       16.681      627.601     1098.006      278.255        0.796        0.100      114.855       12.368        0.012      341.089       15.560      868.178
05/12/2014  22:10:00       42.842       66.570       -3.430       41.200       41.539       26.564     1697.480     1725.469      705.625        0.520        0.206       79.164       21.031        0.071      340.990       15.391      868.197
05/12/2014  22:11:00       39.432       98.365      -12.406       23.468       38.679       18.325      550.767     1496.041      335.808        0.688        0.119      105.975        8.913        0.007      340.981       15.376      868.191
05/12/2014  22:12:00       28.570       74.067       -3.738       29.113       43.273       26.316      847.574     1872.529      692.550        0.486        0.171       79.386       24.475        0.095      340.917       15.268      868.193
05/12/2014  22:13:00       34.907       75.953        0.027       29.592       43.588       28.696      875.678     1899.879      823.462        0.529        0.180       83.590       27.916        0.112      340.931       15.293      868.216
05/12/2014  22:14:00       20.828       30.691        3.006       29.788       28.530       24.933      887.316      813.970      621.664        0.185        0.116       37.091       19.230        0.269      340.837       15.133      868.221
05/12/2014  22:15:00      -12.990       32.705       -4.331       20.047       23.296       18.247      401.867      542.695      332.947        0.127        0.064       35.190       17.571        0.249      340.799       15.068      868.221
05/12/2014  22:16:00       -3.280       68.831       -8.737       20.137       21.369       14.341      405.505      456.638      205.666        0.295        0.053       68.909       11.613        0.028      341.059       15.510      868.217
05/12/2014  22:17:00       35.082       71.926      -10.171       22.673       31.959       16.008      514.055     1021.407      256.269        0.415        0.090       80.026       16.813        0.044      340.928       15.288      868.244
05/12/2014  22:18:00       23.423       89.069      -12.466       26.120       30.873       20.582      682.280      953.144      423.634        0.535        0.103       92.097       17.124        0.035      341.017       15.437      868.242
05/12/2014  22:19:00       24.279      136.122      -27.404       24.809       21.061       10.336      615.500      443.576      106.843        1.052        0.058      138.270        4.130        0.001      341.154       15.670      868.243
05/12/2014  22:20:00        0.650      173.620      -24.663       36.142       41.219       33.073     1306.220     1698.998     1093.853        1.742        0.205      173.621       31.154        0.032      341.426       16.130      868.253
05/12/2014  22:21:00       -8.112       85.984        0.050       71.945       71.934       36.973     5176.105     5174.436     1367.004        0.959        0.586       86.366       37.238        0.186      341.382       16.055      868.246
05/12/2014  22:22:00      145.522       80.791       40.054       68.403       47.475       53.297     4678.978     2253.841     2840.603        1.954        0.489      166.444       44.465        0.071      341.175       15.706      868.243
05/12/2014  22:23:00      134.745       68.935       56.629       95.446       88.030       69.237     9109.865     7749.228     4793.699        2.388        1.083      151.355       56.658        0.140      341.273       15.871      868.256
05/12/2014  22:24:00      124.026       24.976       26.746       91.557       66.158       55.224     8382.603     4376.860     3049.654        1.626        0.790      126.516       37.115        0.086      341.329       15.965      868.262
05/12/2014  22:25:00       77.146       59.013        5.996       88.778       42.604       32.774     7881.504     1815.129     1074.111        1.012        0.539       97.129       23.139        0.057      341.254       15.838      868.272
05/12/2014  22:26:00        7.186      -38.964       24.816       35.315       41.747       34.207     1247.174     1742.806     1170.142        0.317        0.208       39.621       25.617        0.418      341.042       15.480      868.271
05/12/2014  22:27:00       10.570       17.169       35.008       18.143       27.386       16.513      329.177      750.017      272.668        0.149        0.068       20.162       10.600        0.276      340.618       14.762      868.286
05/12/2014  22:28:00       84.442       42.736       18.582       97.873       63.248       40.594     9579.091     4000.277     1647.846        1.226        0.761       94.641       48.446        0.262      341.068       15.523      868.265
05/12/2014  22:29:00       88.923      -10.331       28.054       73.855       37.936       35.414     5454.487     1439.164     1254.174        0.847        0.407       89.521       35.725        0.159      341.187       15.727      868.275
05/12/2014  22:30:00      145.398       86.244       54.196       79.327       61.224       47.272     6292.833     3748.428     2234.633        2.189        0.614      169.052       40.311        0.057      341.205       15.753      868.285
05/12/2014  22:31:00       50.141        8.451       19.822       42.882       36.126       37.377     1838.848     1305.119     1397.067        0.376        0.227       50.848       18.698        0.135      340.952       15.329      868.302
05/12/2014  22:32:00       21.599        2.741        4.842       19.815       13.172       12.899      392.620      173.508      166.372        0.061        0.037       21.773        6.621        0.092      340.790       15.053      868.295
05/12/2014  22:33:00       73.521       23.653       -1.928       27.201       27.183       16.449      739.891      738.889      270.578        0.386        0.087       77.232       10.644        0.019      340.893       15.228      868.301
05/12/2014  22:34:00       20.771       25.702       -5.867       35.953       36.146       22.443     1292.640     1306.535      503.692        0.211        0.155       33.046       21.065        0.406      340.892       15.226      868.298
05/12/2014  22:35:00       64.414       22.797       17.453       38.907       28.682       14.483     1513.770      822.646      209.770        0.376        0.127       68.329       11.777        0.030      341.175       15.704      868.308
05/12/2014  22:36:00       66.898      -13.753       -1.960       15.428       22.644       13.567      238.021      512.743      184.068        0.280        0.047       68.297        5.749        0.007      341.417       16.114      868.318
05/12/2014  22:37:00       51.780       14.467       15.694       18.234       29.474       15.874      332.487      868.732      251.981        0.229        0.073       53.763        6.733        0.016      340.726       14.945      868.327
05/12/2014  22:38:00       48.723        9.589        1.913       21.993       12.829       14.406      483.690      164.588      207.527        0.166        0.043       49.657        5.527        0.012      340.880       15.206      868.343
05/12/2014  22:39:00       56.041      -83.767        3.593       44.592       46.014       27.677     1988.427     2117.285      766.027        0.752        0.244      100.784       15.564        0.024      341.514       16.279      868.336
05/12/2014  22:40:00       36.783        4.204       35.733       79.818       70.989       43.250     6370.842     5039.457     1870.579        0.796        0.664       37.022       27.516        0.552      341.289       15.898      868.333
05/12/2014  22:41:00       66.932       26.874       35.695       68.496       55.667       38.814     4691.768     3098.798     1506.536        0.788        0.465       72.126       28.143        0.152      341.042       15.480      868.348
05/12/2014  22:42:00       62.957      -45.015       24.592       43.848       56.024       40.538     1922.684     3138.682     1643.310        0.665        0.335       77.395       43.120        0.310      341.189       15.729      868.351
05/12/2014  22:43:00       48.494      -38.779       21.694       40.454       55.813       34.672     1636.543     3115.135     1202.156        0.514        0.298       62.092       38.880        0.392      341.077       15.539      868.346
05/12/2014  22:44:00      130.374      -56.171       56.446       97.943      103.625       75.911     9592.819    10738.153     5762.497        2.471        1.305      141.960       65.542        0.213      341.459       16.184      868.324
05/12/2014  22:45:00       35.797       -1.120       25.032       63.641       63.948       44.387     4050.114     4089.305     1970.188        0.601        0.505       35.815       38.418        1.151      341.103       15.583      868.319
05/12/2014  22:46:00      106.637      -32.577       12.795       43.663       48.590       33.232     1906.464     2360.991     1104.379        0.898        0.269      111.502       27.171        0.059      341.128       15.624      868.313
05/12/2014  22:47:00       62.557        5.783       46.320       39.758       49.220       37.437     1580.721     2422.607     1401.566        0.575        0.270       62.823       27.775        0.195      341.038       15.475      868.307
05/12/2014  22:48:00      122.927       10.018       29.045       70.303       46.785       56.208     4942.471     2188.849     3159.309        1.317        0.515      123.335       54.894        0.198      341.032       15.461      868.294
05/12/2014  22:49:00      124.161      -32.188       46.508       67.230      105.262       61.450     4519.897    11080.114     3776.073        1.899        0.969      128.266       66.335        0.267      341.132       15.631      868.282
05/12/2014  22:50:00      179.729       30.283       93.218      128.521      194.219      101.229    16517.563    37720.971    10247.222        5.318        3.224      182.263      121.079        0.441      341.381       16.051      868.259
05/12/2014  22:51:00       94.777       64.870      101.950       91.111       86.697       68.320     8301.199     7516.456     4667.579        2.203        1.024      114.851       65.591        0.326      341.210       15.762      868.278
05/12/2014  22:52:00       65.658       49.604       78.135       60.491       61.778       44.587     3659.160     3816.513     1988.044        1.117        0.473       82.289       42.561        0.268      341.005       15.418      868.289
05/12/2014  22:53:00      103.544       72.045      117.339       98.191      104.596       85.081     9641.505    10940.396     7238.788        2.874        1.391      126.143       78.013        0.382      341.312       15.936      868.282
05/12/2014  22:54:00       91.880       78.362       98.784      122.702       82.477       72.563    15055.798     6802.507     5265.428        2.573        1.356      120.759       62.948        0.272      341.279       15.880      868.287
05/12/2014  22:55:00      169.025       46.024       50.965      107.658       78.852       59.996    11590.278     6217.640     3599.542        2.734        1.070      175.179       53.817        0.094      341.118       15.607      868.281
05/12/2014  22:56:00      145.742      104.950       93.524      106.193       94.323       87.108    11277.039     8896.827     7587.840        3.438        1.388      179.597       54.227        0.091      341.447       16.163      868.280
05/12/2014  22:57:00      143.870       77.505       91.571      117.073      121.912       90.606    13706.032    14862.520     8209.428        3.593        1.839      163.419       77.468        0.225      341.543       16.326      868.259
05/12/2014  22:58:00       90.793       39.226       42.226       88.072       46.858       50.573     7756.754     2195.648     2557.641        1.204        0.626       98.904       52.493        0.282      341.345       15.992      868.261
05/12/2014  22:59:00      113.691       35.561       26.912       77.462       55.267       45.827     6000.385     3054.463     2100.102        1.303        0.558      119.123       49.461        0.172      341.112       15.598      868.280
05/12/2014  23:00:00       81.489       68.530       59.803       58.295       63.285       44.479     3398.256     4005.026     1978.389        1.215        0.469      106.475       35.861        0.113      341.077       15.540      868.308
05/12/2014  23:01:00       75.337        4.710       34.250       56.225       49.394       38.965     3161.286     2439.788     1518.251        0.699        0.356       75.484       38.031        0.254      341.254       15.839      868.320
05/12/2014  23:02:00       47.663       25.628       68.747       60.606       71.632       52.513     3673.069     5131.115     2757.643        0.961        0.578       54.116       49.587        0.840      341.312       15.938      868.316
05/12/2014  23:03:00       75.537       -6.924       30.978       47.314       63.166       33.174     2238.641     3989.973     1100.498        0.702        0.366       75.853       35.724        0.222      341.237       15.809      868.327
05/12/2014  23:04:00       58.331      -46.181       25.157       39.921       46.027       41.177     1593.681     2118.511     1695.564        0.579        0.270       74.399       28.258        0.144      341.170       15.695      868.357
05/12/2014  23:05:00       81.582       14.088       37.809       52.633       29.280       27.642     2770.266      857.315      764.073        0.634        0.220       82.790       21.806        0.069      340.892       15.226      868.358
05/12/2014  23:06:00      116.298       48.680       28.270       50.907       46.210       31.401     2591.497     2135.383      986.048        1.120        0.286      126.075       31.576        0.063      341.399       16.083      868.352
05/12/2014  23:07:00      112.416       78.588       30.639       53.288       43.549       36.135     2839.561     1896.505     1305.737        1.290        0.302      137.162       32.622        0.057      341.442       16.157      868.363
05/12/2014  23:08:00       84.312       10.543       21.313       52.541       45.761       37.105     2760.583     2094.071     1376.767        0.695        0.312       84.968       26.414        0.097      341.320       15.950      868.387
05/12/2014  23:09:00       64.205       11.604       31.115       37.934       40.043       28.502     1438.964     1603.428      812.344        0.454        0.193       65.246       19.163        0.086      341.214       15.772      868.411
05/12/2014  23:10:00       75.816       36.067       64.489       39.628       31.223       27.093     1570.413      974.900      734.021        0.724        0.164       83.958       20.319        0.059      341.057       15.506      868.443
05/12/2014  23:11:00       76.354        5.313       22.382       56.431       31.557       35.410     3184.405      995.859     1253.873        0.590        0.272       76.539       25.712        0.113      341.198       15.743      868.448
05/12/2014  23:12:00       20.906       30.785       26.525       23.319       22.944       24.702      543.780      526.411      610.200        0.188        0.084       37.213       13.652        0.135      340.921       15.274      868.461
05/12/2014  23:13:00       11.256       10.231       13.603       20.180       26.843       16.455      407.225      720.566      270.778        0.091        0.070       15.211       17.083        1.261      340.957       15.338      868.455
05/12/2014  23:14:00       25.523      -61.731       -5.448       19.215       21.193       14.659      369.223      449.126      214.884        0.276        0.052       66.799        9.586        0.021      341.238       15.812      868.440
05/12/2014  23:15:00       -4.741      -10.065       15.502       12.713       35.127       18.860      161.618     1233.894      355.718        0.106        0.088       11.126       24.395        4.808      340.935       15.299      868.441
05/12/2014  23:16:00        9.731      -27.692        4.758       32.267       22.676       20.472     1041.168      514.212      419.120        0.143        0.099       29.352       14.001        0.228      340.837       15.134      868.453
05/12/2014  23:17:00       14.373      -51.020       25.199       31.222       39.078       28.807      974.840     1527.094      829.820        0.339        0.167       53.006       16.291        0.094      340.988       15.389      868.462
05/12/2014  23:18:00        8.366      -26.493        5.382       21.676       35.098       14.841      469.864     1231.895      220.242        0.136        0.096       27.783        8.171        0.087      340.627       14.778      868.475
05/12/2014  23:19:00        1.597      -48.563       17.043       25.761       39.593       19.709      663.625     1567.608      388.450        0.264        0.131       48.590       21.171        0.190      341.087       15.558      868.490
05/12/2014  23:20:00      -74.467      -32.960        0.495       45.856       19.549        8.951     2102.782      382.158       80.112        0.460        0.128       81.435       13.884        0.029      340.934       15.296      868.499
05/12/2014  23:21:00      -44.681      -37.067        1.532       58.034       37.547       20.651     3367.968     1409.771      426.445        0.429        0.260       58.055       15.816        0.074      340.818       15.102      868.502
05/12/2014  23:22:00      -74.695      -38.753       -2.294       37.518       21.561       14.081     1407.614      464.889      198.285        0.458        0.104       84.150       14.882        0.031      340.960       15.342      868.519
05/12/2014  23:23:00     -139.327       -7.642       -9.470       29.247       19.445       19.031      855.398      378.089      362.184        1.058        0.080      139.536       13.490        0.009      341.193       15.736      868.507
05/12/2014  23:24:00      -66.269      -13.233       -0.433       41.343       19.191       19.733     1709.278      368.307      389.409        0.352        0.123       67.578       21.079        0.097      341.044       15.484      868.518
05/12/2014  23:25:00        9.271       -8.893       24.301       20.876       21.349       15.279      435.825      455.792      233.457        0.094        0.056       12.847       14.108        1.206      340.244       14.132      868.539
05/12/2014  23:26:00       -3.659        3.809        6.717       16.998       22.729       14.028      288.935      516.606      196.773        0.054        0.050        5.281        8.226        2.426      340.411       14.413      868.553
05/12/2014  23:27:00      -39.747       23.909       -2.839       11.687       16.526        8.719      136.581      273.097       76.019        0.132        0.024       46.384        5.902        0.016      341.042       15.482      868.567
05/12/2014  23:28:00      -14.464       24.872        2.024       13.365       10.760        8.314      178.623      115.777       69.117        0.060        0.018       28.772        5.560        0.037      341.283       15.886      868.577
05/12/2014  23:29:00      -47.610        8.485       -0.183       18.957       20.465       11.445      359.385      418.805      130.984        0.162        0.045       48.360       11.822        0.060      341.078       15.541      868.574
05/12/2014  23:30:00      -69.140      -12.272       -3.724       27.524       18.911       11.223      757.589      357.636      125.966        0.309        0.062       70.221       11.839        0.028      340.648       14.814      868.572
05/12/2014  23:31:00      -83.108      -10.798       -3.955       23.279       16.219       14.943      541.903      263.066      223.294        0.403        0.051       83.807       12.798        0.023      340.596       14.727      868.567
05/12/2014  23:32:00      -67.016      -21.601       -2.597       23.521       22.942       12.833      553.231      526.336      164.688        0.310        0.062       70.412       13.047        0.034      340.557       14.660      868.572
05/12/2014  23:33:00      -43.408       -7.966       14.900       37.574       23.415       18.456     1411.769      548.272      340.614        0.223        0.115       44.132       22.449        0.259      340.268       14.171      868.576
05/12/2014  23:34:00      -20.631      -30.436        2.986       37.667       22.694       18.520     1418.826      515.037      342.980        0.182        0.114       36.770       16.337        0.197      340.202       14.059      868.574
05/12/2014  23:35:00      -53.758      -15.262        7.577       50.426       42.715       24.333     2542.798     1824.593      592.109        0.407        0.248       55.882       29.056        0.270      340.177       14.018      868.587
05/12/2014  23:36:00      -18.783       30.635        6.970       39.553       29.850       26.491     1564.444      891.025      701.776        0.225        0.158       35.935       20.872        0.337      340.208       14.070      868.601
05/12/2014  23:37:00      -53.819       -1.067       -5.492       44.287       43.217       22.827     1961.299     1867.703      521.078        0.364        0.218       53.830       22.413        0.173      340.327       14.270      868.614
05/12/2014  23:38:00      -85.617        9.368       -7.212       36.166       44.743       19.055     1307.984     2001.928      363.110        0.557        0.184       86.128       12.598        0.021      340.345       14.301      868.622
05/12/2014  23:39:00      -80.166      -14.784       -1.996       29.753       39.337       25.953      885.216     1547.385      673.568        0.488        0.155       81.518       17.444        0.046      340.316       14.252      868.633
05/12/2014  23:40:00      -77.076        6.888       -7.482       32.333       33.897       20.051     1045.455     1149.022      402.049        0.432        0.130       77.383       11.768        0.023      340.440       14.462      868.642
05/12/2014  23:41:00     -124.774        4.455       -3.887       53.351       35.098       22.745     2846.369     1231.895      517.320        1.010        0.230      124.854       22.815        0.033      340.602       14.735      868.660
05/12/2014  23:42:00     -100.195       -2.260      -15.446       35.377       33.991       22.424     1251.566     1155.421      502.853        0.660        0.145      100.221       15.402        0.024      340.494       14.554      868.670
05/12/2014  23:43:00      -82.515      -18.491      -11.014       32.870       32.574       16.556     1080.409     1061.078      274.105        0.484        0.121       84.561       14.512        0.029      340.503       14.569      868.673
05/12/2014  23:44:00      -39.847      -17.468       -1.941       23.063       17.871       16.861      531.890      319.374      284.301        0.152        0.057       43.507       12.491        0.082      340.298       14.223      868.672
05/12/2014  23:45:00      -41.708      -23.221       -4.553       18.444       22.656       13.679      340.178      513.311      187.116        0.167        0.052       47.736        7.454        0.024      340.223       14.095      868.679
05/12/2014  23:46:00      -53.139      -29.920       -8.837       21.453       16.451       10.795      460.239      270.632      116.533        0.232        0.042       60.983        5.766        0.009      339.915       13.576      868.678
05/12/2014  23:47:00      -60.391      -22.696       -8.474       20.385       27.050       11.679      415.549      731.716      136.388        0.276        0.064       64.515       11.513        0.032      339.908       13.562      868.673
05/12/2014  23:48:00      -33.757       -7.088       -2.209       17.057       14.897       12.938      290.933      221.931      167.401        0.094        0.034       34.493       10.077        0.085      339.843       13.456      868.678
05/12/2014  23:49:00        6.022       17.023       -5.125       19.691       27.843       13.133      387.717      775.237      172.465        0.084        0.067       18.057        9.366        0.269      340.121       13.923      868.681
05/12/2014  23:50:00       -3.928       61.756       -9.351       22.269       17.998       10.077      495.924      323.936      101.540        0.242        0.046       61.881        7.078        0.013      340.350       14.311      868.692
05/12/2014  23:51:00      -52.337       17.629      -11.893       14.937       22.961       10.445      223.122      527.191      109.102        0.203        0.043       55.226        5.722        0.011      340.357       14.322      868.686
05/12/2014  23:52:00      -47.221       33.630      -12.157       12.837       11.480        8.605      164.791      131.797       74.039        0.194        0.019       57.972        5.291        0.008      340.509       14.580      868.689
05/12/2014  23:53:00      -23.425      -14.079      -11.471       22.991       23.055       16.517      528.584      531.524      272.798        0.111        0.067       27.331       15.309        0.314      340.580       14.698      868.679
05/12/2014  23:54:00      -46.287      -15.801       -7.106       17.114       21.869       18.373      292.879      478.256      337.567        0.178        0.055       48.910       16.124        0.109      340.281       14.193      868.672
05/12/2014  23:55:00      -41.472      -16.629      -12.792       21.666       11.569       14.613      469.394      133.845      213.532        0.149        0.041       44.682       10.626        0.057      340.136       13.948      868.655
05/12/2014  23:56:00      -17.364       14.292      -15.450       23.531       28.292       16.470      553.701      800.443      271.273        0.118        0.081       22.490       12.829        0.325      340.514       14.587      868.651
05/12/2014  23:57:00      -43.195       25.841      -11.811       17.570       19.312       19.535      308.699      372.960      381.600        0.187        0.053       50.334        5.350        0.011      340.483       14.535      868.647
05/12/2014  23:58:00      -35.782       55.575      -17.382       30.346       22.541       13.240      920.896      508.082      175.301        0.314        0.080       66.098        9.234        0.020      340.805       15.079      868.656
05/12/2014  23:59:00      -23.138      -22.430        1.823       14.292       30.890       18.191      204.262      954.174      330.911        0.127        0.074       32.225       17.821        0.306      339.949       13.633      868.673
